<?xml version="1.0" encoding="UTF-8" standalone="no" ?>
<gpx xmlns="http://www.topografix.com/GPX/1/1" xmlns:xsi="http://www.w3.org/2001/XMLSchema-instance" xsi:schemaLocation="http://www.topografix.com/GPX/1/1 http://www.topografix.com/GPX/1/1/gpx.xsd" version="1.1" creator="VisuGPX - https://www.visugpx.com">
  <metadata>
    <name>Hardangervidda 2019</name>
  </metadata>
  <trk>
    <name><![CDATA[2019-04-07]]></name>
    <trkseg>
      <trkpt lat="60.59243" lon="7.50869">
        <ele>1209</ele>
        <time>2019-04-07T10:23:06Z</time>
      </trkpt>
      <trkpt lat="60.59248" lon="7.50877">
        <ele>1210.44</ele>
        <time>2019-04-07T10:23:14Z</time>
      </trkpt>
      <trkpt lat="60.59252" lon="7.50866">
        <ele>1208.51</ele>
        <time>2019-04-07T10:23:22Z</time>
      </trkpt>
      <trkpt lat="60.59276" lon="7.50882">
        <ele>1211.88</ele>
        <time>2019-04-07T10:23:34Z</time>
      </trkpt>
      <trkpt lat="60.59291" lon="7.50907">
        <ele>1209.48</ele>
        <time>2019-04-07T10:23:44Z</time>
      </trkpt>
      <trkpt lat="60.5929" lon="7.50902">
        <ele>1209.48</ele>
        <time>2019-04-07T10:23:52Z</time>
      </trkpt>
      <trkpt lat="60.59287" lon="7.50899">
        <ele>1209.48</ele>
        <time>2019-04-07T10:23:53Z</time>
      </trkpt>
      <trkpt lat="60.59282" lon="7.50897">
        <ele>1209</ele>
        <time>2019-04-07T10:23:54Z</time>
      </trkpt>
      <trkpt lat="60.59266" lon="7.50892">
        <ele>1208.51</ele>
        <time>2019-04-07T10:23:58Z</time>
      </trkpt>
      <trkpt lat="60.59256" lon="7.50886">
        <ele>1208.03</ele>
        <time>2019-04-07T10:24:00Z</time>
      </trkpt>
      <trkpt lat="60.59224" lon="7.50875">
        <ele>1208.51</ele>
        <time>2019-04-07T10:24:06Z</time>
      </trkpt>
      <trkpt lat="60.59204" lon="7.50868">
        <ele>1209.48</ele>
        <time>2019-04-07T10:24:10Z</time>
      </trkpt>
      <trkpt lat="60.59184" lon="7.50861">
        <ele>1210.92</ele>
        <time>2019-04-07T10:24:14Z</time>
      </trkpt>
      <trkpt lat="60.59163" lon="7.5085">
        <ele>1210.92</ele>
        <time>2019-04-07T10:24:18Z</time>
      </trkpt>
      <trkpt lat="60.59122" lon="7.50821">
        <ele>1211.88</ele>
        <time>2019-04-07T10:24:26Z</time>
      </trkpt>
      <trkpt lat="60.59097" lon="7.50805">
        <ele>1211.88</ele>
        <time>2019-04-07T10:24:30Z</time>
      </trkpt>
      <trkpt lat="60.59058" lon="7.5077">
        <ele>1213.32</ele>
        <time>2019-04-07T10:24:36Z</time>
      </trkpt>
      <trkpt lat="60.59035" lon="7.50744">
        <ele>1215.72</ele>
        <time>2019-04-07T10:24:40Z</time>
      </trkpt>
      <trkpt lat="60.59013" lon="7.5072">
        <ele>1219.09</ele>
        <time>2019-04-07T10:24:44Z</time>
      </trkpt>
      <trkpt lat="60.59003" lon="7.5071">
        <ele>1220.05</ele>
        <time>2019-04-07T10:24:46Z</time>
      </trkpt>
      <trkpt lat="60.58986" lon="7.50698">
        <ele>1221.97</ele>
        <time>2019-04-07T10:24:49Z</time>
      </trkpt>
      <trkpt lat="60.58976" lon="7.50691">
        <ele>1222.93</ele>
        <time>2019-04-07T10:24:51Z</time>
      </trkpt>
      <trkpt lat="60.58971" lon="7.50687">
        <ele>1222.93</ele>
        <time>2019-04-07T10:24:52Z</time>
      </trkpt>
      <trkpt lat="60.58884" lon="7.50628">
        <ele>1225.34</ele>
        <time>2019-04-07T10:25:05Z</time>
      </trkpt>
      <trkpt lat="60.58842" lon="7.50603">
        <ele>1227.74</ele>
        <time>2019-04-07T10:25:11Z</time>
      </trkpt>
      <trkpt lat="60.58825" lon="7.50593">
        <ele>1231.11</ele>
        <time>2019-04-07T10:25:14Z</time>
      </trkpt>
      <trkpt lat="60.58795" lon="7.50577">
        <ele>1232.55</ele>
        <time>2019-04-07T10:25:19Z</time>
      </trkpt>
      <trkpt lat="60.58775" lon="7.50559">
        <ele>1233.03</ele>
        <time>2019-04-07T10:25:23Z</time>
      </trkpt>
      <trkpt lat="60.58763" lon="7.50553">
        <ele>1234.47</ele>
        <time>2019-04-07T10:25:25Z</time>
      </trkpt>
      <trkpt lat="60.58758" lon="7.50551">
        <ele>1234.47</ele>
        <time>2019-04-07T10:25:26Z</time>
      </trkpt>
      <trkpt lat="60.58738" lon="7.50538">
        <ele>1235.91</ele>
        <time>2019-04-07T10:25:30Z</time>
      </trkpt>
      <trkpt lat="60.58711" lon="7.50502">
        <ele>1240.24</ele>
        <time>2019-04-07T10:25:40Z</time>
      </trkpt>
      <trkpt lat="60.58702" lon="7.50488">
        <ele>1243.12</ele>
        <time>2019-04-07T10:25:44Z</time>
      </trkpt>
      <trkpt lat="60.58701" lon="7.50485">
        <ele>1243.12</ele>
        <time>2019-04-07T10:25:45Z</time>
      </trkpt>
      <trkpt lat="60.58694" lon="7.5045">
        <ele>1246.97</ele>
        <time>2019-04-07T10:25:51Z</time>
      </trkpt>
      <trkpt lat="60.58686" lon="7.50435">
        <ele>1249.37</ele>
        <time>2019-04-07T10:25:56Z</time>
      </trkpt>
      <trkpt lat="60.58668" lon="7.50415">
        <ele>1252.74</ele>
        <time>2019-04-07T10:26:05Z</time>
      </trkpt>
      <trkpt lat="60.58652" lon="7.50374">
        <ele>1254.66</ele>
        <time>2019-04-07T10:26:11Z</time>
      </trkpt>
      <trkpt lat="60.58643" lon="7.50357">
        <ele>1257.06</ele>
        <time>2019-04-07T10:26:15Z</time>
      </trkpt>
      <trkpt lat="60.58638" lon="7.50335">
        <ele>1258.02</ele>
        <time>2019-04-07T10:26:25Z</time>
      </trkpt>
      <trkpt lat="60.58634" lon="7.50322">
        <ele>1258.02</ele>
        <time>2019-04-07T10:26:29Z</time>
      </trkpt>
      <trkpt lat="60.58625" lon="7.50297">
        <ele>1258.02</ele>
        <time>2019-04-07T10:26:33Z</time>
      </trkpt>
      <trkpt lat="60.58601" lon="7.5027">
        <ele>1259.46</ele>
        <time>2019-04-07T10:26:42Z</time>
      </trkpt>
      <trkpt lat="60.58597" lon="7.5027">
        <ele>1259.46</ele>
        <time>2019-04-07T10:26:43Z</time>
      </trkpt>
      <trkpt lat="60.58582" lon="7.50269">
        <ele>1254.66</ele>
        <time>2019-04-07T10:26:46Z</time>
      </trkpt>
      <trkpt lat="60.58576" lon="7.5027">
        <ele>1254.66</ele>
        <time>2019-04-07T10:26:47Z</time>
      </trkpt>
      <trkpt lat="60.5855" lon="7.50291">
        <ele>1256.1</ele>
        <time>2019-04-07T10:26:53Z</time>
      </trkpt>
      <trkpt lat="60.58546" lon="7.50293">
        <ele>1256.1</ele>
        <time>2019-04-07T10:26:54Z</time>
      </trkpt>
      <trkpt lat="60.58538" lon="7.503">
        <ele>1256.1</ele>
        <time>2019-04-07T10:26:56Z</time>
      </trkpt>
      <trkpt lat="60.58524" lon="7.50311">
        <ele>1254.18</ele>
        <time>2019-04-07T10:26:59Z</time>
      </trkpt>
      <trkpt lat="60.58489" lon="7.50334">
        <ele>1252.25</ele>
        <time>2019-04-07T10:27:06Z</time>
      </trkpt>
      <trkpt lat="60.58474" lon="7.50341">
        <ele>1252.25</ele>
        <time>2019-04-07T10:27:09Z</time>
      </trkpt>
      <trkpt lat="60.58452" lon="7.50355">
        <ele>1252.25</ele>
        <time>2019-04-07T10:27:14Z</time>
      </trkpt>
      <trkpt lat="60.58441" lon="7.50357">
        <ele>1253.7</ele>
        <time>2019-04-07T10:27:16Z</time>
      </trkpt>
      <trkpt lat="60.58419" lon="7.50356">
        <ele>1253.7</ele>
        <time>2019-04-07T10:27:20Z</time>
      </trkpt>
      <trkpt lat="60.58401" lon="7.50349">
        <ele>1251.29</ele>
        <time>2019-04-07T10:27:24Z</time>
      </trkpt>
      <trkpt lat="60.584" lon="7.5035">
        <ele>1251.29</ele>
        <time>2019-04-07T10:27:26Z</time>
      </trkpt>
      <trkpt lat="60.58391" lon="7.50382">
        <ele>1247.93</ele>
        <time>2019-04-07T10:27:36Z</time>
      </trkpt>
      <trkpt lat="60.58383" lon="7.50414">
        <ele>1244.56</ele>
        <time>2019-04-07T10:27:41Z</time>
      </trkpt>
      <trkpt lat="60.58379" lon="7.50429">
        <ele>1243.6</ele>
        <time>2019-04-07T10:27:43Z</time>
      </trkpt>
      <trkpt lat="60.58368" lon="7.50456">
        <ele>1242.64</ele>
        <time>2019-04-07T10:27:47Z</time>
      </trkpt>
      <trkpt lat="60.58362" lon="7.50457">
        <ele>1242.16</ele>
        <time>2019-04-07T10:27:50Z</time>
      </trkpt>
      <trkpt lat="60.58379" lon="7.50463">
        <ele>1244.56</ele>
        <time>2019-04-07T10:27:58Z</time>
      </trkpt>
      <trkpt lat="60.58387" lon="7.50462">
        <ele>1246.49</ele>
        <time>2019-04-07T10:28:01Z</time>
      </trkpt>
      <trkpt lat="60.58394" lon="7.50465">
        <ele>1246.49</ele>
        <time>2019-04-07T10:28:03Z</time>
      </trkpt>
      <trkpt lat="60.58401" lon="7.50462">
        <ele>1246.97</ele>
        <time>2019-04-07T10:28:05Z</time>
      </trkpt>
      <trkpt lat="60.58416" lon="7.50459">
        <ele>1248.89</ele>
        <time>2019-04-07T10:28:08Z</time>
      </trkpt>
      <trkpt lat="60.58432" lon="7.50468">
        <ele>1250.33</ele>
        <time>2019-04-07T10:28:11Z</time>
      </trkpt>
      <trkpt lat="60.58438" lon="7.50473">
        <ele>1250.33</ele>
        <time>2019-04-07T10:28:12Z</time>
      </trkpt>
      <trkpt lat="60.58474" lon="7.50495">
        <ele>1249.37</ele>
        <time>2019-04-07T10:28:17Z</time>
      </trkpt>
      <trkpt lat="60.58489" lon="7.50499">
        <ele>1248.89</ele>
        <time>2019-04-07T10:28:19Z</time>
      </trkpt>
      <trkpt lat="60.5853" lon="7.50532">
        <ele>1250.33</ele>
        <time>2019-04-07T10:28:25Z</time>
      </trkpt>
      <trkpt lat="60.58542" lon="7.50546">
        <ele>1250.81</ele>
        <time>2019-04-07T10:28:27Z</time>
      </trkpt>
      <trkpt lat="60.58569" lon="7.50575">
        <ele>1254.18</ele>
        <time>2019-04-07T10:28:33Z</time>
      </trkpt>
      <trkpt lat="60.58571" lon="7.50576">
        <ele>1254.18</ele>
        <time>2019-04-07T10:28:34Z</time>
      </trkpt>
      <trkpt lat="60.58573" lon="7.50576">
        <ele>1254.66</ele>
        <time>2019-04-07T10:28:35Z</time>
      </trkpt>
      <trkpt lat="60.58578" lon="7.50573">
        <ele>1254.66</ele>
        <time>2019-04-07T10:28:39Z</time>
      </trkpt>
      <trkpt lat="60.58602" lon="7.50589">
        <ele>1254.18</ele>
        <time>2019-04-07T10:28:50Z</time>
      </trkpt>
      <trkpt lat="60.58603" lon="7.5059">
        <ele>1253.7</ele>
        <time>2019-04-07T10:28:55Z</time>
      </trkpt>
      <trkpt lat="60.58614" lon="7.50574">
        <ele>1251.29</ele>
        <time>2019-04-07T10:29:03Z</time>
      </trkpt>
      <trkpt lat="60.58627" lon="7.50544">
        <ele>1252.74</ele>
        <time>2019-04-07T10:29:11Z</time>
      </trkpt>
      <trkpt lat="60.58628" lon="7.50543">
        <ele>1252.74</ele>
        <time>2019-04-07T10:29:12Z</time>
      </trkpt>
      <trkpt lat="60.5863" lon="7.50539">
        <ele>1254.18</ele>
        <time>2019-04-07T10:29:23Z</time>
      </trkpt>
      <trkpt lat="60.58639" lon="7.50576">
        <ele>1249.37</ele>
        <time>2019-04-07T10:29:29Z</time>
      </trkpt>
      <trkpt lat="60.58639" lon="7.50581">
        <ele>1248.41</ele>
        <time>2019-04-07T10:29:30Z</time>
      </trkpt>
      <trkpt lat="60.58643" lon="7.50584">
        <ele>1245.53</ele>
        <time>2019-04-07T10:29:33Z</time>
      </trkpt>
      <trkpt lat="60.58643" lon="7.50565">
        <ele>1247.93</ele>
        <time>2019-04-07T10:29:39Z</time>
      </trkpt>
      <trkpt lat="60.5866" lon="7.50578">
        <ele>1245.53</ele>
        <time>2019-04-07T10:29:46Z</time>
      </trkpt>
      <trkpt lat="60.58663" lon="7.50582">
        <ele>1245.53</ele>
        <time>2019-04-07T10:29:47Z</time>
      </trkpt>
      <trkpt lat="60.58675" lon="7.50621">
        <ele>1239.28</ele>
        <time>2019-04-07T10:29:52Z</time>
      </trkpt>
      <trkpt lat="60.58676" lon="7.50638">
        <ele>1236.39</ele>
        <time>2019-04-07T10:29:54Z</time>
      </trkpt>
      <trkpt lat="60.58686" lon="7.50642">
        <ele>1232.07</ele>
        <time>2019-04-07T10:29:59Z</time>
      </trkpt>
      <trkpt lat="60.58709" lon="7.5062">
        <ele>1233.99</ele>
        <time>2019-04-07T10:30:06Z</time>
      </trkpt>
      <trkpt lat="60.58716" lon="7.5062">
        <ele>1233.99</ele>
        <time>2019-04-07T10:30:07Z</time>
      </trkpt>
      <trkpt lat="60.58731" lon="7.50621">
        <ele>1232.07</ele>
        <time>2019-04-07T10:30:09Z</time>
      </trkpt>
      <trkpt lat="60.58747" lon="7.50624">
        <ele>1231.59</ele>
        <time>2019-04-07T10:30:11Z</time>
      </trkpt>
      <trkpt lat="60.5876" lon="7.50615">
        <ele>1230.62</ele>
        <time>2019-04-07T10:30:16Z</time>
      </trkpt>
      <trkpt lat="60.58758" lon="7.50612">
        <ele>1230.62</ele>
        <time>2019-04-07T10:30:28Z</time>
      </trkpt>
      <trkpt lat="60.5876" lon="7.50612">
        <ele>1230.62</ele>
        <time>2019-04-07T10:30:43Z</time>
      </trkpt>
      <trkpt lat="60.58755" lon="7.50614">
        <ele>1230.62</ele>
        <time>2019-04-07T10:30:47Z</time>
      </trkpt>
      <trkpt lat="60.58751" lon="7.5061">
        <ele>1230.62</ele>
        <time>2019-04-07T10:31:00Z</time>
      </trkpt>
      <trkpt lat="60.58751" lon="7.50609">
        <ele>1231.11</ele>
        <time>2019-04-07T10:31:21Z</time>
      </trkpt>
      <trkpt lat="60.58751" lon="7.50609">
        <ele>1231.11</ele>
        <time>2019-04-07T10:31:48Z</time>
      </trkpt>
      <trkpt lat="60.58751" lon="7.50609">
        <ele>1231.11</ele>
        <time>2019-04-07T10:32:14Z</time>
      </trkpt>
      <trkpt lat="60.58751" lon="7.5061">
        <ele>1231.11</ele>
        <time>2019-04-07T10:32:24Z</time>
      </trkpt>
      <trkpt lat="60.58745" lon="7.50597">
        <ele>1231.11</ele>
        <time>2019-04-07T10:32:29Z</time>
      </trkpt>
      <trkpt lat="60.5873" lon="7.50585">
        <ele>1233.99</ele>
        <time>2019-04-07T10:32:33Z</time>
      </trkpt>
      <trkpt lat="60.58727" lon="7.50582">
        <ele>1233.99</ele>
        <time>2019-04-07T10:32:34Z</time>
      </trkpt>
      <trkpt lat="60.58711" lon="7.50568">
        <ele>1237.35</ele>
        <time>2019-04-07T10:32:40Z</time>
      </trkpt>
      <trkpt lat="60.58711" lon="7.50567">
        <ele>1237.35</ele>
        <time>2019-04-07T10:32:41Z</time>
      </trkpt>
      <trkpt lat="60.58702" lon="7.50536">
        <ele>1240.24</ele>
        <time>2019-04-07T10:32:47Z</time>
      </trkpt>
      <trkpt lat="60.58691" lon="7.50528">
        <ele>1243.6</ele>
        <time>2019-04-07T10:32:50Z</time>
      </trkpt>
      <trkpt lat="60.58682" lon="7.50516">
        <ele>1246.01</ele>
        <time>2019-04-07T10:32:56Z</time>
      </trkpt>
      <trkpt lat="60.58681" lon="7.50511">
        <ele>1246.97</ele>
        <time>2019-04-07T10:32:59Z</time>
      </trkpt>
      <trkpt lat="60.58678" lon="7.50499">
        <ele>1247.45</ele>
        <time>2019-04-07T10:33:05Z</time>
      </trkpt>
      <trkpt lat="60.58694" lon="7.50525">
        <ele>1244.56</ele>
        <time>2019-04-07T10:33:12Z</time>
      </trkpt>
      <trkpt lat="60.58708" lon="7.50535">
        <ele>1242.16</ele>
        <time>2019-04-07T10:33:16Z</time>
      </trkpt>
      <trkpt lat="60.58722" lon="7.50578">
        <ele>1238.8</ele>
        <time>2019-04-07T10:33:21Z</time>
      </trkpt>
      <trkpt lat="60.58728" lon="7.50607">
        <ele>1233.03</ele>
        <time>2019-04-07T10:33:24Z</time>
      </trkpt>
      <trkpt lat="60.58727" lon="7.50623">
        <ele>1232.07</ele>
        <time>2019-04-07T10:33:26Z</time>
      </trkpt>
      <trkpt lat="60.58727" lon="7.50652">
        <ele>1230.62</ele>
        <time>2019-04-07T10:33:29Z</time>
      </trkpt>
      <trkpt lat="60.58731" lon="7.50717">
        <ele>1226.78</ele>
        <time>2019-04-07T10:33:35Z</time>
      </trkpt>
      <trkpt lat="60.58738" lon="7.50795">
        <ele>1224.86</ele>
        <time>2019-04-07T10:33:45Z</time>
      </trkpt>
      <trkpt lat="60.58739" lon="7.50791">
        <ele>1224.38</ele>
        <time>2019-04-07T10:33:49Z</time>
      </trkpt>
      <trkpt lat="60.58725" lon="7.50763">
        <ele>1225.34</ele>
        <time>2019-04-07T10:33:56Z</time>
      </trkpt>
      <trkpt lat="60.58704" lon="7.5074">
        <ele>1228.22</ele>
        <time>2019-04-07T10:34:02Z</time>
      </trkpt>
      <trkpt lat="60.58694" lon="7.50732">
        <ele>1230.62</ele>
        <time>2019-04-07T10:34:06Z</time>
      </trkpt>
      <trkpt lat="60.58686" lon="7.50724">
        <ele>1231.59</ele>
        <time>2019-04-07T10:34:10Z</time>
      </trkpt>
      <trkpt lat="60.58682" lon="7.50714">
        <ele>1232.55</ele>
        <time>2019-04-07T10:34:16Z</time>
      </trkpt>
      <trkpt lat="60.58667" lon="7.50673">
        <ele>1233.99</ele>
        <time>2019-04-07T10:34:24Z</time>
      </trkpt>
      <trkpt lat="60.58653" lon="7.50639">
        <ele>1238.32</ele>
        <time>2019-04-07T10:34:28Z</time>
      </trkpt>
      <trkpt lat="60.58648" lon="7.50627">
        <ele>1240.24</ele>
        <time>2019-04-07T10:34:30Z</time>
      </trkpt>
      <trkpt lat="60.58643" lon="7.50613">
        <ele>1243.6</ele>
        <time>2019-04-07T10:34:34Z</time>
      </trkpt>
      <trkpt lat="60.58642" lon="7.50605">
        <ele>1244.56</ele>
        <time>2019-04-07T10:34:37Z</time>
      </trkpt>
      <trkpt lat="60.58639" lon="7.50593">
        <ele>1246.01</ele>
        <time>2019-04-07T10:34:41Z</time>
      </trkpt>
      <trkpt lat="60.58638" lon="7.50587">
        <ele>1246.97</ele>
        <time>2019-04-07T10:34:45Z</time>
      </trkpt>
      <trkpt lat="60.58636" lon="7.50574">
        <ele>1248.89</ele>
        <time>2019-04-07T10:34:52Z</time>
      </trkpt>
      <trkpt lat="60.58633" lon="7.50551">
        <ele>1250.81</ele>
        <time>2019-04-07T10:34:57Z</time>
      </trkpt>
      <trkpt lat="60.58631" lon="7.50545">
        <ele>1253.22</ele>
        <time>2019-04-07T10:35:00Z</time>
      </trkpt>
      <trkpt lat="60.58632" lon="7.50548">
        <ele>1253.7</ele>
        <time>2019-04-07T10:35:11Z</time>
      </trkpt>
      <trkpt lat="60.58636" lon="7.50565">
        <ele>1249.85</ele>
        <time>2019-04-07T10:35:15Z</time>
      </trkpt>
      <trkpt lat="60.58636" lon="7.50571">
        <ele>1249.85</ele>
        <time>2019-04-07T10:35:16Z</time>
      </trkpt>
      <trkpt lat="60.58637" lon="7.50588">
        <ele>1249.37</ele>
        <time>2019-04-07T10:35:18Z</time>
      </trkpt>
      <trkpt lat="60.58633" lon="7.50628">
        <ele>1247.93</ele>
        <time>2019-04-07T10:35:22Z</time>
      </trkpt>
      <trkpt lat="60.5863" lon="7.50646">
        <ele>1246.01</ele>
        <time>2019-04-07T10:35:24Z</time>
      </trkpt>
      <trkpt lat="60.58633" lon="7.50652">
        <ele>1242.64</ele>
        <time>2019-04-07T10:35:29Z</time>
      </trkpt>
      <trkpt lat="60.58634" lon="7.5065">
        <ele>1243.12</ele>
        <time>2019-04-07T10:35:31Z</time>
      </trkpt>
      <trkpt lat="60.58632" lon="7.50623">
        <ele>1245.04</ele>
        <time>2019-04-07T10:35:41Z</time>
      </trkpt>
      <trkpt lat="60.58632" lon="7.50621">
        <ele>1245.53</ele>
        <time>2019-04-07T10:35:57Z</time>
      </trkpt>
      <trkpt lat="60.58634" lon="7.50619">
        <ele>1245.53</ele>
        <time>2019-04-07T10:36:10Z</time>
      </trkpt>
      <trkpt lat="60.5864" lon="7.50607">
        <ele>1245.53</ele>
        <time>2019-04-07T10:36:15Z</time>
      </trkpt>
      <trkpt lat="60.58642" lon="7.50602">
        <ele>1245.53</ele>
        <time>2019-04-07T10:36:20Z</time>
      </trkpt>
      <trkpt lat="60.58644" lon="7.506">
        <ele>1245.53</ele>
        <time>2019-04-07T10:36:32Z</time>
      </trkpt>
      <trkpt lat="60.58643" lon="7.506">
        <ele>1245.53</ele>
        <time>2019-04-07T10:36:56Z</time>
      </trkpt>
      <trkpt lat="60.58644" lon="7.50599">
        <ele>1245.53</ele>
        <time>2019-04-07T10:37:04Z</time>
      </trkpt>
      <trkpt lat="60.58648" lon="7.50627">
        <ele>1242.64</ele>
        <time>2019-04-07T10:37:11Z</time>
      </trkpt>
      <trkpt lat="60.58647" lon="7.50638">
        <ele>1241.2</ele>
        <time>2019-04-07T10:37:13Z</time>
      </trkpt>
      <trkpt lat="60.58651" lon="7.50646">
        <ele>1239.76</ele>
        <time>2019-04-07T10:37:24Z</time>
      </trkpt>
      <trkpt lat="60.58651" lon="7.50644">
        <ele>1239.76</ele>
        <time>2019-04-07T10:37:27Z</time>
      </trkpt>
      <trkpt lat="60.5865" lon="7.50625">
        <ele>1241.2</ele>
        <time>2019-04-07T10:37:35Z</time>
      </trkpt>
      <trkpt lat="60.58649" lon="7.50616">
        <ele>1241.68</ele>
        <time>2019-04-07T10:37:39Z</time>
      </trkpt>
      <trkpt lat="60.58648" lon="7.50603">
        <ele>1243.6</ele>
        <time>2019-04-07T10:37:43Z</time>
      </trkpt>
      <trkpt lat="60.58649" lon="7.50602">
        <ele>1244.08</ele>
        <time>2019-04-07T10:38:01Z</time>
      </trkpt>
      <trkpt lat="60.58649" lon="7.50603">
        <ele>1244.56</ele>
        <time>2019-04-07T10:38:13Z</time>
      </trkpt>
      <trkpt lat="60.58653" lon="7.506">
        <ele>1244.56</ele>
        <time>2019-04-07T10:38:30Z</time>
      </trkpt>
      <trkpt lat="60.58653" lon="7.50602">
        <ele>1244.56</ele>
        <time>2019-04-07T10:38:52Z</time>
      </trkpt>
      <trkpt lat="60.58652" lon="7.50592">
        <ele>1245.53</ele>
        <time>2019-04-07T10:38:56Z</time>
      </trkpt>
      <trkpt lat="60.58652" lon="7.50585">
        <ele>1245.53</ele>
        <time>2019-04-07T10:38:59Z</time>
      </trkpt>
      <trkpt lat="60.58648" lon="7.50573">
        <ele>1247.45</ele>
        <time>2019-04-07T10:39:03Z</time>
      </trkpt>
      <trkpt lat="60.58648" lon="7.50572">
        <ele>1247.93</ele>
        <time>2019-04-07T10:39:06Z</time>
      </trkpt>
      <trkpt lat="60.58642" lon="7.50563">
        <ele>1249.37</ele>
        <time>2019-04-07T10:39:16Z</time>
      </trkpt>
      <trkpt lat="60.58642" lon="7.50562">
        <ele>1250.33</ele>
        <time>2019-04-07T10:39:28Z</time>
      </trkpt>
      <trkpt lat="60.58643" lon="7.50561">
        <ele>1250.33</ele>
        <time>2019-04-07T10:39:32Z</time>
      </trkpt>
      <trkpt lat="60.58662" lon="7.50563">
        <ele>1248.41</ele>
        <time>2019-04-07T10:39:43Z</time>
      </trkpt>
      <trkpt lat="60.58674" lon="7.50569">
        <ele>1243.6</ele>
        <time>2019-04-07T10:39:46Z</time>
      </trkpt>
      <trkpt lat="60.58675" lon="7.50569">
        <ele>1243.6</ele>
        <time>2019-04-07T10:39:47Z</time>
      </trkpt>
      <trkpt lat="60.58675" lon="7.5057">
        <ele>1243.12</ele>
        <time>2019-04-07T10:40:14Z</time>
      </trkpt>
      <trkpt lat="60.58675" lon="7.50571">
        <ele>1243.12</ele>
        <time>2019-04-07T10:40:44Z</time>
      </trkpt>
      <trkpt lat="60.58676" lon="7.50572">
        <ele>1243.12</ele>
        <time>2019-04-07T10:41:13Z</time>
      </trkpt>
      <trkpt lat="60.58676" lon="7.50574">
        <ele>1242.64</ele>
        <time>2019-04-07T10:41:39Z</time>
      </trkpt>
      <trkpt lat="60.58677" lon="7.50573">
        <ele>1242.64</ele>
        <time>2019-04-07T10:42:08Z</time>
      </trkpt>
      <trkpt lat="60.58677" lon="7.50573">
        <ele>1242.64</ele>
        <time>2019-04-07T10:42:36Z</time>
      </trkpt>
      <trkpt lat="60.58698" lon="7.50596">
        <ele>1238.32</ele>
        <time>2019-04-07T10:42:43Z</time>
      </trkpt>
      <trkpt lat="60.58711" lon="7.50591">
        <ele>1236.39</ele>
        <time>2019-04-07T10:42:45Z</time>
      </trkpt>
      <trkpt lat="60.58718" lon="7.50591">
        <ele>1236.39</ele>
        <time>2019-04-07T10:42:46Z</time>
      </trkpt>
      <trkpt lat="60.58741" lon="7.50593">
        <ele>1234.95</ele>
        <time>2019-04-07T10:42:49Z</time>
      </trkpt>
      <trkpt lat="60.58818" lon="7.50623">
        <ele>1232.55</ele>
        <time>2019-04-07T10:43:00Z</time>
      </trkpt>
      <trkpt lat="60.58865" lon="7.5065">
        <ele>1228.7</ele>
        <time>2019-04-07T10:43:06Z</time>
      </trkpt>
      <trkpt lat="60.58882" lon="7.50664">
        <ele>1227.74</ele>
        <time>2019-04-07T10:43:08Z</time>
      </trkpt>
      <trkpt lat="60.58919" lon="7.50696">
        <ele>1225.34</ele>
        <time>2019-04-07T10:43:13Z</time>
      </trkpt>
      <trkpt lat="60.58964" lon="7.50724">
        <ele>1224.38</ele>
        <time>2019-04-07T10:43:21Z</time>
      </trkpt>
      <trkpt lat="60.59017" lon="7.50758">
        <ele>1221.49</ele>
        <time>2019-04-07T10:43:29Z</time>
      </trkpt>
      <trkpt lat="60.59058" lon="7.50782">
        <ele>1218.13</ele>
        <time>2019-04-07T10:43:34Z</time>
      </trkpt>
      <trkpt lat="60.59098" lon="7.50804">
        <ele>1216.21</ele>
        <time>2019-04-07T10:43:39Z</time>
      </trkpt>
      <trkpt lat="60.59202" lon="7.50864">
        <ele>1214.76</ele>
        <time>2019-04-07T10:43:54Z</time>
      </trkpt>
      <trkpt lat="60.59298" lon="7.50903">
        <ele>1212.84</ele>
        <time>2019-04-07T10:44:08Z</time>
      </trkpt>
      <trkpt lat="60.59341" lon="7.50913">
        <ele>1211.88</ele>
        <time>2019-04-07T10:44:16Z</time>
      </trkpt>
      <trkpt lat="60.59371" lon="7.50928">
        <ele>1211.4</ele>
        <time>2019-04-07T10:44:27Z</time>
      </trkpt>
      <trkpt lat="60.59371" lon="7.50928">
        <ele>1210.44</ele>
        <time>2019-04-07T10:44:49Z</time>
      </trkpt>
      <trkpt lat="60.59371" lon="7.50927">
        <ele>1210.44</ele>
        <time>2019-04-07T10:45:10Z</time>
      </trkpt>
      <trkpt lat="60.59371" lon="7.50927">
        <ele>1210.44</ele>
        <time>2019-04-07T10:45:11Z</time>
      </trkpt>
      <trkpt lat="60.59358" lon="7.50895">
        <ele>1210.44</ele>
        <time>2019-04-07T10:45:17Z</time>
      </trkpt>
      <trkpt lat="60.59344" lon="7.50872">
        <ele>1210.44</ele>
        <time>2019-04-07T10:45:20Z</time>
      </trkpt>
      <trkpt lat="60.59337" lon="7.50859">
        <ele>1209.96</ele>
        <time>2019-04-07T10:45:22Z</time>
      </trkpt>
      <trkpt lat="60.59338" lon="7.50841">
        <ele>1209.96</ele>
        <time>2019-04-07T10:45:27Z</time>
      </trkpt>
      <trkpt lat="60.59346" lon="7.50833">
        <ele>1209.96</ele>
        <time>2019-04-07T10:45:33Z</time>
      </trkpt>
      <trkpt lat="60.59359" lon="7.50825">
        <ele>1209.96</ele>
        <time>2019-04-07T10:45:37Z</time>
      </trkpt>
      <trkpt lat="60.5938" lon="7.50804">
        <ele>1209.96</ele>
        <time>2019-04-07T10:45:42Z</time>
      </trkpt>
      <trkpt lat="60.59411" lon="7.50786">
        <ele>1209.48</ele>
        <time>2019-04-07T10:45:48Z</time>
      </trkpt>
      <trkpt lat="60.59437" lon="7.50779">
        <ele>1209</ele>
        <time>2019-04-07T10:45:52Z</time>
      </trkpt>
      <trkpt lat="60.5948" lon="7.50786">
        <ele>1210.44</ele>
        <time>2019-04-07T10:45:58Z</time>
      </trkpt>
      <trkpt lat="60.59508" lon="7.50783">
        <ele>1209.48</ele>
        <time>2019-04-07T10:46:02Z</time>
      </trkpt>
      <trkpt lat="60.596" lon="7.50785">
        <ele>1209.48</ele>
        <time>2019-04-07T10:46:14Z</time>
      </trkpt>
      <trkpt lat="60.59684" lon="7.50792">
        <ele>1212.36</ele>
        <time>2019-04-07T10:46:25Z</time>
      </trkpt>
      <trkpt lat="60.59704" lon="7.50799">
        <ele>1213.32</ele>
        <time>2019-04-07T10:46:28Z</time>
      </trkpt>
      <trkpt lat="60.59716" lon="7.50806">
        <ele>1213.32</ele>
        <time>2019-04-07T10:46:30Z</time>
      </trkpt>
      <trkpt lat="60.59708" lon="7.50791">
        <ele>1211.88</ele>
        <time>2019-04-07T10:46:37Z</time>
      </trkpt>
      <trkpt lat="60.5968" lon="7.50793">
        <ele>1211.88</ele>
        <time>2019-04-07T10:46:42Z</time>
      </trkpt>
      <trkpt lat="60.59662" lon="7.50797">
        <ele>1209.96</ele>
        <time>2019-04-07T10:46:45Z</time>
      </trkpt>
      <trkpt lat="60.59642" lon="7.50798">
        <ele>1208.51</ele>
        <time>2019-04-07T10:46:48Z</time>
      </trkpt>
      <trkpt lat="60.59549" lon="7.50798">
        <ele>1209</ele>
        <time>2019-04-07T10:47:03Z</time>
      </trkpt>
      <trkpt lat="60.59466" lon="7.50755">
        <ele>1209</ele>
        <time>2019-04-07T10:47:15Z</time>
      </trkpt>
      <trkpt lat="60.59431" lon="7.50725">
        <ele>1208.03</ele>
        <time>2019-04-07T10:47:20Z</time>
      </trkpt>
      <trkpt lat="60.59371" lon="7.50666">
        <ele>1208.03</ele>
        <time>2019-04-07T10:47:28Z</time>
      </trkpt>
      <trkpt lat="60.59351" lon="7.50654">
        <ele>1207.07</ele>
        <time>2019-04-07T10:47:31Z</time>
      </trkpt>
      <trkpt lat="60.59343" lon="7.50641">
        <ele>1208.51</ele>
        <time>2019-04-07T10:47:34Z</time>
      </trkpt>
      <trkpt lat="60.59357" lon="7.50621">
        <ele>1209</ele>
        <time>2019-04-07T10:47:42Z</time>
      </trkpt>
      <trkpt lat="60.59372" lon="7.50608">
        <ele>1209</ele>
        <time>2019-04-07T10:47:47Z</time>
      </trkpt>
      <trkpt lat="60.59386" lon="7.50606">
        <ele>1209.48</ele>
        <time>2019-04-07T10:47:50Z</time>
      </trkpt>
      <trkpt lat="60.59406" lon="7.50597">
        <ele>1209.48</ele>
        <time>2019-04-07T10:47:54Z</time>
      </trkpt>
      <trkpt lat="60.59437" lon="7.50595">
        <ele>1209.96</ele>
        <time>2019-04-07T10:47:59Z</time>
      </trkpt>
      <trkpt lat="60.59465" lon="7.50563">
        <ele>1209.96</ele>
        <time>2019-04-07T10:48:04Z</time>
      </trkpt>
      <trkpt lat="60.59492" lon="7.50544">
        <ele>1209.96</ele>
        <time>2019-04-07T10:48:08Z</time>
      </trkpt>
      <trkpt lat="60.59584" lon="7.50531">
        <ele>1210.44</ele>
        <time>2019-04-07T10:48:19Z</time>
      </trkpt>
      <trkpt lat="60.59678" lon="7.50524">
        <ele>1210.44</ele>
        <time>2019-04-07T10:48:29Z</time>
      </trkpt>
      <trkpt lat="60.59714" lon="7.5052">
        <ele>1209.48</ele>
        <time>2019-04-07T10:48:36Z</time>
      </trkpt>
      <trkpt lat="60.59713" lon="7.50502">
        <ele>1209.48</ele>
        <time>2019-04-07T10:48:38Z</time>
      </trkpt>
      <trkpt lat="60.59688" lon="7.5045">
        <ele>1208.51</ele>
        <time>2019-04-07T10:48:44Z</time>
      </trkpt>
      <trkpt lat="60.59668" lon="7.50438">
        <ele>1206.59</ele>
        <time>2019-04-07T10:48:47Z</time>
      </trkpt>
      <trkpt lat="60.59621" lon="7.50411">
        <ele>1209</ele>
        <time>2019-04-07T10:48:54Z</time>
      </trkpt>
      <trkpt lat="60.59557" lon="7.50399">
        <ele>1209.48</ele>
        <time>2019-04-07T10:49:03Z</time>
      </trkpt>
      <trkpt lat="60.5948" lon="7.50374">
        <ele>1209</ele>
        <time>2019-04-07T10:49:13Z</time>
      </trkpt>
      <trkpt lat="60.59466" lon="7.50367">
        <ele>1207.55</ele>
        <time>2019-04-07T10:49:15Z</time>
      </trkpt>
      <trkpt lat="60.59405" lon="7.50339">
        <ele>1209</ele>
        <time>2019-04-07T10:49:24Z</time>
      </trkpt>
      <trkpt lat="60.59321" lon="7.50287">
        <ele>1209.96</ele>
        <time>2019-04-07T10:49:36Z</time>
      </trkpt>
      <trkpt lat="60.5928" lon="7.50252">
        <ele>1211.4</ele>
        <time>2019-04-07T10:49:42Z</time>
      </trkpt>
      <trkpt lat="60.59242" lon="7.50219">
        <ele>1212.36</ele>
        <time>2019-04-07T10:49:48Z</time>
      </trkpt>
      <trkpt lat="60.59231" lon="7.50208">
        <ele>1213.32</ele>
        <time>2019-04-07T10:49:50Z</time>
      </trkpt>
      <trkpt lat="60.5921" lon="7.50186">
        <ele>1216.21</ele>
        <time>2019-04-07T10:49:54Z</time>
      </trkpt>
      <trkpt lat="60.59191" lon="7.50174">
        <ele>1216.21</ele>
        <time>2019-04-07T10:49:57Z</time>
      </trkpt>
      <trkpt lat="60.59137" lon="7.50131">
        <ele>1218.13</ele>
        <time>2019-04-07T10:50:05Z</time>
      </trkpt>
      <trkpt lat="60.59086" lon="7.50084">
        <ele>1219.09</ele>
        <time>2019-04-07T10:50:12Z</time>
      </trkpt>
      <trkpt lat="60.59059" lon="7.50061">
        <ele>1222.45</ele>
        <time>2019-04-07T10:50:16Z</time>
      </trkpt>
      <trkpt lat="60.59054" lon="7.50055">
        <ele>1223.9</ele>
        <time>2019-04-07T10:50:17Z</time>
      </trkpt>
      <trkpt lat="60.59034" lon="7.50033">
        <ele>1228.22</ele>
        <time>2019-04-07T10:50:21Z</time>
      </trkpt>
      <trkpt lat="60.5903" lon="7.50028">
        <ele>1228.7</ele>
        <time>2019-04-07T10:50:22Z</time>
      </trkpt>
      <trkpt lat="60.59021" lon="7.50021">
        <ele>1231.11</ele>
        <time>2019-04-07T10:50:24Z</time>
      </trkpt>
      <trkpt lat="60.59005" lon="7.50001">
        <ele>1232.07</ele>
        <time>2019-04-07T10:50:28Z</time>
      </trkpt>
      <trkpt lat="60.58986" lon="7.49975">
        <ele>1235.43</ele>
        <time>2019-04-07T10:50:33Z</time>
      </trkpt>
      <trkpt lat="60.58977" lon="7.49962">
        <ele>1236.39</ele>
        <time>2019-04-07T10:50:35Z</time>
      </trkpt>
      <trkpt lat="60.58965" lon="7.49942">
        <ele>1237.83</ele>
        <time>2019-04-07T10:50:38Z</time>
      </trkpt>
      <trkpt lat="60.58959" lon="7.4993">
        <ele>1238.8</ele>
        <time>2019-04-07T10:50:40Z</time>
      </trkpt>
      <trkpt lat="60.58918" lon="7.4986">
        <ele>1241.68</ele>
        <time>2019-04-07T10:50:53Z</time>
      </trkpt>
      <trkpt lat="60.58905" lon="7.49833">
        <ele>1241.68</ele>
        <time>2019-04-07T10:51:00Z</time>
      </trkpt>
      <trkpt lat="60.58921" lon="7.49817">
        <ele>1239.28</ele>
        <time>2019-04-07T10:51:05Z</time>
      </trkpt>
      <trkpt lat="60.58934" lon="7.49817">
        <ele>1237.35</ele>
        <time>2019-04-07T10:51:07Z</time>
      </trkpt>
      <trkpt lat="60.58976" lon="7.49827">
        <ele>1236.39</ele>
        <time>2019-04-07T10:51:16Z</time>
      </trkpt>
      <trkpt lat="60.59002" lon="7.49836">
        <ele>1235.91</ele>
        <time>2019-04-07T10:51:23Z</time>
      </trkpt>
      <trkpt lat="60.59025" lon="7.4982">
        <ele>1233.99</ele>
        <time>2019-04-07T10:51:28Z</time>
      </trkpt>
      <trkpt lat="60.59041" lon="7.49816">
        <ele>1232.07</ele>
        <time>2019-04-07T10:51:30Z</time>
      </trkpt>
      <trkpt lat="60.59078" lon="7.49818">
        <ele>1228.22</ele>
        <time>2019-04-07T10:51:34Z</time>
      </trkpt>
      <trkpt lat="60.59103" lon="7.4982">
        <ele>1227.26</ele>
        <time>2019-04-07T10:51:37Z</time>
      </trkpt>
      <trkpt lat="60.59135" lon="7.49835">
        <ele>1222.45</ele>
        <time>2019-04-07T10:51:41Z</time>
      </trkpt>
      <trkpt lat="60.59151" lon="7.49854">
        <ele>1219.09</ele>
        <time>2019-04-07T10:51:43Z</time>
      </trkpt>
      <trkpt lat="60.59189" lon="7.49907">
        <ele>1216.21</ele>
        <time>2019-04-07T10:51:49Z</time>
      </trkpt>
      <trkpt lat="60.592" lon="7.49923">
        <ele>1215.24</ele>
        <time>2019-04-07T10:51:51Z</time>
      </trkpt>
      <trkpt lat="60.59258" lon="7.50041">
        <ele>1212.84</ele>
        <time>2019-04-07T10:52:01Z</time>
      </trkpt>
      <trkpt lat="60.5927" lon="7.50067">
        <ele>1212.36</ele>
        <time>2019-04-07T10:52:03Z</time>
      </trkpt>
      <trkpt lat="60.59276" lon="7.50078">
        <ele>1212.36</ele>
        <time>2019-04-07T10:52:04Z</time>
      </trkpt>
      <trkpt lat="60.5934" lon="7.50203">
        <ele>1211.88</ele>
        <time>2019-04-07T10:52:15Z</time>
      </trkpt>
      <trkpt lat="60.5941" lon="7.50346">
        <ele>1211.88</ele>
        <time>2019-04-07T10:52:28Z</time>
      </trkpt>
      <trkpt lat="60.59489" lon="7.50496">
        <ele>1211.88</ele>
        <time>2019-04-07T10:52:42Z</time>
      </trkpt>
      <trkpt lat="60.59569" lon="7.50649">
        <ele>1211.4</ele>
        <time>2019-04-07T10:52:57Z</time>
      </trkpt>
      <trkpt lat="60.59579" lon="7.50669">
        <ele>1211.4</ele>
        <time>2019-04-07T10:52:59Z</time>
      </trkpt>
      <trkpt lat="60.59609" lon="7.50732">
        <ele>1211.4</ele>
        <time>2019-04-07T10:53:05Z</time>
      </trkpt>
      <trkpt lat="60.59622" lon="7.50766">
        <ele>1211.4</ele>
        <time>2019-04-07T10:53:08Z</time>
      </trkpt>
      <trkpt lat="60.59636" lon="7.50813">
        <ele>1211.4</ele>
        <time>2019-04-07T10:53:12Z</time>
      </trkpt>
      <trkpt lat="60.59643" lon="7.50849">
        <ele>1211.4</ele>
        <time>2019-04-07T10:53:15Z</time>
      </trkpt>
      <trkpt lat="60.59661" lon="7.50906">
        <ele>1210.92</ele>
        <time>2019-04-07T10:53:21Z</time>
      </trkpt>
      <trkpt lat="60.59672" lon="7.50927">
        <ele>1210.92</ele>
        <time>2019-04-07T10:53:24Z</time>
      </trkpt>
      <trkpt lat="60.59689" lon="7.50956">
        <ele>1210.44</ele>
        <time>2019-04-07T10:53:28Z</time>
      </trkpt>
      <trkpt lat="60.59714" lon="7.50997">
        <ele>1210.44</ele>
        <time>2019-04-07T10:53:33Z</time>
      </trkpt>
      <trkpt lat="60.59723" lon="7.51016">
        <ele>1211.88</ele>
        <time>2019-04-07T10:53:38Z</time>
      </trkpt>
      <trkpt lat="60.59718" lon="7.50997">
        <ele>1210.92</ele>
        <time>2019-04-07T10:53:43Z</time>
      </trkpt>
      <trkpt lat="60.59709" lon="7.50985">
        <ele>1209</ele>
        <time>2019-04-07T10:53:45Z</time>
      </trkpt>
      <trkpt lat="60.59644" lon="7.50927">
        <ele>1210.44</ele>
        <time>2019-04-07T10:53:57Z</time>
      </trkpt>
      <trkpt lat="60.59612" lon="7.50909">
        <ele>1210.92</ele>
        <time>2019-04-07T10:54:02Z</time>
      </trkpt>
      <trkpt lat="60.59561" lon="7.50891">
        <ele>1210.44</ele>
        <time>2019-04-07T10:54:11Z</time>
      </trkpt>
      <trkpt lat="60.59542" lon="7.50891">
        <ele>1209.96</ele>
        <time>2019-04-07T10:54:15Z</time>
      </trkpt>
      <trkpt lat="60.59511" lon="7.50886">
        <ele>1209.96</ele>
        <time>2019-04-07T10:54:21Z</time>
      </trkpt>
      <trkpt lat="60.5949" lon="7.5088">
        <ele>1209.96</ele>
        <time>2019-04-07T10:54:25Z</time>
      </trkpt>
      <trkpt lat="60.59436" lon="7.50862">
        <ele>1212.84</ele>
        <time>2019-04-07T10:54:36Z</time>
      </trkpt>
      <trkpt lat="60.59427" lon="7.50858">
        <ele>1213.32</ele>
        <time>2019-04-07T10:54:38Z</time>
      </trkpt>
      <trkpt lat="60.59402" lon="7.50853">
        <ele>1211.88</ele>
        <time>2019-04-07T10:54:43Z</time>
      </trkpt>
      <trkpt lat="60.59392" lon="7.50851">
        <ele>1211.4</ele>
        <time>2019-04-07T10:54:46Z</time>
      </trkpt>
      <trkpt lat="60.59388" lon="7.50841">
        <ele>1212.36</ele>
        <time>2019-04-07T10:55:00Z</time>
      </trkpt>
      <trkpt lat="60.59388" lon="7.50839">
        <ele>1212.36</ele>
        <time>2019-04-07T10:55:08Z</time>
      </trkpt>
      <trkpt lat="60.594" lon="7.50819">
        <ele>1212.36</ele>
        <time>2019-04-07T10:55:17Z</time>
      </trkpt>
      <trkpt lat="60.5941" lon="7.50817">
        <ele>1211.4</ele>
        <time>2019-04-07T10:55:29Z</time>
      </trkpt>
      <trkpt lat="60.5941" lon="7.50817">
        <ele>1211.4</ele>
        <time>2019-04-07T10:55:55Z</time>
      </trkpt>
      <trkpt lat="60.5941" lon="7.50816">
        <ele>1211.4</ele>
        <time>2019-04-07T10:56:25Z</time>
      </trkpt>
      <trkpt lat="60.59411" lon="7.50816">
        <ele>1211.4</ele>
        <time>2019-04-07T10:57:00Z</time>
      </trkpt>
      <trkpt lat="60.59411" lon="7.50815">
        <ele>1211.4</ele>
        <time>2019-04-07T10:57:25Z</time>
      </trkpt>
      <trkpt lat="60.59411" lon="7.50815">
        <ele>1211.4</ele>
        <time>2019-04-07T10:57:59Z</time>
      </trkpt>
      <trkpt lat="60.59412" lon="7.50817">
        <ele>1211.4</ele>
        <time>2019-04-07T10:58:26Z</time>
      </trkpt>
      <trkpt lat="60.59412" lon="7.50817">
        <ele>1211.4</ele>
        <time>2019-04-07T10:58:59Z</time>
      </trkpt>
      <trkpt lat="60.59412" lon="7.50816">
        <ele>1211.4</ele>
        <time>2019-04-07T10:59:40Z</time>
      </trkpt>
      <trkpt lat="60.59412" lon="7.50817">
        <ele>1211.4</ele>
        <time>2019-04-07T11:00:09Z</time>
      </trkpt>
      <trkpt lat="60.59411" lon="7.50816">
        <ele>1211.4</ele>
        <time>2019-04-07T11:00:23Z</time>
      </trkpt>
      <trkpt lat="60.59412" lon="7.50816">
        <ele>1211.4</ele>
        <time>2019-04-07T11:00:31Z</time>
      </trkpt>
      <trkpt lat="60.5944" lon="7.50804">
        <ele>1211.4</ele>
        <time>2019-04-07T11:00:39Z</time>
      </trkpt>
      <trkpt lat="60.59452" lon="7.508">
        <ele>1211.4</ele>
        <time>2019-04-07T11:00:41Z</time>
      </trkpt>
      <trkpt lat="60.59549" lon="7.50809">
        <ele>1211.4</ele>
        <time>2019-04-07T11:00:54Z</time>
      </trkpt>
      <trkpt lat="60.59555" lon="7.50809">
        <ele>1211.4</ele>
        <time>2019-04-07T11:00:55Z</time>
      </trkpt>
      <trkpt lat="60.59574" lon="7.50804">
        <ele>1210.44</ele>
        <time>2019-04-07T11:00:59Z</time>
      </trkpt>
      <trkpt lat="60.5958" lon="7.50787">
        <ele>1210.44</ele>
        <time>2019-04-07T11:01:03Z</time>
      </trkpt>
      <trkpt lat="60.59577" lon="7.50777">
        <ele>1210.44</ele>
        <time>2019-04-07T11:01:06Z</time>
      </trkpt>
      <trkpt lat="60.59543" lon="7.50732">
        <ele>1209.96</ele>
        <time>2019-04-07T11:01:13Z</time>
      </trkpt>
      <trkpt lat="60.59497" lon="7.50647">
        <ele>1209.48</ele>
        <time>2019-04-07T11:01:21Z</time>
      </trkpt>
      <trkpt lat="60.59414" lon="7.50424">
        <ele>1208.51</ele>
        <time>2019-04-07T11:01:35Z</time>
      </trkpt>
      <trkpt lat="60.59369" lon="7.50288">
        <ele>1209.96</ele>
        <time>2019-04-07T11:01:44Z</time>
      </trkpt>
      <trkpt lat="60.59352" lon="7.50246">
        <ele>1209.96</ele>
        <time>2019-04-07T11:01:47Z</time>
      </trkpt>
      <trkpt lat="60.5932" lon="7.50193">
        <ele>1209.96</ele>
        <time>2019-04-07T11:01:52Z</time>
      </trkpt>
      <trkpt lat="60.59294" lon="7.50179">
        <ele>1209.96</ele>
        <time>2019-04-07T11:01:56Z</time>
      </trkpt>
      <trkpt lat="60.59284" lon="7.50178">
        <ele>1209.96</ele>
        <time>2019-04-07T11:01:58Z</time>
      </trkpt>
      <trkpt lat="60.5929" lon="7.50171">
        <ele>1211.4</ele>
        <time>2019-04-07T11:02:03Z</time>
      </trkpt>
      <trkpt lat="60.59299" lon="7.50185">
        <ele>1212.84</ele>
        <time>2019-04-07T11:02:05Z</time>
      </trkpt>
      <trkpt lat="60.59368" lon="7.5033">
        <ele>1212.84</ele>
        <time>2019-04-07T11:02:19Z</time>
      </trkpt>
      <trkpt lat="60.59419" lon="7.50474">
        <ele>1212.84</ele>
        <time>2019-04-07T11:02:32Z</time>
      </trkpt>
      <trkpt lat="60.59431" lon="7.50553">
        <ele>1211.88</ele>
        <time>2019-04-07T11:02:39Z</time>
      </trkpt>
      <trkpt lat="60.59442" lon="7.50623">
        <ele>1211.88</ele>
        <time>2019-04-07T11:02:46Z</time>
      </trkpt>
      <trkpt lat="60.59454" lon="7.50677">
        <ele>1211.88</ele>
        <time>2019-04-07T11:02:51Z</time>
      </trkpt>
      <trkpt lat="60.59461" lon="7.50711">
        <ele>1211.88</ele>
        <time>2019-04-07T11:02:54Z</time>
      </trkpt>
      <trkpt lat="60.59467" lon="7.50736">
        <ele>1210.92</ele>
        <time>2019-04-07T11:03:01Z</time>
      </trkpt>
      <trkpt lat="60.59465" lon="7.50736">
        <ele>1210.92</ele>
        <time>2019-04-07T11:03:12Z</time>
      </trkpt>
      <trkpt lat="60.59466" lon="7.50738">
        <ele>1209.96</ele>
        <time>2019-04-07T11:03:28Z</time>
      </trkpt>
      <trkpt lat="60.59465" lon="7.50739">
        <ele>1209.96</ele>
        <time>2019-04-07T11:04:05Z</time>
      </trkpt>
      <trkpt lat="60.59468" lon="7.50736">
        <ele>1209.96</ele>
        <time>2019-04-07T11:04:34Z</time>
      </trkpt>
      <trkpt lat="60.59471" lon="7.50732">
        <ele>1209.96</ele>
        <time>2019-04-07T11:04:38Z</time>
      </trkpt>
      <trkpt lat="60.5947" lon="7.50728">
        <ele>1209.96</ele>
        <time>2019-04-07T11:04:42Z</time>
      </trkpt>
      <trkpt lat="60.5947" lon="7.50727">
        <ele>1211.4</ele>
        <time>2019-04-07T11:04:45Z</time>
      </trkpt>
      <trkpt lat="60.5947" lon="7.50727">
        <ele>1211.4</ele>
        <time>2019-04-07T11:04:56Z</time>
      </trkpt>
      <trkpt lat="60.59459" lon="7.5071">
        <ele>1211.4</ele>
        <time>2019-04-07T11:05:03Z</time>
      </trkpt>
      <trkpt lat="60.59426" lon="7.50691">
        <ele>1210.44</ele>
        <time>2019-04-07T11:05:15Z</time>
      </trkpt>
      <trkpt lat="60.59429" lon="7.50691">
        <ele>1211.4</ele>
        <time>2019-04-07T11:05:22Z</time>
      </trkpt>
      <trkpt lat="60.59445" lon="7.50714">
        <ele>1211.88</ele>
        <time>2019-04-07T11:05:29Z</time>
      </trkpt>
      <trkpt lat="60.59464" lon="7.5073">
        <ele>1211.88</ele>
        <time>2019-04-07T11:05:37Z</time>
      </trkpt>
      <trkpt lat="60.59479" lon="7.50744">
        <ele>1210.92</ele>
        <time>2019-04-07T11:05:47Z</time>
      </trkpt>
      <trkpt lat="60.5948" lon="7.50744">
        <ele>1210.92</ele>
        <time>2019-04-07T11:05:59Z</time>
      </trkpt>
      <trkpt lat="60.59485" lon="7.50741">
        <ele>1210.92</ele>
        <time>2019-04-07T11:06:11Z</time>
      </trkpt>
      <trkpt lat="60.59486" lon="7.50738">
        <ele>1210.92</ele>
        <time>2019-04-07T11:06:15Z</time>
      </trkpt>
      <trkpt lat="60.59504" lon="7.50728">
        <ele>1210.92</ele>
        <time>2019-04-07T11:06:22Z</time>
      </trkpt>
      <trkpt lat="60.59514" lon="7.50733">
        <ele>1210.92</ele>
        <time>2019-04-07T11:06:24Z</time>
      </trkpt>
      <trkpt lat="60.59531" lon="7.50753">
        <ele>1212.84</ele>
        <time>2019-04-07T11:06:28Z</time>
      </trkpt>
      <trkpt lat="60.59536" lon="7.50758">
        <ele>1212.84</ele>
        <time>2019-04-07T11:06:29Z</time>
      </trkpt>
      <trkpt lat="60.5956" lon="7.50778">
        <ele>1212.84</ele>
        <time>2019-04-07T11:06:34Z</time>
      </trkpt>
      <trkpt lat="60.5957" lon="7.50794">
        <ele>1212.84</ele>
        <time>2019-04-07T11:06:36Z</time>
      </trkpt>
      <trkpt lat="60.59606" lon="7.5086">
        <ele>1211.88</ele>
        <time>2019-04-07T11:06:44Z</time>
      </trkpt>
      <trkpt lat="60.5961" lon="7.50857">
        <ele>1210.92</ele>
        <time>2019-04-07T11:06:52Z</time>
      </trkpt>
      <trkpt lat="60.59609" lon="7.50846">
        <ele>1210.92</ele>
        <time>2019-04-07T11:07:00Z</time>
      </trkpt>
      <trkpt lat="60.59609" lon="7.50825">
        <ele>1211.4</ele>
        <time>2019-04-07T11:07:16Z</time>
      </trkpt>
      <trkpt lat="60.59609" lon="7.50825">
        <ele>1211.4</ele>
        <time>2019-04-07T11:07:17Z</time>
      </trkpt>
      <trkpt lat="60.59613" lon="7.50824">
        <ele>1211.4</ele>
        <time>2019-04-07T11:07:26Z</time>
      </trkpt>
      <trkpt lat="60.59613" lon="7.50822">
        <ele>1211.4</ele>
        <time>2019-04-07T11:07:34Z</time>
      </trkpt>
      <trkpt lat="60.59608" lon="7.50799">
        <ele>1210.44</ele>
        <time>2019-04-07T11:07:42Z</time>
      </trkpt>
      <trkpt lat="60.59608" lon="7.508">
        <ele>1210.44</ele>
        <time>2019-04-07T11:07:45Z</time>
      </trkpt>
      <trkpt lat="60.59608" lon="7.50782">
        <ele>1210.44</ele>
        <time>2019-04-07T11:07:49Z</time>
      </trkpt>
      <trkpt lat="60.59605" lon="7.50771">
        <ele>1210.44</ele>
        <time>2019-04-07T11:07:51Z</time>
      </trkpt>
      <trkpt lat="60.59595" lon="7.50754">
        <ele>1210.44</ele>
        <time>2019-04-07T11:07:54Z</time>
      </trkpt>
      <trkpt lat="60.59586" lon="7.50741">
        <ele>1210.44</ele>
        <time>2019-04-07T11:07:56Z</time>
      </trkpt>
      <trkpt lat="60.59529" lon="7.50632">
        <ele>1210.44</ele>
        <time>2019-04-07T11:08:06Z</time>
      </trkpt>
      <trkpt lat="60.5947" lon="7.50493">
        <ele>1209.96</ele>
        <time>2019-04-07T11:08:15Z</time>
      </trkpt>
      <trkpt lat="60.59383" lon="7.50311">
        <ele>1209.96</ele>
        <time>2019-04-07T11:08:29Z</time>
      </trkpt>
      <trkpt lat="60.59303" lon="7.50101">
        <ele>1209.96</ele>
        <time>2019-04-07T11:08:44Z</time>
      </trkpt>
      <trkpt lat="60.59288" lon="7.50061">
        <ele>1209.96</ele>
        <time>2019-04-07T11:08:47Z</time>
      </trkpt>
      <trkpt lat="60.59272" lon="7.50005">
        <ele>1210.92</ele>
        <time>2019-04-07T11:08:51Z</time>
      </trkpt>
      <trkpt lat="60.59246" lon="7.49927">
        <ele>1211.4</ele>
        <time>2019-04-07T11:08:57Z</time>
      </trkpt>
      <trkpt lat="60.59248" lon="7.49904">
        <ele>1212.84</ele>
        <time>2019-04-07T11:09:00Z</time>
      </trkpt>
      <trkpt lat="60.59252" lon="7.49897">
        <ele>1212.84</ele>
        <time>2019-04-07T11:09:01Z</time>
      </trkpt>
      <trkpt lat="60.59278" lon="7.4987">
        <ele>1212.84</ele>
        <time>2019-04-07T11:09:05Z</time>
      </trkpt>
      <trkpt lat="60.5939" lon="7.49811">
        <ele>1213.32</ele>
        <time>2019-04-07T11:09:18Z</time>
      </trkpt>
      <trkpt lat="60.59487" lon="7.49782">
        <ele>1213.8</ele>
        <time>2019-04-07T11:09:28Z</time>
      </trkpt>
      <trkpt lat="60.59606" lon="7.4979">
        <ele>1213.8</ele>
        <time>2019-04-07T11:09:41Z</time>
      </trkpt>
      <trkpt lat="60.5974" lon="7.49791">
        <ele>1213.8</ele>
        <time>2019-04-07T11:09:55Z</time>
      </trkpt>
      <trkpt lat="60.59856" lon="7.49793">
        <ele>1213.8</ele>
        <time>2019-04-07T11:10:07Z</time>
      </trkpt>
      <trkpt lat="60.59929" lon="7.49799">
        <ele>1213.8</ele>
        <time>2019-04-07T11:10:15Z</time>
      </trkpt>
      <trkpt lat="60.59983" lon="7.49794">
        <ele>1213.8</ele>
        <time>2019-04-07T11:10:21Z</time>
      </trkpt>
      <trkpt lat="60.60039" lon="7.49804">
        <ele>1213.8</ele>
        <time>2019-04-07T11:10:28Z</time>
      </trkpt>
      <trkpt lat="60.60068" lon="7.49824">
        <ele>1212.36</ele>
        <time>2019-04-07T11:10:32Z</time>
      </trkpt>
      <trkpt lat="60.6008" lon="7.49839">
        <ele>1212.36</ele>
        <time>2019-04-07T11:10:34Z</time>
      </trkpt>
      <trkpt lat="60.60103" lon="7.49889">
        <ele>1212.36</ele>
        <time>2019-04-07T11:10:40Z</time>
      </trkpt>
      <trkpt lat="60.60123" lon="7.4993">
        <ele>1211.4</ele>
        <time>2019-04-07T11:10:48Z</time>
      </trkpt>
      <trkpt lat="60.60123" lon="7.49928">
        <ele>1211.4</ele>
        <time>2019-04-07T11:10:50Z</time>
      </trkpt>
      <trkpt lat="60.60108" lon="7.49915">
        <ele>1211.4</ele>
        <time>2019-04-07T11:10:55Z</time>
      </trkpt>
      <trkpt lat="60.60083" lon="7.4991">
        <ele>1209.96</ele>
        <time>2019-04-07T11:11:00Z</time>
      </trkpt>
      <trkpt lat="60.60067" lon="7.49904">
        <ele>1209.96</ele>
        <time>2019-04-07T11:11:03Z</time>
      </trkpt>
      <trkpt lat="60.60042" lon="7.49875">
        <ele>1209.96</ele>
        <time>2019-04-07T11:11:08Z</time>
      </trkpt>
      <trkpt lat="60.59967" lon="7.4973">
        <ele>1209.48</ele>
        <time>2019-04-07T11:11:23Z</time>
      </trkpt>
      <trkpt lat="60.59895" lon="7.49599">
        <ele>1209.48</ele>
        <time>2019-04-07T11:11:36Z</time>
      </trkpt>
      <trkpt lat="60.59883" lon="7.49581">
        <ele>1209.48</ele>
        <time>2019-04-07T11:11:38Z</time>
      </trkpt>
      <trkpt lat="60.59798" lon="7.4953">
        <ele>1210.92</ele>
        <time>2019-04-07T11:11:50Z</time>
      </trkpt>
      <trkpt lat="60.59683" lon="7.49483">
        <ele>1209.48</ele>
        <time>2019-04-07T11:12:06Z</time>
      </trkpt>
      <trkpt lat="60.59661" lon="7.49473">
        <ele>1210.92</ele>
        <time>2019-04-07T11:12:09Z</time>
      </trkpt>
      <trkpt lat="60.59591" lon="7.49435">
        <ele>1210.92</ele>
        <time>2019-04-07T11:12:18Z</time>
      </trkpt>
      <trkpt lat="60.59569" lon="7.49411">
        <ele>1211.4</ele>
        <time>2019-04-07T11:12:21Z</time>
      </trkpt>
      <trkpt lat="60.59519" lon="7.49276">
        <ele>1211.4</ele>
        <time>2019-04-07T11:12:31Z</time>
      </trkpt>
      <trkpt lat="60.59511" lon="7.4925">
        <ele>1209.96</ele>
        <time>2019-04-07T11:12:33Z</time>
      </trkpt>
      <trkpt lat="60.59462" lon="7.49115">
        <ele>1210.92</ele>
        <time>2019-04-07T11:12:44Z</time>
      </trkpt>
      <trkpt lat="60.59403" lon="7.48914">
        <ele>1211.88</ele>
        <time>2019-04-07T11:12:59Z</time>
      </trkpt>
      <trkpt lat="60.59345" lon="7.48752">
        <ele>1210.44</ele>
        <time>2019-04-07T11:13:11Z</time>
      </trkpt>
      <trkpt lat="60.59285" lon="7.48632">
        <ele>1210.44</ele>
        <time>2019-04-07T11:13:21Z</time>
      </trkpt>
      <trkpt lat="60.59205" lon="7.48496">
        <ele>1210.44</ele>
        <time>2019-04-07T11:13:33Z</time>
      </trkpt>
      <trkpt lat="60.59123" lon="7.48358">
        <ele>1211.88</ele>
        <time>2019-04-07T11:13:45Z</time>
      </trkpt>
      <trkpt lat="60.59023" lon="7.48227">
        <ele>1211.88</ele>
        <time>2019-04-07T11:13:59Z</time>
      </trkpt>
      <trkpt lat="60.5896" lon="7.48146">
        <ele>1210.92</ele>
        <time>2019-04-07T11:14:10Z</time>
      </trkpt>
      <trkpt lat="60.58958" lon="7.48132">
        <ele>1212.36</ele>
        <time>2019-04-07T11:14:13Z</time>
      </trkpt>
      <trkpt lat="60.58975" lon="7.48139">
        <ele>1213.32</ele>
        <time>2019-04-07T11:14:23Z</time>
      </trkpt>
      <trkpt lat="60.58978" lon="7.48145">
        <ele>1213.32</ele>
        <time>2019-04-07T11:14:34Z</time>
      </trkpt>
      <trkpt lat="60.5901" lon="7.48167">
        <ele>1214.28</ele>
        <time>2019-04-07T11:14:45Z</time>
      </trkpt>
      <trkpt lat="60.59081" lon="7.4825">
        <ele>1215.24</ele>
        <time>2019-04-07T11:14:57Z</time>
      </trkpt>
      <trkpt lat="60.59111" lon="7.48286">
        <ele>1214.76</ele>
        <time>2019-04-07T11:15:02Z</time>
      </trkpt>
      <trkpt lat="60.59137" lon="7.48312">
        <ele>1214.76</ele>
        <time>2019-04-07T11:15:06Z</time>
      </trkpt>
      <trkpt lat="60.59217" lon="7.48416">
        <ele>1214.76</ele>
        <time>2019-04-07T11:15:18Z</time>
      </trkpt>
      <trkpt lat="60.59269" lon="7.48487">
        <ele>1214.76</ele>
        <time>2019-04-07T11:15:26Z</time>
      </trkpt>
      <trkpt lat="60.59296" lon="7.48525">
        <ele>1214.76</ele>
        <time>2019-04-07T11:15:31Z</time>
      </trkpt>
      <trkpt lat="60.59323" lon="7.48549">
        <ele>1214.76</ele>
        <time>2019-04-07T11:15:35Z</time>
      </trkpt>
      <trkpt lat="60.59355" lon="7.48588">
        <ele>1214.76</ele>
        <time>2019-04-07T11:15:40Z</time>
      </trkpt>
      <trkpt lat="60.59387" lon="7.48619">
        <ele>1214.76</ele>
        <time>2019-04-07T11:15:45Z</time>
      </trkpt>
      <trkpt lat="60.59409" lon="7.4863">
        <ele>1214.76</ele>
        <time>2019-04-07T11:15:48Z</time>
      </trkpt>
      <trkpt lat="60.59434" lon="7.48652">
        <ele>1212.36</ele>
        <time>2019-04-07T11:15:53Z</time>
      </trkpt>
      <trkpt lat="60.59439" lon="7.48623">
        <ele>1211.88</ele>
        <time>2019-04-07T11:16:00Z</time>
      </trkpt>
      <trkpt lat="60.59437" lon="7.48616">
        <ele>1211.88</ele>
        <time>2019-04-07T11:16:01Z</time>
      </trkpt>
      <trkpt lat="60.59423" lon="7.48561">
        <ele>1211.88</ele>
        <time>2019-04-07T11:16:07Z</time>
      </trkpt>
      <trkpt lat="60.59412" lon="7.48528">
        <ele>1211.88</ele>
        <time>2019-04-07T11:16:10Z</time>
      </trkpt>
      <trkpt lat="60.59391" lon="7.48444">
        <ele>1211.88</ele>
        <time>2019-04-07T11:16:17Z</time>
      </trkpt>
      <trkpt lat="60.59372" lon="7.48387">
        <ele>1211.88</ele>
        <time>2019-04-07T11:16:22Z</time>
      </trkpt>
      <trkpt lat="60.5933" lon="7.48226">
        <ele>1211.4</ele>
        <time>2019-04-07T11:16:34Z</time>
      </trkpt>
      <trkpt lat="60.59284" lon="7.48027">
        <ele>1211.4</ele>
        <time>2019-04-07T11:16:47Z</time>
      </trkpt>
      <trkpt lat="60.59236" lon="7.47798">
        <ele>1210.44</ele>
        <time>2019-04-07T11:17:00Z</time>
      </trkpt>
      <trkpt lat="60.59225" lon="7.47747">
        <ele>1211.88</ele>
        <time>2019-04-07T11:17:03Z</time>
      </trkpt>
      <trkpt lat="60.59187" lon="7.47561">
        <ele>1212.84</ele>
        <time>2019-04-07T11:17:15Z</time>
      </trkpt>
      <trkpt lat="60.59148" lon="7.47432">
        <ele>1212.84</ele>
        <time>2019-04-07T11:17:25Z</time>
      </trkpt>
      <trkpt lat="60.59101" lon="7.47282">
        <ele>1211.4</ele>
        <time>2019-04-07T11:17:36Z</time>
      </trkpt>
      <trkpt lat="60.59089" lon="7.47234">
        <ele>1212.84</ele>
        <time>2019-04-07T11:17:39Z</time>
      </trkpt>
      <trkpt lat="60.59037" lon="7.47014">
        <ele>1212.84</ele>
        <time>2019-04-07T11:17:52Z</time>
      </trkpt>
      <trkpt lat="60.58989" lon="7.46788">
        <ele>1211.4</ele>
        <time>2019-04-07T11:18:05Z</time>
      </trkpt>
      <trkpt lat="60.58955" lon="7.46592">
        <ele>1211.4</ele>
        <time>2019-04-07T11:18:16Z</time>
      </trkpt>
      <trkpt lat="60.58939" lon="7.46534">
        <ele>1212.84</ele>
        <time>2019-04-07T11:18:20Z</time>
      </trkpt>
      <trkpt lat="60.58933" lon="7.46509">
        <ele>1212.84</ele>
        <time>2019-04-07T11:18:22Z</time>
      </trkpt>
      <trkpt lat="60.58928" lon="7.46488">
        <ele>1211.4</ele>
        <time>2019-04-07T11:18:24Z</time>
      </trkpt>
      <trkpt lat="60.58951" lon="7.46435">
        <ele>1213.32</ele>
        <time>2019-04-07T11:18:30Z</time>
      </trkpt>
      <trkpt lat="60.59" lon="7.46382">
        <ele>1213.32</ele>
        <time>2019-04-07T11:18:37Z</time>
      </trkpt>
      <trkpt lat="60.59087" lon="7.46254">
        <ele>1213.8</ele>
        <time>2019-04-07T11:18:50Z</time>
      </trkpt>
      <trkpt lat="60.59195" lon="7.46084">
        <ele>1213.8</ele>
        <time>2019-04-07T11:19:05Z</time>
      </trkpt>
      <trkpt lat="60.59297" lon="7.45932">
        <ele>1214.76</ele>
        <time>2019-04-07T11:19:18Z</time>
      </trkpt>
      <trkpt lat="60.59393" lon="7.45819">
        <ele>1213.32</ele>
        <time>2019-04-07T11:19:30Z</time>
      </trkpt>
      <trkpt lat="60.59415" lon="7.45794">
        <ele>1215.24</ele>
        <time>2019-04-07T11:19:33Z</time>
      </trkpt>
      <trkpt lat="60.59495" lon="7.45689">
        <ele>1216.21</ele>
        <time>2019-04-07T11:19:44Z</time>
      </trkpt>
      <trkpt lat="60.59515" lon="7.45661">
        <ele>1214.28</ele>
        <time>2019-04-07T11:19:47Z</time>
      </trkpt>
      <trkpt lat="60.59527" lon="7.45641">
        <ele>1213.8</ele>
        <time>2019-04-07T11:19:49Z</time>
      </trkpt>
      <trkpt lat="60.59554" lon="7.45609">
        <ele>1215.24</ele>
        <time>2019-04-07T11:19:53Z</time>
      </trkpt>
      <trkpt lat="60.59582" lon="7.45579">
        <ele>1217.17</ele>
        <time>2019-04-07T11:19:57Z</time>
      </trkpt>
      <trkpt lat="60.59598" lon="7.4556">
        <ele>1217.65</ele>
        <time>2019-04-07T11:20:00Z</time>
      </trkpt>
      <trkpt lat="60.59617" lon="7.45547">
        <ele>1220.53</ele>
        <time>2019-04-07T11:20:04Z</time>
      </trkpt>
      <trkpt lat="60.59628" lon="7.45546">
        <ele>1221.49</ele>
        <time>2019-04-07T11:20:06Z</time>
      </trkpt>
      <trkpt lat="60.5964" lon="7.45543">
        <ele>1222.45</ele>
        <time>2019-04-07T11:20:08Z</time>
      </trkpt>
      <trkpt lat="60.59653" lon="7.45534">
        <ele>1224.38</ele>
        <time>2019-04-07T11:20:11Z</time>
      </trkpt>
      <trkpt lat="60.59668" lon="7.45524">
        <ele>1226.3</ele>
        <time>2019-04-07T11:20:15Z</time>
      </trkpt>
      <trkpt lat="60.59693" lon="7.45482">
        <ele>1226.78</ele>
        <time>2019-04-07T11:20:25Z</time>
      </trkpt>
      <trkpt lat="60.5972" lon="7.45442">
        <ele>1227.26</ele>
        <time>2019-04-07T11:20:32Z</time>
      </trkpt>
      <trkpt lat="60.59774" lon="7.45419">
        <ele>1224.86</ele>
        <time>2019-04-07T11:20:41Z</time>
      </trkpt>
      <trkpt lat="60.59781" lon="7.45417">
        <ele>1224.86</ele>
        <time>2019-04-07T11:20:43Z</time>
      </trkpt>
      <trkpt lat="60.59785" lon="7.454">
        <ele>1224.86</ele>
        <time>2019-04-07T11:20:46Z</time>
      </trkpt>
      <trkpt lat="60.59781" lon="7.45353">
        <ele>1224.86</ele>
        <time>2019-04-07T11:20:51Z</time>
      </trkpt>
      <trkpt lat="60.59776" lon="7.45333">
        <ele>1224.86</ele>
        <time>2019-04-07T11:20:53Z</time>
      </trkpt>
      <trkpt lat="60.59771" lon="7.45316">
        <ele>1224.86</ele>
        <time>2019-04-07T11:20:55Z</time>
      </trkpt>
      <trkpt lat="60.59767" lon="7.45301">
        <ele>1224.86</ele>
        <time>2019-04-07T11:20:57Z</time>
      </trkpt>
      <trkpt lat="60.59759" lon="7.45276">
        <ele>1224.86</ele>
        <time>2019-04-07T11:21:00Z</time>
      </trkpt>
      <trkpt lat="60.59754" lon="7.45259">
        <ele>1224.86</ele>
        <time>2019-04-07T11:21:02Z</time>
      </trkpt>
      <trkpt lat="60.59741" lon="7.45197">
        <ele>1224.38</ele>
        <time>2019-04-07T11:21:09Z</time>
      </trkpt>
      <trkpt lat="60.59727" lon="7.45165">
        <ele>1222.93</ele>
        <time>2019-04-07T11:21:13Z</time>
      </trkpt>
      <trkpt lat="60.59724" lon="7.45159">
        <ele>1222.93</ele>
        <time>2019-04-07T11:21:14Z</time>
      </trkpt>
      <trkpt lat="60.59719" lon="7.45147">
        <ele>1224.38</ele>
        <time>2019-04-07T11:21:16Z</time>
      </trkpt>
      <trkpt lat="60.59702" lon="7.45114">
        <ele>1220.53</ele>
        <time>2019-04-07T11:21:23Z</time>
      </trkpt>
      <trkpt lat="60.597" lon="7.45112">
        <ele>1220.53</ele>
        <time>2019-04-07T11:21:24Z</time>
      </trkpt>
      <trkpt lat="60.59688" lon="7.45103">
        <ele>1220.53</ele>
        <time>2019-04-07T11:21:28Z</time>
      </trkpt>
      <trkpt lat="60.59669" lon="7.45091">
        <ele>1217.65</ele>
        <time>2019-04-07T11:21:32Z</time>
      </trkpt>
      <trkpt lat="60.59653" lon="7.45089">
        <ele>1214.28</ele>
        <time>2019-04-07T11:21:35Z</time>
      </trkpt>
      <trkpt lat="60.59647" lon="7.45085">
        <ele>1214.28</ele>
        <time>2019-04-07T11:21:36Z</time>
      </trkpt>
      <trkpt lat="60.59626" lon="7.45056">
        <ele>1210.92</ele>
        <time>2019-04-07T11:21:39Z</time>
      </trkpt>
      <trkpt lat="60.59602" lon="7.44999">
        <ele>1209.96</ele>
        <time>2019-04-07T11:21:43Z</time>
      </trkpt>
      <trkpt lat="60.59583" lon="7.44964">
        <ele>1211.4</ele>
        <time>2019-04-07T11:21:47Z</time>
      </trkpt>
      <trkpt lat="60.59577" lon="7.44953">
        <ele>1211.88</ele>
        <time>2019-04-07T11:21:50Z</time>
      </trkpt>
      <trkpt lat="60.59587" lon="7.44967">
        <ele>1213.32</ele>
        <time>2019-04-07T11:21:55Z</time>
      </trkpt>
      <trkpt lat="60.59603" lon="7.44997">
        <ele>1211.88</ele>
        <time>2019-04-07T11:22:05Z</time>
      </trkpt>
      <trkpt lat="60.59605" lon="7.44994">
        <ele>1211.88</ele>
        <time>2019-04-07T11:22:31Z</time>
      </trkpt>
      <trkpt lat="60.59605" lon="7.44993">
        <ele>1211.88</ele>
        <time>2019-04-07T11:22:32Z</time>
      </trkpt>
      <trkpt lat="60.59583" lon="7.44973">
        <ele>1211.88</ele>
        <time>2019-04-07T11:22:41Z</time>
      </trkpt>
      <trkpt lat="60.59581" lon="7.44967">
        <ele>1211.88</ele>
        <time>2019-04-07T11:22:42Z</time>
      </trkpt>
      <trkpt lat="60.59577" lon="7.44952">
        <ele>1211.88</ele>
        <time>2019-04-07T11:22:45Z</time>
      </trkpt>
      <trkpt lat="60.59546" lon="7.4489">
        <ele>1212.36</ele>
        <time>2019-04-07T11:22:53Z</time>
      </trkpt>
      <trkpt lat="60.59516" lon="7.448">
        <ele>1212.36</ele>
        <time>2019-04-07T11:23:01Z</time>
      </trkpt>
      <trkpt lat="60.59502" lon="7.44736">
        <ele>1212.36</ele>
        <time>2019-04-07T11:23:06Z</time>
      </trkpt>
      <trkpt lat="60.59457" lon="7.44584">
        <ele>1215.24</ele>
        <time>2019-04-07T11:23:18Z</time>
      </trkpt>
      <trkpt lat="60.59438" lon="7.44508">
        <ele>1218.13</ele>
        <time>2019-04-07T11:23:23Z</time>
      </trkpt>
      <trkpt lat="60.59418" lon="7.44439">
        <ele>1221.97</ele>
        <time>2019-04-07T11:23:28Z</time>
      </trkpt>
      <trkpt lat="60.59412" lon="7.44414">
        <ele>1222.93</ele>
        <time>2019-04-07T11:23:30Z</time>
      </trkpt>
      <trkpt lat="60.5939" lon="7.4433">
        <ele>1225.82</ele>
        <time>2019-04-07T11:23:37Z</time>
      </trkpt>
      <trkpt lat="60.59373" lon="7.4428">
        <ele>1227.26</ele>
        <time>2019-04-07T11:23:41Z</time>
      </trkpt>
      <trkpt lat="60.59367" lon="7.44257">
        <ele>1228.7</ele>
        <time>2019-04-07T11:23:43Z</time>
      </trkpt>
      <trkpt lat="60.59363" lon="7.44236">
        <ele>1230.62</ele>
        <time>2019-04-07T11:23:45Z</time>
      </trkpt>
      <trkpt lat="60.59356" lon="7.44196">
        <ele>1234.95</ele>
        <time>2019-04-07T11:23:50Z</time>
      </trkpt>
      <trkpt lat="60.59357" lon="7.44144">
        <ele>1238.8</ele>
        <time>2019-04-07T11:23:57Z</time>
      </trkpt>
      <trkpt lat="60.59364" lon="7.44131">
        <ele>1239.76</ele>
        <time>2019-04-07T11:24:01Z</time>
      </trkpt>
      <trkpt lat="60.59399" lon="7.44116">
        <ele>1239.76</ele>
        <time>2019-04-07T11:24:06Z</time>
      </trkpt>
      <trkpt lat="60.59414" lon="7.44114">
        <ele>1237.83</ele>
        <time>2019-04-07T11:24:08Z</time>
      </trkpt>
      <trkpt lat="60.59423" lon="7.44114">
        <ele>1237.83</ele>
        <time>2019-04-07T11:24:09Z</time>
      </trkpt>
      <trkpt lat="60.59447" lon="7.44123">
        <ele>1233.03</ele>
        <time>2019-04-07T11:24:12Z</time>
      </trkpt>
      <trkpt lat="60.59469" lon="7.44135">
        <ele>1229.18</ele>
        <time>2019-04-07T11:24:15Z</time>
      </trkpt>
      <trkpt lat="60.59497" lon="7.44148">
        <ele>1226.3</ele>
        <time>2019-04-07T11:24:19Z</time>
      </trkpt>
      <trkpt lat="60.59511" lon="7.44155">
        <ele>1226.3</ele>
        <time>2019-04-07T11:24:21Z</time>
      </trkpt>
      <trkpt lat="60.59545" lon="7.44129">
        <ele>1227.74</ele>
        <time>2019-04-07T11:24:28Z</time>
      </trkpt>
      <trkpt lat="60.5956" lon="7.44115">
        <ele>1228.22</ele>
        <time>2019-04-07T11:24:32Z</time>
      </trkpt>
      <trkpt lat="60.59596" lon="7.4413">
        <ele>1229.66</ele>
        <time>2019-04-07T11:24:41Z</time>
      </trkpt>
      <trkpt lat="60.59602" lon="7.44136">
        <ele>1228.22</ele>
        <time>2019-04-07T11:24:42Z</time>
      </trkpt>
      <trkpt lat="60.59611" lon="7.44165">
        <ele>1224.86</ele>
        <time>2019-04-07T11:24:48Z</time>
      </trkpt>
      <trkpt lat="60.5961" lon="7.44162">
        <ele>1224.86</ele>
        <time>2019-04-07T11:24:57Z</time>
      </trkpt>
      <trkpt lat="60.59608" lon="7.44156">
        <ele>1224.86</ele>
        <time>2019-04-07T11:25:13Z</time>
      </trkpt>
      <trkpt lat="60.59607" lon="7.44148">
        <ele>1224.86</ele>
        <time>2019-04-07T11:25:34Z</time>
      </trkpt>
      <trkpt lat="60.59607" lon="7.44145">
        <ele>1224.86</ele>
        <time>2019-04-07T11:25:54Z</time>
      </trkpt>
      <trkpt lat="60.59617" lon="7.44112">
        <ele>1224.86</ele>
        <time>2019-04-07T11:26:00Z</time>
      </trkpt>
      <trkpt lat="60.5962" lon="7.44106">
        <ele>1224.86</ele>
        <time>2019-04-07T11:26:02Z</time>
      </trkpt>
      <trkpt lat="60.5966" lon="7.44068">
        <ele>1223.42</ele>
        <time>2019-04-07T11:26:11Z</time>
      </trkpt>
      <trkpt lat="60.59668" lon="7.44071">
        <ele>1223.42</ele>
        <time>2019-04-07T11:26:12Z</time>
      </trkpt>
      <trkpt lat="60.59694" lon="7.44077">
        <ele>1224.86</ele>
        <time>2019-04-07T11:26:17Z</time>
      </trkpt>
      <trkpt lat="60.59699" lon="7.44076">
        <ele>1225.82</ele>
        <time>2019-04-07T11:26:18Z</time>
      </trkpt>
      <trkpt lat="60.59718" lon="7.4406">
        <ele>1227.74</ele>
        <time>2019-04-07T11:26:26Z</time>
      </trkpt>
      <trkpt lat="60.59722" lon="7.44059">
        <ele>1228.22</ele>
        <time>2019-04-07T11:26:28Z</time>
      </trkpt>
      <trkpt lat="60.59729" lon="7.44053">
        <ele>1229.66</ele>
        <time>2019-04-07T11:26:32Z</time>
      </trkpt>
      <trkpt lat="60.59737" lon="7.44054">
        <ele>1231.59</ele>
        <time>2019-04-07T11:26:36Z</time>
      </trkpt>
      <trkpt lat="60.59748" lon="7.44046">
        <ele>1232.55</ele>
        <time>2019-04-07T11:26:41Z</time>
      </trkpt>
      <trkpt lat="60.59756" lon="7.44049">
        <ele>1233.03</ele>
        <time>2019-04-07T11:26:43Z</time>
      </trkpt>
      <trkpt lat="60.59765" lon="7.4405">
        <ele>1233.03</ele>
        <time>2019-04-07T11:26:45Z</time>
      </trkpt>
      <trkpt lat="60.59793" lon="7.44055">
        <ele>1229.66</ele>
        <time>2019-04-07T11:26:52Z</time>
      </trkpt>
      <trkpt lat="60.59797" lon="7.44056">
        <ele>1228.7</ele>
        <time>2019-04-07T11:26:53Z</time>
      </trkpt>
      <trkpt lat="60.59808" lon="7.44067">
        <ele>1227.26</ele>
        <time>2019-04-07T11:26:56Z</time>
      </trkpt>
      <trkpt lat="60.59823" lon="7.44062">
        <ele>1223.9</ele>
        <time>2019-04-07T11:26:59Z</time>
      </trkpt>
      <trkpt lat="60.59838" lon="7.44054">
        <ele>1223.42</ele>
        <time>2019-04-07T11:27:01Z</time>
      </trkpt>
      <trkpt lat="60.59869" lon="7.44047">
        <ele>1226.3</ele>
        <time>2019-04-07T11:27:05Z</time>
      </trkpt>
      <trkpt lat="60.59902" lon="7.44042">
        <ele>1228.7</ele>
        <time>2019-04-07T11:27:09Z</time>
      </trkpt>
      <trkpt lat="60.59977" lon="7.44026">
        <ele>1229.66</ele>
        <time>2019-04-07T11:27:18Z</time>
      </trkpt>
      <trkpt lat="60.59987" lon="7.4402">
        <ele>1231.11</ele>
        <time>2019-04-07T11:27:21Z</time>
      </trkpt>
      <trkpt lat="60.60003" lon="7.4402">
        <ele>1233.03</ele>
        <time>2019-04-07T11:27:26Z</time>
      </trkpt>
      <trkpt lat="60.6002" lon="7.44006">
        <ele>1235.91</ele>
        <time>2019-04-07T11:27:32Z</time>
      </trkpt>
      <trkpt lat="60.60024" lon="7.44005">
        <ele>1236.87</ele>
        <time>2019-04-07T11:27:33Z</time>
      </trkpt>
      <trkpt lat="60.6003" lon="7.44003">
        <ele>1237.35</ele>
        <time>2019-04-07T11:27:35Z</time>
      </trkpt>
      <trkpt lat="60.60036" lon="7.43999">
        <ele>1238.32</ele>
        <time>2019-04-07T11:27:37Z</time>
      </trkpt>
      <trkpt lat="60.60043" lon="7.43926">
        <ele>1239.76</ele>
        <time>2019-04-07T11:27:48Z</time>
      </trkpt>
      <trkpt lat="60.60042" lon="7.43909">
        <ele>1240.24</ele>
        <time>2019-04-07T11:27:50Z</time>
      </trkpt>
      <trkpt lat="60.6005" lon="7.43863">
        <ele>1241.2</ele>
        <time>2019-04-07T11:27:57Z</time>
      </trkpt>
      <trkpt lat="60.60042" lon="7.43779">
        <ele>1243.12</ele>
        <time>2019-04-07T11:28:06Z</time>
      </trkpt>
      <trkpt lat="60.60034" lon="7.43715">
        <ele>1243.6</ele>
        <time>2019-04-07T11:28:14Z</time>
      </trkpt>
      <trkpt lat="60.60026" lon="7.43689">
        <ele>1242.16</ele>
        <time>2019-04-07T11:28:17Z</time>
      </trkpt>
      <trkpt lat="60.59997" lon="7.43625">
        <ele>1243.12</ele>
        <time>2019-04-07T11:28:27Z</time>
      </trkpt>
      <trkpt lat="60.59994" lon="7.43622">
        <ele>1243.12</ele>
        <time>2019-04-07T11:28:28Z</time>
      </trkpt>
      <trkpt lat="60.59982" lon="7.43599">
        <ele>1241.2</ele>
        <time>2019-04-07T11:28:32Z</time>
      </trkpt>
      <trkpt lat="60.59977" lon="7.43584">
        <ele>1239.28</ele>
        <time>2019-04-07T11:28:34Z</time>
      </trkpt>
      <trkpt lat="60.59982" lon="7.43556">
        <ele>1238.8</ele>
        <time>2019-04-07T11:28:38Z</time>
      </trkpt>
      <trkpt lat="60.59993" lon="7.4354">
        <ele>1239.28</ele>
        <time>2019-04-07T11:28:41Z</time>
      </trkpt>
      <trkpt lat="60.59999" lon="7.43526">
        <ele>1240.24</ele>
        <time>2019-04-07T11:28:43Z</time>
      </trkpt>
      <trkpt lat="60.60012" lon="7.43487">
        <ele>1240.72</ele>
        <time>2019-04-07T11:28:50Z</time>
      </trkpt>
      <trkpt lat="60.6002" lon="7.43479">
        <ele>1241.2</ele>
        <time>2019-04-07T11:28:52Z</time>
      </trkpt>
      <trkpt lat="60.60056" lon="7.43452">
        <ele>1242.16</ele>
        <time>2019-04-07T11:29:00Z</time>
      </trkpt>
      <trkpt lat="60.60076" lon="7.43438">
        <ele>1242.16</ele>
        <time>2019-04-07T11:29:04Z</time>
      </trkpt>
      <trkpt lat="60.60109" lon="7.43418">
        <ele>1244.56</ele>
        <time>2019-04-07T11:29:10Z</time>
      </trkpt>
      <trkpt lat="60.60118" lon="7.43397">
        <ele>1248.89</ele>
        <time>2019-04-07T11:29:15Z</time>
      </trkpt>
      <trkpt lat="60.60123" lon="7.43382">
        <ele>1250.81</ele>
        <time>2019-04-07T11:29:19Z</time>
      </trkpt>
      <trkpt lat="60.60131" lon="7.43361">
        <ele>1254.18</ele>
        <time>2019-04-07T11:29:23Z</time>
      </trkpt>
      <trkpt lat="60.60133" lon="7.43357">
        <ele>1254.18</ele>
        <time>2019-04-07T11:29:24Z</time>
      </trkpt>
      <trkpt lat="60.60135" lon="7.43353">
        <ele>1255.14</ele>
        <time>2019-04-07T11:29:25Z</time>
      </trkpt>
      <trkpt lat="60.60145" lon="7.43339">
        <ele>1255.14</ele>
        <time>2019-04-07T11:29:27Z</time>
      </trkpt>
      <trkpt lat="60.60164" lon="7.43273">
        <ele>1255.62</ele>
        <time>2019-04-07T11:29:34Z</time>
      </trkpt>
      <trkpt lat="60.60165" lon="7.43243">
        <ele>1250.81</ele>
        <time>2019-04-07T11:29:38Z</time>
      </trkpt>
      <trkpt lat="60.60165" lon="7.43237">
        <ele>1258.5</ele>
        <time>2019-04-07T11:29:39Z</time>
      </trkpt>
      <trkpt lat="60.60167" lon="7.43226">
        <ele>1256.1</ele>
        <time>2019-04-07T11:29:42Z</time>
      </trkpt>
      <trkpt lat="60.60171" lon="7.43216">
        <ele>1257.54</ele>
        <time>2019-04-07T11:29:45Z</time>
      </trkpt>
      <trkpt lat="60.60177" lon="7.43191">
        <ele>1258.98</ele>
        <time>2019-04-07T11:29:51Z</time>
      </trkpt>
      <trkpt lat="60.60189" lon="7.43158">
        <ele>1261.87</ele>
        <time>2019-04-07T11:29:58Z</time>
      </trkpt>
      <trkpt lat="60.60191" lon="7.43152">
        <ele>1262.83</ele>
        <time>2019-04-07T11:30:00Z</time>
      </trkpt>
      <trkpt lat="60.60196" lon="7.4313">
        <ele>1264.75</ele>
        <time>2019-04-07T11:30:07Z</time>
      </trkpt>
      <trkpt lat="60.60214" lon="7.43111">
        <ele>1267.16</ele>
        <time>2019-04-07T11:30:16Z</time>
      </trkpt>
      <trkpt lat="60.60216" lon="7.43113">
        <ele>1267.16</ele>
        <time>2019-04-07T11:30:18Z</time>
      </trkpt>
      <trkpt lat="60.6023" lon="7.43089">
        <ele>1267.64</ele>
        <time>2019-04-07T11:30:28Z</time>
      </trkpt>
      <trkpt lat="60.60235" lon="7.43081">
        <ele>1267.64</ele>
        <time>2019-04-07T11:30:30Z</time>
      </trkpt>
      <trkpt lat="60.60243" lon="7.43069">
        <ele>1268.6</ele>
        <time>2019-04-07T11:30:35Z</time>
      </trkpt>
      <trkpt lat="60.60266" lon="7.43016">
        <ele>1271</ele>
        <time>2019-04-07T11:30:47Z</time>
      </trkpt>
      <trkpt lat="60.60268" lon="7.43011">
        <ele>1271</ele>
        <time>2019-04-07T11:30:48Z</time>
      </trkpt>
      <trkpt lat="60.60277" lon="7.42988">
        <ele>1272.92</ele>
        <time>2019-04-07T11:30:52Z</time>
      </trkpt>
      <trkpt lat="60.60282" lon="7.42972">
        <ele>1273.88</ele>
        <time>2019-04-07T11:30:55Z</time>
      </trkpt>
      <trkpt lat="60.60298" lon="7.4292">
        <ele>1276.29</ele>
        <time>2019-04-07T11:31:03Z</time>
      </trkpt>
      <trkpt lat="60.60314" lon="7.42873">
        <ele>1277.73</ele>
        <time>2019-04-07T11:31:11Z</time>
      </trkpt>
      <trkpt lat="60.60328" lon="7.42825">
        <ele>1280.61</ele>
        <time>2019-04-07T11:31:19Z</time>
      </trkpt>
      <trkpt lat="60.60339" lon="7.42769">
        <ele>1281.57</ele>
        <time>2019-04-07T11:31:28Z</time>
      </trkpt>
      <trkpt lat="60.60338" lon="7.42716">
        <ele>1278.21</ele>
        <time>2019-04-07T11:31:37Z</time>
      </trkpt>
      <trkpt lat="60.6034" lon="7.42704">
        <ele>1277.73</ele>
        <time>2019-04-07T11:31:42Z</time>
      </trkpt>
      <trkpt lat="60.60347" lon="7.42675">
        <ele>1280.13</ele>
        <time>2019-04-07T11:31:47Z</time>
      </trkpt>
      <trkpt lat="60.60348" lon="7.42641">
        <ele>1280.13</ele>
        <time>2019-04-07T11:31:52Z</time>
      </trkpt>
      <trkpt lat="60.60347" lon="7.42604">
        <ele>1277.25</ele>
        <time>2019-04-07T11:31:59Z</time>
      </trkpt>
      <trkpt lat="60.60348" lon="7.4258">
        <ele>1276.29</ele>
        <time>2019-04-07T11:32:04Z</time>
      </trkpt>
      <trkpt lat="60.60352" lon="7.42555">
        <ele>1275.33</ele>
        <time>2019-04-07T11:32:08Z</time>
      </trkpt>
      <trkpt lat="60.60353" lon="7.42549">
        <ele>1275.33</ele>
        <time>2019-04-07T11:32:10Z</time>
      </trkpt>
      <trkpt lat="60.60347" lon="7.42542">
        <ele>1273.4</ele>
        <time>2019-04-07T11:32:14Z</time>
      </trkpt>
      <trkpt lat="60.60341" lon="7.42543">
        <ele>1270.52</ele>
        <time>2019-04-07T11:32:17Z</time>
      </trkpt>
      <trkpt lat="60.60336" lon="7.42544">
        <ele>1269.08</ele>
        <time>2019-04-07T11:32:19Z</time>
      </trkpt>
      <trkpt lat="60.60328" lon="7.42543">
        <ele>1264.27</ele>
        <time>2019-04-07T11:32:21Z</time>
      </trkpt>
      <trkpt lat="60.60318" lon="7.4254">
        <ele>1259.94</ele>
        <time>2019-04-07T11:32:23Z</time>
      </trkpt>
      <trkpt lat="60.60312" lon="7.42538">
        <ele>1258.02</ele>
        <time>2019-04-07T11:32:25Z</time>
      </trkpt>
      <trkpt lat="60.60306" lon="7.42481">
        <ele>1256.58</ele>
        <time>2019-04-07T11:32:33Z</time>
      </trkpt>
      <trkpt lat="60.60315" lon="7.42456">
        <ele>1257.54</ele>
        <time>2019-04-07T11:32:38Z</time>
      </trkpt>
      <trkpt lat="60.60309" lon="7.42425">
        <ele>1253.22</ele>
        <time>2019-04-07T11:32:42Z</time>
      </trkpt>
      <trkpt lat="60.603" lon="7.42415">
        <ele>1250.81</ele>
        <time>2019-04-07T11:32:44Z</time>
      </trkpt>
      <trkpt lat="60.60293" lon="7.42408">
        <ele>1249.85</ele>
        <time>2019-04-07T11:32:46Z</time>
      </trkpt>
      <trkpt lat="60.6029" lon="7.42402">
        <ele>1249.85</ele>
        <time>2019-04-07T11:32:48Z</time>
      </trkpt>
      <trkpt lat="60.60289" lon="7.42386">
        <ele>1251.29</ele>
        <time>2019-04-07T11:32:51Z</time>
      </trkpt>
      <trkpt lat="60.6029" lon="7.42383">
        <ele>1250.33</ele>
        <time>2019-04-07T11:32:52Z</time>
      </trkpt>
      <trkpt lat="60.60292" lon="7.42379">
        <ele>1250.33</ele>
        <time>2019-04-07T11:33:05Z</time>
      </trkpt>
      <trkpt lat="60.60291" lon="7.42379">
        <ele>1250.33</ele>
        <time>2019-04-07T11:33:25Z</time>
      </trkpt>
      <trkpt lat="60.60293" lon="7.42377">
        <ele>1250.33</ele>
        <time>2019-04-07T11:33:41Z</time>
      </trkpt>
      <trkpt lat="60.60294" lon="7.42342">
        <ele>1245.53</ele>
        <time>2019-04-07T11:33:46Z</time>
      </trkpt>
      <trkpt lat="60.60292" lon="7.42332">
        <ele>1245.53</ele>
        <time>2019-04-07T11:33:47Z</time>
      </trkpt>
      <trkpt lat="60.60304" lon="7.42282">
        <ele>1245.04</ele>
        <time>2019-04-07T11:33:53Z</time>
      </trkpt>
      <trkpt lat="60.60329" lon="7.42257">
        <ele>1246.49</ele>
        <time>2019-04-07T11:33:58Z</time>
      </trkpt>
      <trkpt lat="60.60351" lon="7.42221">
        <ele>1246.97</ele>
        <time>2019-04-07T11:34:04Z</time>
      </trkpt>
      <trkpt lat="60.60371" lon="7.4219">
        <ele>1249.37</ele>
        <time>2019-04-07T11:34:10Z</time>
      </trkpt>
      <trkpt lat="60.60376" lon="7.42175">
        <ele>1250.33</ele>
        <time>2019-04-07T11:34:12Z</time>
      </trkpt>
      <trkpt lat="60.60377" lon="7.42121">
        <ele>1250.33</ele>
        <time>2019-04-07T11:34:17Z</time>
      </trkpt>
      <trkpt lat="60.60369" lon="7.42057">
        <ele>1248.41</ele>
        <time>2019-04-07T11:34:21Z</time>
      </trkpt>
      <trkpt lat="60.60366" lon="7.42041">
        <ele>1248.41</ele>
        <time>2019-04-07T11:34:22Z</time>
      </trkpt>
      <trkpt lat="60.60367" lon="7.41992">
        <ele>1249.85</ele>
        <time>2019-04-07T11:34:27Z</time>
      </trkpt>
      <trkpt lat="60.6037" lon="7.41976">
        <ele>1251.29</ele>
        <time>2019-04-07T11:34:31Z</time>
      </trkpt>
      <trkpt lat="60.6037" lon="7.41971">
        <ele>1251.29</ele>
        <time>2019-04-07T11:34:32Z</time>
      </trkpt>
      <trkpt lat="60.60385" lon="7.41922">
        <ele>1251.77</ele>
        <time>2019-04-07T11:34:39Z</time>
      </trkpt>
      <trkpt lat="60.60385" lon="7.41886">
        <ele>1251.77</ele>
        <time>2019-04-07T11:34:43Z</time>
      </trkpt>
      <trkpt lat="60.60366" lon="7.41775">
        <ele>1249.85</ele>
        <time>2019-04-07T11:34:55Z</time>
      </trkpt>
      <trkpt lat="60.60358" lon="7.41748">
        <ele>1249.85</ele>
        <time>2019-04-07T11:34:58Z</time>
      </trkpt>
      <trkpt lat="60.60348" lon="7.41723">
        <ele>1252.25</ele>
        <time>2019-04-07T11:35:01Z</time>
      </trkpt>
      <trkpt lat="60.60338" lon="7.41697">
        <ele>1252.25</ele>
        <time>2019-04-07T11:35:04Z</time>
      </trkpt>
      <trkpt lat="60.60324" lon="7.41633">
        <ele>1250.81</ele>
        <time>2019-04-07T11:35:10Z</time>
      </trkpt>
      <trkpt lat="60.60313" lon="7.41584">
        <ele>1252.74</ele>
        <time>2019-04-07T11:35:14Z</time>
      </trkpt>
      <trkpt lat="60.60329" lon="7.41539">
        <ele>1254.18</ele>
        <time>2019-04-07T11:35:20Z</time>
      </trkpt>
      <trkpt lat="60.60347" lon="7.41523">
        <ele>1254.66</ele>
        <time>2019-04-07T11:35:24Z</time>
      </trkpt>
      <trkpt lat="60.60354" lon="7.41505">
        <ele>1254.66</ele>
        <time>2019-04-07T11:35:27Z</time>
      </trkpt>
      <trkpt lat="60.60367" lon="7.41465">
        <ele>1253.7</ele>
        <time>2019-04-07T11:35:34Z</time>
      </trkpt>
      <trkpt lat="60.60389" lon="7.41421">
        <ele>1252.74</ele>
        <time>2019-04-07T11:35:40Z</time>
      </trkpt>
      <trkpt lat="60.60414" lon="7.41407">
        <ele>1252.74</ele>
        <time>2019-04-07T11:35:44Z</time>
      </trkpt>
      <trkpt lat="60.60436" lon="7.41376">
        <ele>1257.54</ele>
        <time>2019-04-07T11:35:50Z</time>
      </trkpt>
      <trkpt lat="60.60441" lon="7.41353">
        <ele>1258.98</ele>
        <time>2019-04-07T11:35:53Z</time>
      </trkpt>
      <trkpt lat="60.60442" lon="7.4133">
        <ele>1258.98</ele>
        <time>2019-04-07T11:35:55Z</time>
      </trkpt>
      <trkpt lat="60.6044" lon="7.4121">
        <ele>1258.98</ele>
        <time>2019-04-07T11:36:04Z</time>
      </trkpt>
      <trkpt lat="60.60436" lon="7.41172">
        <ele>1260.91</ele>
        <time>2019-04-07T11:36:07Z</time>
      </trkpt>
      <trkpt lat="60.60434" lon="7.41161">
        <ele>1261.87</ele>
        <time>2019-04-07T11:36:08Z</time>
      </trkpt>
      <trkpt lat="60.60435" lon="7.41098">
        <ele>1267.16</ele>
        <time>2019-04-07T11:36:15Z</time>
      </trkpt>
      <trkpt lat="60.60444" lon="7.41085">
        <ele>1269.08</ele>
        <time>2019-04-07T11:36:18Z</time>
      </trkpt>
      <trkpt lat="60.6046" lon="7.41064">
        <ele>1270.52</ele>
        <time>2019-04-07T11:36:21Z</time>
      </trkpt>
      <trkpt lat="60.6047" lon="7.41055">
        <ele>1271.96</ele>
        <time>2019-04-07T11:36:23Z</time>
      </trkpt>
      <trkpt lat="60.6048" lon="7.41049">
        <ele>1274.36</ele>
        <time>2019-04-07T11:36:25Z</time>
      </trkpt>
      <trkpt lat="60.60495" lon="7.41004">
        <ele>1274.85</ele>
        <time>2019-04-07T11:36:35Z</time>
      </trkpt>
      <trkpt lat="60.60493" lon="7.41">
        <ele>1275.33</ele>
        <time>2019-04-07T11:36:49Z</time>
      </trkpt>
      <trkpt lat="60.60493" lon="7.40998">
        <ele>1275.33</ele>
        <time>2019-04-07T11:37:09Z</time>
      </trkpt>
      <trkpt lat="60.60499" lon="7.40997">
        <ele>1274.85</ele>
        <time>2019-04-07T11:37:21Z</time>
      </trkpt>
      <trkpt lat="60.60505" lon="7.41022">
        <ele>1275.81</ele>
        <time>2019-04-07T11:37:26Z</time>
      </trkpt>
      <trkpt lat="60.60506" lon="7.41062">
        <ele>1274.36</ele>
        <time>2019-04-07T11:37:32Z</time>
      </trkpt>
      <trkpt lat="60.60509" lon="7.411">
        <ele>1274.36</ele>
        <time>2019-04-07T11:37:38Z</time>
      </trkpt>
      <trkpt lat="60.60511" lon="7.4113">
        <ele>1274.36</ele>
        <time>2019-04-07T11:37:41Z</time>
      </trkpt>
      <trkpt lat="60.60515" lon="7.41191">
        <ele>1274.36</ele>
        <time>2019-04-07T11:37:48Z</time>
      </trkpt>
      <trkpt lat="60.6052" lon="7.41235">
        <ele>1275.33</ele>
        <time>2019-04-07T11:37:53Z</time>
      </trkpt>
      <trkpt lat="60.6052" lon="7.41244">
        <ele>1275.33</ele>
        <time>2019-04-07T11:37:54Z</time>
      </trkpt>
      <trkpt lat="60.6052" lon="7.41325">
        <ele>1276.29</ele>
        <time>2019-04-07T11:38:06Z</time>
      </trkpt>
      <trkpt lat="60.60521" lon="7.41333">
        <ele>1276.29</ele>
        <time>2019-04-07T11:38:07Z</time>
      </trkpt>
      <trkpt lat="60.60523" lon="7.41379">
        <ele>1274.85</ele>
        <time>2019-04-07T11:38:12Z</time>
      </trkpt>
      <trkpt lat="60.60522" lon="7.41476">
        <ele>1271.96</ele>
        <time>2019-04-07T11:38:22Z</time>
      </trkpt>
      <trkpt lat="60.60526" lon="7.41574">
        <ele>1271</ele>
        <time>2019-04-07T11:38:31Z</time>
      </trkpt>
      <trkpt lat="60.60525" lon="7.41593">
        <ele>1269.56</ele>
        <time>2019-04-07T11:38:33Z</time>
      </trkpt>
      <trkpt lat="60.60524" lon="7.41602">
        <ele>1267.64</ele>
        <time>2019-04-07T11:38:35Z</time>
      </trkpt>
      <trkpt lat="60.60514" lon="7.41603">
        <ele>1264.75</ele>
        <time>2019-04-07T11:38:39Z</time>
      </trkpt>
      <trkpt lat="60.60505" lon="7.41609">
        <ele>1264.75</ele>
        <time>2019-04-07T11:38:41Z</time>
      </trkpt>
      <trkpt lat="60.60485" lon="7.41628">
        <ele>1262.83</ele>
        <time>2019-04-07T11:38:45Z</time>
      </trkpt>
      <trkpt lat="60.60476" lon="7.41641">
        <ele>1260.43</ele>
        <time>2019-04-07T11:38:47Z</time>
      </trkpt>
      <trkpt lat="60.60464" lon="7.41661">
        <ele>1258.98</ele>
        <time>2019-04-07T11:38:51Z</time>
      </trkpt>
      <trkpt lat="60.60459" lon="7.41673">
        <ele>1258.02</ele>
        <time>2019-04-07T11:38:53Z</time>
      </trkpt>
      <trkpt lat="60.60442" lon="7.41703">
        <ele>1255.14</ele>
        <time>2019-04-07T11:38:58Z</time>
      </trkpt>
      <trkpt lat="60.60432" lon="7.41719">
        <ele>1250.81</ele>
        <time>2019-04-07T11:39:00Z</time>
      </trkpt>
      <trkpt lat="60.60426" lon="7.41728">
        <ele>1249.37</ele>
        <time>2019-04-07T11:39:01Z</time>
      </trkpt>
      <trkpt lat="60.60406" lon="7.41747">
        <ele>1251.77</ele>
        <time>2019-04-07T11:39:04Z</time>
      </trkpt>
      <trkpt lat="60.60385" lon="7.41761">
        <ele>1251.29</ele>
        <time>2019-04-07T11:39:07Z</time>
      </trkpt>
      <trkpt lat="60.60338" lon="7.41776">
        <ele>1252.74</ele>
        <time>2019-04-07T11:39:14Z</time>
      </trkpt>
      <trkpt lat="60.60311" lon="7.41786">
        <ele>1254.18</ele>
        <time>2019-04-07T11:39:19Z</time>
      </trkpt>
      <trkpt lat="60.60301" lon="7.41787">
        <ele>1251.29</ele>
        <time>2019-04-07T11:39:21Z</time>
      </trkpt>
      <trkpt lat="60.6029" lon="7.4179">
        <ele>1254.66</ele>
        <time>2019-04-07T11:39:23Z</time>
      </trkpt>
      <trkpt lat="60.60286" lon="7.4179">
        <ele>1254.66</ele>
        <time>2019-04-07T11:39:24Z</time>
      </trkpt>
      <trkpt lat="60.60281" lon="7.41791">
        <ele>1255.14</ele>
        <time>2019-04-07T11:39:25Z</time>
      </trkpt>
      <trkpt lat="60.60272" lon="7.41791">
        <ele>1256.58</ele>
        <time>2019-04-07T11:39:27Z</time>
      </trkpt>
      <trkpt lat="60.60267" lon="7.41791">
        <ele>1256.58</ele>
        <time>2019-04-07T11:39:28Z</time>
      </trkpt>
      <trkpt lat="60.60245" lon="7.41796">
        <ele>1257.54</ele>
        <time>2019-04-07T11:39:32Z</time>
      </trkpt>
      <trkpt lat="60.60214" lon="7.41797">
        <ele>1258.98</ele>
        <time>2019-04-07T11:39:37Z</time>
      </trkpt>
      <trkpt lat="60.60201" lon="7.41799">
        <ele>1258.02</ele>
        <time>2019-04-07T11:39:40Z</time>
      </trkpt>
      <trkpt lat="60.60214" lon="7.41808">
        <ele>1259.46</ele>
        <time>2019-04-07T11:39:47Z</time>
      </trkpt>
      <trkpt lat="60.60218" lon="7.41817">
        <ele>1259.94</ele>
        <time>2019-04-07T11:39:48Z</time>
      </trkpt>
      <trkpt lat="60.60239" lon="7.41907">
        <ele>1256.58</ele>
        <time>2019-04-07T11:39:55Z</time>
      </trkpt>
      <trkpt lat="60.60245" lon="7.41932">
        <ele>1254.18</ele>
        <time>2019-04-07T11:39:58Z</time>
      </trkpt>
      <trkpt lat="60.60247" lon="7.41952">
        <ele>1254.18</ele>
        <time>2019-04-07T11:40:00Z</time>
      </trkpt>
      <trkpt lat="60.60253" lon="7.41999">
        <ele>1253.22</ele>
        <time>2019-04-07T11:40:06Z</time>
      </trkpt>
      <trkpt lat="60.60256" lon="7.42016">
        <ele>1253.22</ele>
        <time>2019-04-07T11:40:08Z</time>
      </trkpt>
      <trkpt lat="60.60272" lon="7.42163">
        <ele>1251.29</ele>
        <time>2019-04-07T11:40:22Z</time>
      </trkpt>
      <trkpt lat="60.60281" lon="7.42228">
        <ele>1248.41</ele>
        <time>2019-04-07T11:40:27Z</time>
      </trkpt>
      <trkpt lat="60.60291" lon="7.42294">
        <ele>1247.45</ele>
        <time>2019-04-07T11:40:32Z</time>
      </trkpt>
      <trkpt lat="60.603" lon="7.42331">
        <ele>1246.97</ele>
        <time>2019-04-07T11:40:36Z</time>
      </trkpt>
      <trkpt lat="60.60313" lon="7.42359">
        <ele>1249.85</ele>
        <time>2019-04-07T11:40:41Z</time>
      </trkpt>
      <trkpt lat="60.60316" lon="7.42364">
        <ele>1250.33</ele>
        <time>2019-04-07T11:40:42Z</time>
      </trkpt>
      <trkpt lat="60.60334" lon="7.42394">
        <ele>1254.66</ele>
        <time>2019-04-07T11:40:48Z</time>
      </trkpt>
      <trkpt lat="60.60338" lon="7.42398">
        <ele>1256.1</ele>
        <time>2019-04-07T11:40:49Z</time>
      </trkpt>
      <trkpt lat="60.60333" lon="7.42388">
        <ele>1256.1</ele>
        <time>2019-04-07T11:40:55Z</time>
      </trkpt>
      <trkpt lat="60.60314" lon="7.42387">
        <ele>1250.33</ele>
        <time>2019-04-07T11:40:58Z</time>
      </trkpt>
      <trkpt lat="60.60297" lon="7.424">
        <ele>1252.25</ele>
        <time>2019-04-07T11:41:04Z</time>
      </trkpt>
      <trkpt lat="60.60269" lon="7.42427">
        <ele>1249.85</ele>
        <time>2019-04-07T11:41:19Z</time>
      </trkpt>
      <trkpt lat="60.60264" lon="7.42434">
        <ele>1246.49</ele>
        <time>2019-04-07T11:41:21Z</time>
      </trkpt>
      <trkpt lat="60.60257" lon="7.42444">
        <ele>1246.01</ele>
        <time>2019-04-07T11:41:23Z</time>
      </trkpt>
      <trkpt lat="60.60254" lon="7.42449">
        <ele>1246.01</ele>
        <time>2019-04-07T11:41:24Z</time>
      </trkpt>
      <trkpt lat="60.60246" lon="7.42458">
        <ele>1246.97</ele>
        <time>2019-04-07T11:41:26Z</time>
      </trkpt>
      <trkpt lat="60.60234" lon="7.42474">
        <ele>1245.04</ele>
        <time>2019-04-07T11:41:29Z</time>
      </trkpt>
      <trkpt lat="60.60204" lon="7.42509">
        <ele>1241.68</ele>
        <time>2019-04-07T11:41:36Z</time>
      </trkpt>
      <trkpt lat="60.60199" lon="7.42514">
        <ele>1242.16</ele>
        <time>2019-04-07T11:41:37Z</time>
      </trkpt>
      <trkpt lat="60.60189" lon="7.42526">
        <ele>1245.04</ele>
        <time>2019-04-07T11:41:40Z</time>
      </trkpt>
      <trkpt lat="60.60184" lon="7.4253">
        <ele>1240.24</ele>
        <time>2019-04-07T11:41:41Z</time>
      </trkpt>
      <trkpt lat="60.6018" lon="7.42534">
        <ele>1240.24</ele>
        <time>2019-04-07T11:41:42Z</time>
      </trkpt>
      <trkpt lat="60.60177" lon="7.42535">
        <ele>1243.12</ele>
        <time>2019-04-07T11:41:43Z</time>
      </trkpt>
      <trkpt lat="60.60182" lon="7.42549">
        <ele>1244.56</ele>
        <time>2019-04-07T11:41:49Z</time>
      </trkpt>
      <trkpt lat="60.60194" lon="7.42591">
        <ele>1242.64</ele>
        <time>2019-04-07T11:41:53Z</time>
      </trkpt>
      <trkpt lat="60.60197" lon="7.42603">
        <ele>1242.64</ele>
        <time>2019-04-07T11:41:54Z</time>
      </trkpt>
      <trkpt lat="60.60204" lon="7.4265">
        <ele>1240.72</ele>
        <time>2019-04-07T11:41:58Z</time>
      </trkpt>
      <trkpt lat="60.6021" lon="7.42687">
        <ele>1238.32</ele>
        <time>2019-04-07T11:42:01Z</time>
      </trkpt>
      <trkpt lat="60.60217" lon="7.42752">
        <ele>1234.95</ele>
        <time>2019-04-07T11:42:07Z</time>
      </trkpt>
      <trkpt lat="60.60224" lon="7.42768">
        <ele>1236.39</ele>
        <time>2019-04-07T11:42:11Z</time>
      </trkpt>
      <trkpt lat="60.60228" lon="7.42775">
        <ele>1237.35</ele>
        <time>2019-04-07T11:42:13Z</time>
      </trkpt>
      <trkpt lat="60.6024" lon="7.42801">
        <ele>1239.76</ele>
        <time>2019-04-07T11:42:19Z</time>
      </trkpt>
      <trkpt lat="60.6025" lon="7.42815">
        <ele>1241.2</ele>
        <time>2019-04-07T11:42:24Z</time>
      </trkpt>
      <trkpt lat="60.60256" lon="7.42815">
        <ele>1243.12</ele>
        <time>2019-04-07T11:42:28Z</time>
      </trkpt>
      <trkpt lat="60.60263" lon="7.42814">
        <ele>1245.04</ele>
        <time>2019-04-07T11:42:32Z</time>
      </trkpt>
      <trkpt lat="60.60251" lon="7.42814">
        <ele>1239.28</ele>
        <time>2019-04-07T11:42:36Z</time>
      </trkpt>
      <trkpt lat="60.60245" lon="7.42819">
        <ele>1238.32</ele>
        <time>2019-04-07T11:42:37Z</time>
      </trkpt>
      <trkpt lat="60.60184" lon="7.42876">
        <ele>1238.8</ele>
        <time>2019-04-07T11:42:51Z</time>
      </trkpt>
      <trkpt lat="60.6017" lon="7.42885">
        <ele>1240.72</ele>
        <time>2019-04-07T11:42:55Z</time>
      </trkpt>
      <trkpt lat="60.60134" lon="7.42916">
        <ele>1241.2</ele>
        <time>2019-04-07T11:43:07Z</time>
      </trkpt>
      <trkpt lat="60.60094" lon="7.42963">
        <ele>1238.8</ele>
        <time>2019-04-07T11:43:21Z</time>
      </trkpt>
      <trkpt lat="60.60075" lon="7.42986">
        <ele>1235.43</ele>
        <time>2019-04-07T11:43:26Z</time>
      </trkpt>
      <trkpt lat="60.60071" lon="7.42991">
        <ele>1235.43</ele>
        <time>2019-04-07T11:43:27Z</time>
      </trkpt>
      <trkpt lat="60.60067" lon="7.42997">
        <ele>1234.95</ele>
        <time>2019-04-07T11:43:28Z</time>
      </trkpt>
      <trkpt lat="60.6006" lon="7.43007">
        <ele>1235.91</ele>
        <time>2019-04-07T11:43:30Z</time>
      </trkpt>
      <trkpt lat="60.60044" lon="7.43026">
        <ele>1233.51</ele>
        <time>2019-04-07T11:43:34Z</time>
      </trkpt>
      <trkpt lat="60.6004" lon="7.43031">
        <ele>1233.51</ele>
        <time>2019-04-07T11:43:35Z</time>
      </trkpt>
      <trkpt lat="60.60028" lon="7.43052">
        <ele>1231.11</ele>
        <time>2019-04-07T11:43:39Z</time>
      </trkpt>
      <trkpt lat="60.60019" lon="7.43075">
        <ele>1227.26</ele>
        <time>2019-04-07T11:43:42Z</time>
      </trkpt>
      <trkpt lat="60.5999" lon="7.43116">
        <ele>1226.78</ele>
        <time>2019-04-07T11:43:49Z</time>
      </trkpt>
      <trkpt lat="60.59977" lon="7.43124">
        <ele>1226.78</ele>
        <time>2019-04-07T11:43:52Z</time>
      </trkpt>
      <trkpt lat="60.59958" lon="7.43131">
        <ele>1228.22</ele>
        <time>2019-04-07T11:43:56Z</time>
      </trkpt>
      <trkpt lat="60.59936" lon="7.4313">
        <ele>1228.22</ele>
        <time>2019-04-07T11:44:00Z</time>
      </trkpt>
      <trkpt lat="60.59913" lon="7.43126">
        <ele>1230.62</ele>
        <time>2019-04-07T11:44:04Z</time>
      </trkpt>
      <trkpt lat="60.59901" lon="7.43124">
        <ele>1231.59</ele>
        <time>2019-04-07T11:44:06Z</time>
      </trkpt>
      <trkpt lat="60.5989" lon="7.43122">
        <ele>1235.91</ele>
        <time>2019-04-07T11:44:09Z</time>
      </trkpt>
      <trkpt lat="60.59879" lon="7.43114">
        <ele>1238.8</ele>
        <time>2019-04-07T11:44:14Z</time>
      </trkpt>
      <trkpt lat="60.59879" lon="7.4311">
        <ele>1238.8</ele>
        <time>2019-04-07T11:44:16Z</time>
      </trkpt>
      <trkpt lat="60.59889" lon="7.43138">
        <ele>1238.8</ele>
        <time>2019-04-07T11:44:22Z</time>
      </trkpt>
      <trkpt lat="60.59892" lon="7.43162">
        <ele>1237.35</ele>
        <time>2019-04-07T11:44:24Z</time>
      </trkpt>
      <trkpt lat="60.59898" lon="7.43218">
        <ele>1233.51</ele>
        <time>2019-04-07T11:44:28Z</time>
      </trkpt>
      <trkpt lat="60.59904" lon="7.43296">
        <ele>1228.22</ele>
        <time>2019-04-07T11:44:34Z</time>
      </trkpt>
      <trkpt lat="60.59905" lon="7.43308">
        <ele>1228.22</ele>
        <time>2019-04-07T11:44:35Z</time>
      </trkpt>
      <trkpt lat="60.59923" lon="7.43403">
        <ele>1230.14</ele>
        <time>2019-04-07T11:44:45Z</time>
      </trkpt>
      <trkpt lat="60.59932" lon="7.43441">
        <ele>1232.55</ele>
        <time>2019-04-07T11:44:51Z</time>
      </trkpt>
      <trkpt lat="60.5994" lon="7.43474">
        <ele>1233.99</ele>
        <time>2019-04-07T11:44:56Z</time>
      </trkpt>
      <trkpt lat="60.59948" lon="7.43495">
        <ele>1235.43</ele>
        <time>2019-04-07T11:44:59Z</time>
      </trkpt>
      <trkpt lat="60.59955" lon="7.43519">
        <ele>1236.87</ele>
        <time>2019-04-07T11:45:02Z</time>
      </trkpt>
      <trkpt lat="60.59957" lon="7.43527">
        <ele>1237.83</ele>
        <time>2019-04-07T11:45:03Z</time>
      </trkpt>
      <trkpt lat="60.5997" lon="7.43565">
        <ele>1240.24</ele>
        <time>2019-04-07T11:45:08Z</time>
      </trkpt>
      <trkpt lat="60.59978" lon="7.43589">
        <ele>1241.68</ele>
        <time>2019-04-07T11:45:11Z</time>
      </trkpt>
      <trkpt lat="60.59991" lon="7.43631">
        <ele>1243.6</ele>
        <time>2019-04-07T11:45:16Z</time>
      </trkpt>
      <trkpt lat="60.6" lon="7.43668">
        <ele>1245.04</ele>
        <time>2019-04-07T11:45:20Z</time>
      </trkpt>
      <trkpt lat="60.60007" lon="7.43701">
        <ele>1245.04</ele>
        <time>2019-04-07T11:45:23Z</time>
      </trkpt>
      <trkpt lat="60.60025" lon="7.43839">
        <ele>1245.04</ele>
        <time>2019-04-07T11:45:37Z</time>
      </trkpt>
      <trkpt lat="60.60023" lon="7.43891">
        <ele>1243.6</ele>
        <time>2019-04-07T11:45:44Z</time>
      </trkpt>
      <trkpt lat="60.60024" lon="7.43898">
        <ele>1241.2</ele>
        <time>2019-04-07T11:45:47Z</time>
      </trkpt>
      <trkpt lat="60.6001" lon="7.43899">
        <ele>1240.24</ele>
        <time>2019-04-07T11:45:51Z</time>
      </trkpt>
      <trkpt lat="60.59987" lon="7.43917">
        <ele>1236.39</ele>
        <time>2019-04-07T11:45:55Z</time>
      </trkpt>
      <trkpt lat="60.59966" lon="7.43933">
        <ele>1230.62</ele>
        <time>2019-04-07T11:45:58Z</time>
      </trkpt>
      <trkpt lat="60.59918" lon="7.43968">
        <ele>1227.26</ele>
        <time>2019-04-07T11:46:05Z</time>
      </trkpt>
      <trkpt lat="60.59912" lon="7.43971">
        <ele>1227.26</ele>
        <time>2019-04-07T11:46:06Z</time>
      </trkpt>
      <trkpt lat="60.59882" lon="7.4399">
        <ele>1229.18</ele>
        <time>2019-04-07T11:46:11Z</time>
      </trkpt>
      <trkpt lat="60.59862" lon="7.43998">
        <ele>1227.74</ele>
        <time>2019-04-07T11:46:14Z</time>
      </trkpt>
      <trkpt lat="60.59843" lon="7.44009">
        <ele>1225.34</ele>
        <time>2019-04-07T11:46:17Z</time>
      </trkpt>
      <trkpt lat="60.59837" lon="7.44013">
        <ele>1225.34</ele>
        <time>2019-04-07T11:46:18Z</time>
      </trkpt>
      <trkpt lat="60.59823" lon="7.44017">
        <ele>1226.78</ele>
        <time>2019-04-07T11:46:20Z</time>
      </trkpt>
      <trkpt lat="60.59809" lon="7.44021">
        <ele>1224.86</ele>
        <time>2019-04-07T11:46:22Z</time>
      </trkpt>
      <trkpt lat="60.59799" lon="7.44021">
        <ele>1226.3</ele>
        <time>2019-04-07T11:46:24Z</time>
      </trkpt>
      <trkpt lat="60.59788" lon="7.44015">
        <ele>1227.74</ele>
        <time>2019-04-07T11:46:27Z</time>
      </trkpt>
      <trkpt lat="60.59784" lon="7.44013">
        <ele>1228.22</ele>
        <time>2019-04-07T11:46:28Z</time>
      </trkpt>
      <trkpt lat="60.5976" lon="7.44013">
        <ele>1232.07</ele>
        <time>2019-04-07T11:46:33Z</time>
      </trkpt>
      <trkpt lat="60.59739" lon="7.44019">
        <ele>1231.59</ele>
        <time>2019-04-07T11:46:41Z</time>
      </trkpt>
      <trkpt lat="60.59735" lon="7.44024">
        <ele>1230.14</ele>
        <time>2019-04-07T11:46:42Z</time>
      </trkpt>
      <trkpt lat="60.59732" lon="7.4403">
        <ele>1229.18</ele>
        <time>2019-04-07T11:46:43Z</time>
      </trkpt>
      <trkpt lat="60.59728" lon="7.44036">
        <ele>1229.18</ele>
        <time>2019-04-07T11:46:44Z</time>
      </trkpt>
      <trkpt lat="60.59724" lon="7.44041">
        <ele>1227.74</ele>
        <time>2019-04-07T11:46:45Z</time>
      </trkpt>
      <trkpt lat="60.59719" lon="7.44047">
        <ele>1227.74</ele>
        <time>2019-04-07T11:46:46Z</time>
      </trkpt>
      <trkpt lat="60.59708" lon="7.4406">
        <ele>1226.3</ele>
        <time>2019-04-07T11:46:48Z</time>
      </trkpt>
      <trkpt lat="60.59685" lon="7.44085">
        <ele>1224.38</ele>
        <time>2019-04-07T11:46:52Z</time>
      </trkpt>
      <trkpt lat="60.59673" lon="7.44092">
        <ele>1220.05</ele>
        <time>2019-04-07T11:46:54Z</time>
      </trkpt>
      <trkpt lat="60.59652" lon="7.441">
        <ele>1218.13</ele>
        <time>2019-04-07T11:46:57Z</time>
      </trkpt>
      <trkpt lat="60.59641" lon="7.44103">
        <ele>1222.93</ele>
        <time>2019-04-07T11:46:59Z</time>
      </trkpt>
      <trkpt lat="60.5963" lon="7.44105">
        <ele>1226.78</ele>
        <time>2019-04-07T11:47:01Z</time>
      </trkpt>
      <trkpt lat="60.59625" lon="7.44107">
        <ele>1226.78</ele>
        <time>2019-04-07T11:47:02Z</time>
      </trkpt>
      <trkpt lat="60.59602" lon="7.44115">
        <ele>1228.7</ele>
        <time>2019-04-07T11:47:06Z</time>
      </trkpt>
      <trkpt lat="60.59567" lon="7.44126">
        <ele>1231.59</ele>
        <time>2019-04-07T11:47:13Z</time>
      </trkpt>
      <trkpt lat="60.59553" lon="7.44135">
        <ele>1231.59</ele>
        <time>2019-04-07T11:47:16Z</time>
      </trkpt>
      <trkpt lat="60.59536" lon="7.44146">
        <ele>1228.7</ele>
        <time>2019-04-07T11:47:19Z</time>
      </trkpt>
      <trkpt lat="60.59498" lon="7.44163">
        <ele>1226.3</ele>
        <time>2019-04-07T11:47:25Z</time>
      </trkpt>
      <trkpt lat="60.59444" lon="7.44179">
        <ele>1229.66</ele>
        <time>2019-04-07T11:47:33Z</time>
      </trkpt>
      <trkpt lat="60.59426" lon="7.44182">
        <ele>1233.03</ele>
        <time>2019-04-07T11:47:37Z</time>
      </trkpt>
      <trkpt lat="60.59422" lon="7.44183">
        <ele>1233.03</ele>
        <time>2019-04-07T11:47:38Z</time>
      </trkpt>
      <trkpt lat="60.59396" lon="7.44191">
        <ele>1235.91</ele>
        <time>2019-04-07T11:47:44Z</time>
      </trkpt>
      <trkpt lat="60.5936" lon="7.44209">
        <ele>1236.39</ele>
        <time>2019-04-07T11:47:50Z</time>
      </trkpt>
      <trkpt lat="60.59348" lon="7.44217">
        <ele>1233.03</ele>
        <time>2019-04-07T11:47:52Z</time>
      </trkpt>
      <trkpt lat="60.59337" lon="7.44223">
        <ele>1236.39</ele>
        <time>2019-04-07T11:47:54Z</time>
      </trkpt>
      <trkpt lat="60.5933" lon="7.44225">
        <ele>1236.39</ele>
        <time>2019-04-07T11:47:55Z</time>
      </trkpt>
      <trkpt lat="60.59256" lon="7.4426">
        <ele>1237.83</ele>
        <time>2019-04-07T11:48:08Z</time>
      </trkpt>
      <trkpt lat="60.59238" lon="7.44266">
        <ele>1239.76</ele>
        <time>2019-04-07T11:48:12Z</time>
      </trkpt>
      <trkpt lat="60.59221" lon="7.44274">
        <ele>1240.72</ele>
        <time>2019-04-07T11:48:16Z</time>
      </trkpt>
      <trkpt lat="60.59209" lon="7.44279">
        <ele>1241.2</ele>
        <time>2019-04-07T11:48:19Z</time>
      </trkpt>
      <trkpt lat="60.59201" lon="7.44282">
        <ele>1241.68</ele>
        <time>2019-04-07T11:48:21Z</time>
      </trkpt>
      <trkpt lat="60.59184" lon="7.4429">
        <ele>1241.68</ele>
        <time>2019-04-07T11:48:25Z</time>
      </trkpt>
      <trkpt lat="60.59164" lon="7.44299">
        <ele>1242.64</ele>
        <time>2019-04-07T11:48:29Z</time>
      </trkpt>
      <trkpt lat="60.59119" lon="7.44331">
        <ele>1239.76</ele>
        <time>2019-04-07T11:48:38Z</time>
      </trkpt>
      <trkpt lat="60.59106" lon="7.44339">
        <ele>1241.2</ele>
        <time>2019-04-07T11:48:40Z</time>
      </trkpt>
      <trkpt lat="60.59068" lon="7.44355">
        <ele>1243.6</ele>
        <time>2019-04-07T11:48:46Z</time>
      </trkpt>
      <trkpt lat="60.59035" lon="7.44368">
        <ele>1244.56</ele>
        <time>2019-04-07T11:48:52Z</time>
      </trkpt>
      <trkpt lat="60.5902" lon="7.44374">
        <ele>1240.72</ele>
        <time>2019-04-07T11:48:55Z</time>
      </trkpt>
      <trkpt lat="60.5901" lon="7.44366">
        <ele>1244.08</ele>
        <time>2019-04-07T11:48:58Z</time>
      </trkpt>
      <trkpt lat="60.59006" lon="7.44358">
        <ele>1244.08</ele>
        <time>2019-04-07T11:48:59Z</time>
      </trkpt>
      <trkpt lat="60.59004" lon="7.44348">
        <ele>1244.08</ele>
        <time>2019-04-07T11:49:00Z</time>
      </trkpt>
      <trkpt lat="60.59" lon="7.44331">
        <ele>1245.53</ele>
        <time>2019-04-07T11:49:02Z</time>
      </trkpt>
      <trkpt lat="60.58984" lon="7.44305">
        <ele>1246.97</ele>
        <time>2019-04-07T11:49:06Z</time>
      </trkpt>
      <trkpt lat="60.58964" lon="7.44293">
        <ele>1243.6</ele>
        <time>2019-04-07T11:49:09Z</time>
      </trkpt>
      <trkpt lat="60.58956" lon="7.4429">
        <ele>1243.6</ele>
        <time>2019-04-07T11:49:10Z</time>
      </trkpt>
      <trkpt lat="60.58896" lon="7.4428">
        <ele>1239.76</ele>
        <time>2019-04-07T11:49:17Z</time>
      </trkpt>
      <trkpt lat="60.58887" lon="7.4428">
        <ele>1239.76</ele>
        <time>2019-04-07T11:49:18Z</time>
      </trkpt>
      <trkpt lat="60.5886" lon="7.44279">
        <ele>1244.08</ele>
        <time>2019-04-07T11:49:21Z</time>
      </trkpt>
      <trkpt lat="60.58851" lon="7.44277">
        <ele>1244.08</ele>
        <time>2019-04-07T11:49:22Z</time>
      </trkpt>
      <trkpt lat="60.5881" lon="7.44263">
        <ele>1246.97</ele>
        <time>2019-04-07T11:49:27Z</time>
      </trkpt>
      <trkpt lat="60.58802" lon="7.44261">
        <ele>1246.97</ele>
        <time>2019-04-07T11:49:28Z</time>
      </trkpt>
      <trkpt lat="60.58793" lon="7.44259">
        <ele>1246.97</ele>
        <time>2019-04-07T11:49:29Z</time>
      </trkpt>
      <trkpt lat="60.58757" lon="7.44244">
        <ele>1252.25</ele>
        <time>2019-04-07T11:49:34Z</time>
      </trkpt>
      <trkpt lat="60.5874" lon="7.44228">
        <ele>1256.1</ele>
        <time>2019-04-07T11:49:38Z</time>
      </trkpt>
      <trkpt lat="60.58729" lon="7.44215">
        <ele>1258.98</ele>
        <time>2019-04-07T11:49:42Z</time>
      </trkpt>
      <trkpt lat="60.58727" lon="7.44214">
        <ele>1259.46</ele>
        <time>2019-04-07T11:49:43Z</time>
      </trkpt>
      <trkpt lat="60.58723" lon="7.44209">
        <ele>1259.94</ele>
        <time>2019-04-07T11:49:45Z</time>
      </trkpt>
      <trkpt lat="60.58705" lon="7.4419">
        <ele>1262.35</ele>
        <time>2019-04-07T11:49:53Z</time>
      </trkpt>
      <trkpt lat="60.58692" lon="7.44176">
        <ele>1264.75</ele>
        <time>2019-04-07T11:49:57Z</time>
      </trkpt>
      <trkpt lat="60.58675" lon="7.4415">
        <ele>1269.08</ele>
        <time>2019-04-07T11:50:01Z</time>
      </trkpt>
      <trkpt lat="60.58658" lon="7.44136">
        <ele>1271</ele>
        <time>2019-04-07T11:50:04Z</time>
      </trkpt>
      <trkpt lat="60.58645" lon="7.4413">
        <ele>1273.4</ele>
        <time>2019-04-07T11:50:06Z</time>
      </trkpt>
      <trkpt lat="60.58632" lon="7.44123">
        <ele>1275.33</ele>
        <time>2019-04-07T11:50:08Z</time>
      </trkpt>
      <trkpt lat="60.58621" lon="7.44115">
        <ele>1276.77</ele>
        <time>2019-04-07T11:50:10Z</time>
      </trkpt>
      <trkpt lat="60.58599" lon="7.44097">
        <ele>1281.57</ele>
        <time>2019-04-07T11:50:14Z</time>
      </trkpt>
      <trkpt lat="60.58592" lon="7.44088">
        <ele>1283.5</ele>
        <time>2019-04-07T11:50:16Z</time>
      </trkpt>
      <trkpt lat="60.58575" lon="7.44078">
        <ele>1287.82</ele>
        <time>2019-04-07T11:50:20Z</time>
      </trkpt>
      <trkpt lat="60.58572" lon="7.44075">
        <ele>1288.3</ele>
        <time>2019-04-07T11:50:21Z</time>
      </trkpt>
      <trkpt lat="60.58546" lon="7.4406">
        <ele>1293.11</ele>
        <time>2019-04-07T11:50:27Z</time>
      </trkpt>
      <trkpt lat="60.58535" lon="7.44044">
        <ele>1297.92</ele>
        <time>2019-04-07T11:50:30Z</time>
      </trkpt>
      <trkpt lat="60.58529" lon="7.44035">
        <ele>1300.32</ele>
        <time>2019-04-07T11:50:32Z</time>
      </trkpt>
      <trkpt lat="60.58521" lon="7.44022">
        <ele>1304.17</ele>
        <time>2019-04-07T11:50:36Z</time>
      </trkpt>
      <trkpt lat="60.58521" lon="7.44013">
        <ele>1305.61</ele>
        <time>2019-04-07T11:50:39Z</time>
      </trkpt>
      <trkpt lat="60.58526" lon="7.44018">
        <ele>1306.09</ele>
        <time>2019-04-07T11:50:41Z</time>
      </trkpt>
      <trkpt lat="60.58533" lon="7.44036">
        <ele>1306.09</ele>
        <time>2019-04-07T11:50:43Z</time>
      </trkpt>
      <trkpt lat="60.58543" lon="7.4407">
        <ele>1298.4</ele>
        <time>2019-04-07T11:50:46Z</time>
      </trkpt>
      <trkpt lat="60.58552" lon="7.44089">
        <ele>1295.03</ele>
        <time>2019-04-07T11:50:48Z</time>
      </trkpt>
      <trkpt lat="60.58563" lon="7.44103">
        <ele>1291.19</ele>
        <time>2019-04-07T11:50:50Z</time>
      </trkpt>
      <trkpt lat="60.58567" lon="7.44111">
        <ele>1291.19</ele>
        <time>2019-04-07T11:50:51Z</time>
      </trkpt>
      <trkpt lat="60.58579" lon="7.44123">
        <ele>1287.34</ele>
        <time>2019-04-07T11:50:53Z</time>
      </trkpt>
      <trkpt lat="60.58592" lon="7.44133">
        <ele>1283.98</ele>
        <time>2019-04-07T11:50:55Z</time>
      </trkpt>
      <trkpt lat="60.58604" lon="7.44159">
        <ele>1281.09</ele>
        <time>2019-04-07T11:50:58Z</time>
      </trkpt>
      <trkpt lat="60.58608" lon="7.44181">
        <ele>1276.29</ele>
        <time>2019-04-07T11:51:00Z</time>
      </trkpt>
      <trkpt lat="60.58609" lon="7.44201">
        <ele>1274.36</ele>
        <time>2019-04-07T11:51:02Z</time>
      </trkpt>
      <trkpt lat="60.58607" lon="7.44241">
        <ele>1271.96</ele>
        <time>2019-04-07T11:51:07Z</time>
      </trkpt>
      <trkpt lat="60.58607" lon="7.4426">
        <ele>1271.48</ele>
        <time>2019-04-07T11:51:10Z</time>
      </trkpt>
      <trkpt lat="60.58611" lon="7.44268">
        <ele>1268.12</ele>
        <time>2019-04-07T11:51:14Z</time>
      </trkpt>
      <trkpt lat="60.58603" lon="7.44256">
        <ele>1270.04</ele>
        <time>2019-04-07T11:51:18Z</time>
      </trkpt>
      <trkpt lat="60.58596" lon="7.44254">
        <ele>1271</ele>
        <time>2019-04-07T11:51:20Z</time>
      </trkpt>
      <trkpt lat="60.58575" lon="7.44226">
        <ele>1274.85</ele>
        <time>2019-04-07T11:51:25Z</time>
      </trkpt>
      <trkpt lat="60.5856" lon="7.44222">
        <ele>1279.17</ele>
        <time>2019-04-07T11:51:28Z</time>
      </trkpt>
      <trkpt lat="60.58551" lon="7.44209">
        <ele>1281.57</ele>
        <time>2019-04-07T11:51:31Z</time>
      </trkpt>
      <trkpt lat="60.5854" lon="7.44198">
        <ele>1286.38</ele>
        <time>2019-04-07T11:51:34Z</time>
      </trkpt>
      <trkpt lat="60.5853" lon="7.44195">
        <ele>1288.78</ele>
        <time>2019-04-07T11:51:37Z</time>
      </trkpt>
      <trkpt lat="60.58519" lon="7.44177">
        <ele>1291.19</ele>
        <time>2019-04-07T11:51:40Z</time>
      </trkpt>
      <trkpt lat="60.58507" lon="7.44163">
        <ele>1295.51</ele>
        <time>2019-04-07T11:51:44Z</time>
      </trkpt>
      <trkpt lat="60.58505" lon="7.44158">
        <ele>1295.51</ele>
        <time>2019-04-07T11:51:45Z</time>
      </trkpt>
      <trkpt lat="60.58502" lon="7.4415">
        <ele>1297.44</ele>
        <time>2019-04-07T11:51:47Z</time>
      </trkpt>
      <trkpt lat="60.58497" lon="7.44136">
        <ele>1300.32</ele>
        <time>2019-04-07T11:51:51Z</time>
      </trkpt>
      <trkpt lat="60.5851" lon="7.44149">
        <ele>1298.88</ele>
        <time>2019-04-07T11:51:57Z</time>
      </trkpt>
      <trkpt lat="60.58511" lon="7.44158">
        <ele>1297.92</ele>
        <time>2019-04-07T11:51:58Z</time>
      </trkpt>
      <trkpt lat="60.58515" lon="7.44207">
        <ele>1293.59</ele>
        <time>2019-04-07T11:52:03Z</time>
      </trkpt>
      <trkpt lat="60.58521" lon="7.44241">
        <ele>1291.19</ele>
        <time>2019-04-07T11:52:07Z</time>
      </trkpt>
      <trkpt lat="60.58526" lon="7.44268">
        <ele>1289.27</ele>
        <time>2019-04-07T11:52:10Z</time>
      </trkpt>
      <trkpt lat="60.58531" lon="7.44316">
        <ele>1286.38</ele>
        <time>2019-04-07T11:52:16Z</time>
      </trkpt>
      <trkpt lat="60.58549" lon="7.4435">
        <ele>1282.06</ele>
        <time>2019-04-07T11:52:21Z</time>
      </trkpt>
      <trkpt lat="60.58561" lon="7.44359">
        <ele>1279.17</ele>
        <time>2019-04-07T11:52:23Z</time>
      </trkpt>
      <trkpt lat="60.58572" lon="7.44376">
        <ele>1275.81</ele>
        <time>2019-04-07T11:52:25Z</time>
      </trkpt>
      <trkpt lat="60.58581" lon="7.44397">
        <ele>1273.4</ele>
        <time>2019-04-07T11:52:27Z</time>
      </trkpt>
      <trkpt lat="60.58588" lon="7.44422">
        <ele>1269.56</ele>
        <time>2019-04-07T11:52:29Z</time>
      </trkpt>
      <trkpt lat="60.58591" lon="7.44435">
        <ele>1268.6</ele>
        <time>2019-04-07T11:52:30Z</time>
      </trkpt>
      <trkpt lat="60.58602" lon="7.44496">
        <ele>1261.87</ele>
        <time>2019-04-07T11:52:35Z</time>
      </trkpt>
      <trkpt lat="60.58615" lon="7.44539">
        <ele>1257.54</ele>
        <time>2019-04-07T11:52:40Z</time>
      </trkpt>
      <trkpt lat="60.58619" lon="7.44548">
        <ele>1257.06</ele>
        <time>2019-04-07T11:52:41Z</time>
      </trkpt>
      <trkpt lat="60.58626" lon="7.44565">
        <ele>1252.74</ele>
        <time>2019-04-07T11:52:46Z</time>
      </trkpt>
      <trkpt lat="60.58624" lon="7.44562">
        <ele>1252.74</ele>
        <time>2019-04-07T11:52:47Z</time>
      </trkpt>
      <trkpt lat="60.58619" lon="7.44559">
        <ele>1254.18</ele>
        <time>2019-04-07T11:52:50Z</time>
      </trkpt>
      <trkpt lat="60.58619" lon="7.44557">
        <ele>1255.14</ele>
        <time>2019-04-07T11:52:52Z</time>
      </trkpt>
      <trkpt lat="60.586" lon="7.4453">
        <ele>1258.02</ele>
        <time>2019-04-07T11:53:01Z</time>
      </trkpt>
      <trkpt lat="60.58588" lon="7.44519">
        <ele>1260.91</ele>
        <time>2019-04-07T11:53:06Z</time>
      </trkpt>
      <trkpt lat="60.58581" lon="7.4451">
        <ele>1262.83</ele>
        <time>2019-04-07T11:53:09Z</time>
      </trkpt>
      <trkpt lat="60.58574" lon="7.44513">
        <ele>1265.71</ele>
        <time>2019-04-07T11:53:12Z</time>
      </trkpt>
      <trkpt lat="60.58564" lon="7.44504">
        <ele>1268.6</ele>
        <time>2019-04-07T11:53:16Z</time>
      </trkpt>
      <trkpt lat="60.58551" lon="7.445">
        <ele>1272.92</ele>
        <time>2019-04-07T11:53:22Z</time>
      </trkpt>
      <trkpt lat="60.58547" lon="7.44492">
        <ele>1274.85</ele>
        <time>2019-04-07T11:53:24Z</time>
      </trkpt>
      <trkpt lat="60.58539" lon="7.44494">
        <ele>1278.21</ele>
        <time>2019-04-07T11:53:27Z</time>
      </trkpt>
      <trkpt lat="60.58537" lon="7.44495">
        <ele>1278.21</ele>
        <time>2019-04-07T11:53:28Z</time>
      </trkpt>
      <trkpt lat="60.58524" lon="7.44489">
        <ele>1282.54</ele>
        <time>2019-04-07T11:53:34Z</time>
      </trkpt>
      <trkpt lat="60.58523" lon="7.44489">
        <ele>1282.54</ele>
        <time>2019-04-07T11:53:35Z</time>
      </trkpt>
      <trkpt lat="60.58522" lon="7.44488">
        <ele>1283.02</ele>
        <time>2019-04-07T11:53:37Z</time>
      </trkpt>
      <trkpt lat="60.58516" lon="7.44481">
        <ele>1283.98</ele>
        <time>2019-04-07T11:53:40Z</time>
      </trkpt>
      <trkpt lat="60.58513" lon="7.44479">
        <ele>1285.42</ele>
        <time>2019-04-07T11:53:42Z</time>
      </trkpt>
      <trkpt lat="60.58507" lon="7.44477">
        <ele>1287.34</ele>
        <time>2019-04-07T11:53:45Z</time>
      </trkpt>
      <trkpt lat="60.58503" lon="7.44472">
        <ele>1287.82</ele>
        <time>2019-04-07T11:53:49Z</time>
      </trkpt>
      <trkpt lat="60.58499" lon="7.44467">
        <ele>1289.75</ele>
        <time>2019-04-07T11:53:53Z</time>
      </trkpt>
      <trkpt lat="60.58496" lon="7.44463">
        <ele>1290.71</ele>
        <time>2019-04-07T11:53:57Z</time>
      </trkpt>
      <trkpt lat="60.58493" lon="7.44458">
        <ele>1291.19</ele>
        <time>2019-04-07T11:54:06Z</time>
      </trkpt>
      <trkpt lat="60.58492" lon="7.44454">
        <ele>1291.19</ele>
        <time>2019-04-07T11:54:10Z</time>
      </trkpt>
      <trkpt lat="60.58489" lon="7.44444">
        <ele>1292.63</ele>
        <time>2019-04-07T11:54:16Z</time>
      </trkpt>
      <trkpt lat="60.58488" lon="7.4444">
        <ele>1293.11</ele>
        <time>2019-04-07T11:54:20Z</time>
      </trkpt>
      <trkpt lat="60.58484" lon="7.44435">
        <ele>1294.55</ele>
        <time>2019-04-07T11:54:24Z</time>
      </trkpt>
      <trkpt lat="60.5848" lon="7.44425">
        <ele>1295.51</ele>
        <time>2019-04-07T11:54:30Z</time>
      </trkpt>
      <trkpt lat="60.58474" lon="7.44398">
        <ele>1296.96</ele>
        <time>2019-04-07T11:54:39Z</time>
      </trkpt>
      <trkpt lat="60.58474" lon="7.44398">
        <ele>1296.96</ele>
        <time>2019-04-07T11:54:40Z</time>
      </trkpt>
      <trkpt lat="60.58474" lon="7.44357">
        <ele>1297.44</ele>
        <time>2019-04-07T11:54:47Z</time>
      </trkpt>
      <trkpt lat="60.58474" lon="7.44348">
        <ele>1297.44</ele>
        <time>2019-04-07T11:54:59Z</time>
      </trkpt>
      <trkpt lat="60.58475" lon="7.44339">
        <ele>1297.44</ele>
        <time>2019-04-07T11:55:03Z</time>
      </trkpt>
      <trkpt lat="60.58486" lon="7.4434">
        <ele>1293.11</ele>
        <time>2019-04-07T11:55:07Z</time>
      </trkpt>
      <trkpt lat="60.58498" lon="7.44369">
        <ele>1291.19</ele>
        <time>2019-04-07T11:55:11Z</time>
      </trkpt>
      <trkpt lat="60.58503" lon="7.44387">
        <ele>1290.23</ele>
        <time>2019-04-07T11:55:13Z</time>
      </trkpt>
      <trkpt lat="60.5851" lon="7.44414">
        <ele>1288.3</ele>
        <time>2019-04-07T11:55:16Z</time>
      </trkpt>
      <trkpt lat="60.58512" lon="7.44423">
        <ele>1287.34</ele>
        <time>2019-04-07T11:55:17Z</time>
      </trkpt>
      <trkpt lat="60.58515" lon="7.4444">
        <ele>1286.38</ele>
        <time>2019-04-07T11:55:19Z</time>
      </trkpt>
      <trkpt lat="60.58517" lon="7.44449">
        <ele>1285.42</ele>
        <time>2019-04-07T11:55:20Z</time>
      </trkpt>
      <trkpt lat="60.58525" lon="7.44484">
        <ele>1283.98</ele>
        <time>2019-04-07T11:55:24Z</time>
      </trkpt>
      <trkpt lat="60.58531" lon="7.445">
        <ele>1283.02</ele>
        <time>2019-04-07T11:55:26Z</time>
      </trkpt>
      <trkpt lat="60.58539" lon="7.44529">
        <ele>1281.09</ele>
        <time>2019-04-07T11:55:29Z</time>
      </trkpt>
      <trkpt lat="60.58548" lon="7.44559">
        <ele>1278.21</ele>
        <time>2019-04-07T11:55:32Z</time>
      </trkpt>
      <trkpt lat="60.58556" lon="7.44592">
        <ele>1274.36</ele>
        <time>2019-04-07T11:55:35Z</time>
      </trkpt>
      <trkpt lat="60.58564" lon="7.44623">
        <ele>1270.52</ele>
        <time>2019-04-07T11:55:38Z</time>
      </trkpt>
      <trkpt lat="60.58567" lon="7.44632">
        <ele>1270.52</ele>
        <time>2019-04-07T11:55:39Z</time>
      </trkpt>
      <trkpt lat="60.58576" lon="7.4466">
        <ele>1267.64</ele>
        <time>2019-04-07T11:55:42Z</time>
      </trkpt>
      <trkpt lat="60.58584" lon="7.44678">
        <ele>1265.71</ele>
        <time>2019-04-07T11:55:44Z</time>
      </trkpt>
      <trkpt lat="60.58588" lon="7.44687">
        <ele>1265.71</ele>
        <time>2019-04-07T11:55:45Z</time>
      </trkpt>
      <trkpt lat="60.58599" lon="7.44719">
        <ele>1263.79</ele>
        <time>2019-04-07T11:55:49Z</time>
      </trkpt>
      <trkpt lat="60.58605" lon="7.44733">
        <ele>1262.83</ele>
        <time>2019-04-07T11:55:51Z</time>
      </trkpt>
      <trkpt lat="60.58627" lon="7.44785">
        <ele>1259.94</ele>
        <time>2019-04-07T11:55:57Z</time>
      </trkpt>
      <trkpt lat="60.5865" lon="7.44825">
        <ele>1258.5</ele>
        <time>2019-04-07T11:56:07Z</time>
      </trkpt>
      <trkpt lat="60.58652" lon="7.44831">
        <ele>1258.5</ele>
        <time>2019-04-07T11:56:08Z</time>
      </trkpt>
      <trkpt lat="60.58655" lon="7.44846">
        <ele>1258.02</ele>
        <time>2019-04-07T11:56:10Z</time>
      </trkpt>
      <trkpt lat="60.58667" lon="7.44897">
        <ele>1254.18</ele>
        <time>2019-04-07T11:56:15Z</time>
      </trkpt>
      <trkpt lat="60.58676" lon="7.44943">
        <ele>1251.29</ele>
        <time>2019-04-07T11:56:19Z</time>
      </trkpt>
      <trkpt lat="60.58682" lon="7.44966">
        <ele>1248.89</ele>
        <time>2019-04-07T11:56:21Z</time>
      </trkpt>
      <trkpt lat="60.58691" lon="7.45001">
        <ele>1247.45</ele>
        <time>2019-04-07T11:56:24Z</time>
      </trkpt>
      <trkpt lat="60.58698" lon="7.45034">
        <ele>1246.01</ele>
        <time>2019-04-07T11:56:27Z</time>
      </trkpt>
      <trkpt lat="60.58705" lon="7.45057">
        <ele>1244.08</ele>
        <time>2019-04-07T11:56:29Z</time>
      </trkpt>
      <trkpt lat="60.58709" lon="7.4507">
        <ele>1242.64</ele>
        <time>2019-04-07T11:56:30Z</time>
      </trkpt>
      <trkpt lat="60.58719" lon="7.45111">
        <ele>1236.87</ele>
        <time>2019-04-07T11:56:33Z</time>
      </trkpt>
      <trkpt lat="60.58721" lon="7.45123">
        <ele>1233.99</ele>
        <time>2019-04-07T11:56:34Z</time>
      </trkpt>
      <trkpt lat="60.58727" lon="7.45161">
        <ele>1229.66</ele>
        <time>2019-04-07T11:56:37Z</time>
      </trkpt>
      <trkpt lat="60.58739" lon="7.45198">
        <ele>1222.93</ele>
        <time>2019-04-07T11:56:40Z</time>
      </trkpt>
      <trkpt lat="60.58745" lon="7.45212">
        <ele>1221.01</ele>
        <time>2019-04-07T11:56:41Z</time>
      </trkpt>
      <trkpt lat="60.5877" lon="7.45263">
        <ele>1216.21</ele>
        <time>2019-04-07T11:56:45Z</time>
      </trkpt>
      <trkpt lat="60.58776" lon="7.45275">
        <ele>1216.21</ele>
        <time>2019-04-07T11:56:46Z</time>
      </trkpt>
      <trkpt lat="60.58808" lon="7.45341">
        <ele>1215.24</ele>
        <time>2019-04-07T11:56:53Z</time>
      </trkpt>
      <trkpt lat="60.58828" lon="7.45386">
        <ele>1214.76</ele>
        <time>2019-04-07T11:56:59Z</time>
      </trkpt>
      <trkpt lat="60.58845" lon="7.45416">
        <ele>1215.24</ele>
        <time>2019-04-07T11:57:03Z</time>
      </trkpt>
      <trkpt lat="60.5891" lon="7.45549">
        <ele>1213.32</ele>
        <time>2019-04-07T11:57:17Z</time>
      </trkpt>
      <trkpt lat="60.58961" lon="7.45647">
        <ele>1213.32</ele>
        <time>2019-04-07T11:57:27Z</time>
      </trkpt>
      <trkpt lat="60.59017" lon="7.45785">
        <ele>1213.32</ele>
        <time>2019-04-07T11:57:41Z</time>
      </trkpt>
      <trkpt lat="60.59052" lon="7.45867">
        <ele>1212.84</ele>
        <time>2019-04-07T11:57:50Z</time>
      </trkpt>
      <trkpt lat="60.59101" lon="7.46009">
        <ele>1212.84</ele>
        <time>2019-04-07T11:58:04Z</time>
      </trkpt>
      <trkpt lat="60.5911" lon="7.46037">
        <ele>1212.84</ele>
        <time>2019-04-07T11:58:07Z</time>
      </trkpt>
      <trkpt lat="60.5917" lon="7.46182">
        <ele>1213.8</ele>
        <time>2019-04-07T11:58:21Z</time>
      </trkpt>
      <trkpt lat="60.59178" lon="7.46203">
        <ele>1213.8</ele>
        <time>2019-04-07T11:58:23Z</time>
      </trkpt>
      <trkpt lat="60.59192" lon="7.46232">
        <ele>1213.8</ele>
        <time>2019-04-07T11:58:27Z</time>
      </trkpt>
      <trkpt lat="60.59199" lon="7.46243">
        <ele>1212.36</ele>
        <time>2019-04-07T11:58:29Z</time>
      </trkpt>
      <trkpt lat="60.59221" lon="7.46284">
        <ele>1214.76</ele>
        <time>2019-04-07T11:58:34Z</time>
      </trkpt>
      <trkpt lat="60.59247" lon="7.4633">
        <ele>1213.8</ele>
        <time>2019-04-07T11:58:39Z</time>
      </trkpt>
      <trkpt lat="60.59272" lon="7.4638">
        <ele>1214.76</ele>
        <time>2019-04-07T11:58:44Z</time>
      </trkpt>
      <trkpt lat="60.59281" lon="7.46408">
        <ele>1212.36</ele>
        <time>2019-04-07T11:58:49Z</time>
      </trkpt>
      <trkpt lat="60.59282" lon="7.46404">
        <ele>1211.88</ele>
        <time>2019-04-07T11:58:53Z</time>
      </trkpt>
      <trkpt lat="60.59263" lon="7.46395">
        <ele>1208.51</ele>
        <time>2019-04-07T11:58:58Z</time>
      </trkpt>
      <trkpt lat="60.59257" lon="7.46396">
        <ele>1207.55</ele>
        <time>2019-04-07T11:58:59Z</time>
      </trkpt>
      <trkpt lat="60.59231" lon="7.46407">
        <ele>1207.07</ele>
        <time>2019-04-07T11:59:03Z</time>
      </trkpt>
      <trkpt lat="60.59182" lon="7.46443">
        <ele>1211.4</ele>
        <time>2019-04-07T11:59:11Z</time>
      </trkpt>
      <trkpt lat="60.59175" lon="7.46447">
        <ele>1211.4</ele>
        <time>2019-04-07T11:59:12Z</time>
      </trkpt>
      <trkpt lat="60.59153" lon="7.46459">
        <ele>1213.32</ele>
        <time>2019-04-07T11:59:15Z</time>
      </trkpt>
      <trkpt lat="60.59064" lon="7.46511">
        <ele>1213.32</ele>
        <time>2019-04-07T11:59:26Z</time>
      </trkpt>
      <trkpt lat="60.59034" lon="7.46528">
        <ele>1209.96</ele>
        <time>2019-04-07T11:59:30Z</time>
      </trkpt>
      <trkpt lat="60.58944" lon="7.4659">
        <ele>1209</ele>
        <time>2019-04-07T11:59:43Z</time>
      </trkpt>
      <trkpt lat="60.58918" lon="7.46613">
        <ele>1211.88</ele>
        <time>2019-04-07T11:59:47Z</time>
      </trkpt>
      <trkpt lat="60.58879" lon="7.46635">
        <ele>1209</ele>
        <time>2019-04-07T11:59:52Z</time>
      </trkpt>
      <trkpt lat="60.58872" lon="7.4664">
        <ele>1207.07</ele>
        <time>2019-04-07T11:59:53Z</time>
      </trkpt>
      <trkpt lat="60.58859" lon="7.46653">
        <ele>1210.44</ele>
        <time>2019-04-07T11:59:55Z</time>
      </trkpt>
      <trkpt lat="60.58853" lon="7.46658">
        <ele>1210.44</ele>
        <time>2019-04-07T11:59:56Z</time>
      </trkpt>
      <trkpt lat="60.58848" lon="7.46663">
        <ele>1209</ele>
        <time>2019-04-07T11:59:57Z</time>
      </trkpt>
      <trkpt lat="60.58842" lon="7.46657">
        <ele>1211.88</ele>
        <time>2019-04-07T12:00:00Z</time>
      </trkpt>
      <trkpt lat="60.58855" lon="7.46662">
        <ele>1213.32</ele>
        <time>2019-04-07T12:00:04Z</time>
      </trkpt>
      <trkpt lat="60.58881" lon="7.46696">
        <ele>1214.28</ele>
        <time>2019-04-07T12:00:09Z</time>
      </trkpt>
      <trkpt lat="60.58902" lon="7.46731">
        <ele>1214.76</ele>
        <time>2019-04-07T12:00:13Z</time>
      </trkpt>
      <trkpt lat="60.58921" lon="7.46783">
        <ele>1213.32</ele>
        <time>2019-04-07T12:00:18Z</time>
      </trkpt>
      <trkpt lat="60.58933" lon="7.46812">
        <ele>1213.32</ele>
        <time>2019-04-07T12:00:21Z</time>
      </trkpt>
      <trkpt lat="60.59" lon="7.4693">
        <ele>1213.32</ele>
        <time>2019-04-07T12:00:34Z</time>
      </trkpt>
      <trkpt lat="60.59036" lon="7.46993">
        <ele>1213.32</ele>
        <time>2019-04-07T12:00:41Z</time>
      </trkpt>
      <trkpt lat="60.59079" lon="7.47098">
        <ele>1214.28</ele>
        <time>2019-04-07T12:00:51Z</time>
      </trkpt>
      <trkpt lat="60.59119" lon="7.47248">
        <ele>1212.84</ele>
        <time>2019-04-07T12:01:05Z</time>
      </trkpt>
      <trkpt lat="60.59133" lon="7.47299">
        <ele>1212.36</ele>
        <time>2019-04-07T12:01:12Z</time>
      </trkpt>
      <trkpt lat="60.59136" lon="7.47297">
        <ele>1211.88</ele>
        <time>2019-04-07T12:01:16Z</time>
      </trkpt>
      <trkpt lat="60.59122" lon="7.47292">
        <ele>1209.96</ele>
        <time>2019-04-07T12:01:20Z</time>
      </trkpt>
      <trkpt lat="60.59115" lon="7.47294">
        <ele>1209.96</ele>
        <time>2019-04-07T12:01:21Z</time>
      </trkpt>
      <trkpt lat="60.59102" lon="7.473">
        <ele>1211.88</ele>
        <time>2019-04-07T12:01:23Z</time>
      </trkpt>
      <trkpt lat="60.59096" lon="7.47305">
        <ele>1212.36</ele>
        <time>2019-04-07T12:01:24Z</time>
      </trkpt>
      <trkpt lat="60.59068" lon="7.47338">
        <ele>1212.36</ele>
        <time>2019-04-07T12:01:29Z</time>
      </trkpt>
      <trkpt lat="60.59031" lon="7.47368">
        <ele>1212.84</ele>
        <time>2019-04-07T12:01:35Z</time>
      </trkpt>
      <trkpt lat="60.59013" lon="7.47386">
        <ele>1212.84</ele>
        <time>2019-04-07T12:01:38Z</time>
      </trkpt>
      <trkpt lat="60.59002" lon="7.47409">
        <ele>1210.44</ele>
        <time>2019-04-07T12:01:44Z</time>
      </trkpt>
      <trkpt lat="60.59002" lon="7.47407">
        <ele>1210.44</ele>
        <time>2019-04-07T12:01:46Z</time>
      </trkpt>
      <trkpt lat="60.59013" lon="7.47405">
        <ele>1212.36</ele>
        <time>2019-04-07T12:01:50Z</time>
      </trkpt>
      <trkpt lat="60.59027" lon="7.47428">
        <ele>1212.84</ele>
        <time>2019-04-07T12:01:54Z</time>
      </trkpt>
      <trkpt lat="60.59046" lon="7.47488">
        <ele>1213.32</ele>
        <time>2019-04-07T12:02:01Z</time>
      </trkpt>
      <trkpt lat="60.59102" lon="7.47629">
        <ele>1213.8</ele>
        <time>2019-04-07T12:02:16Z</time>
      </trkpt>
      <trkpt lat="60.5911" lon="7.47645">
        <ele>1213.8</ele>
        <time>2019-04-07T12:02:18Z</time>
      </trkpt>
      <trkpt lat="60.59142" lon="7.47694">
        <ele>1213.8</ele>
        <time>2019-04-07T12:02:24Z</time>
      </trkpt>
      <trkpt lat="60.59187" lon="7.47808">
        <ele>1213.8</ele>
        <time>2019-04-07T12:02:36Z</time>
      </trkpt>
      <trkpt lat="60.592" lon="7.4786">
        <ele>1213.8</ele>
        <time>2019-04-07T12:02:42Z</time>
      </trkpt>
      <trkpt lat="60.59255" lon="7.48">
        <ele>1213.8</ele>
        <time>2019-04-07T12:02:57Z</time>
      </trkpt>
      <trkpt lat="60.59306" lon="7.48181">
        <ele>1212.84</ele>
        <time>2019-04-07T12:03:14Z</time>
      </trkpt>
      <trkpt lat="60.59331" lon="7.48266">
        <ele>1212.84</ele>
        <time>2019-04-07T12:03:22Z</time>
      </trkpt>
      <trkpt lat="60.59352" lon="7.48354">
        <ele>1212.84</ele>
        <time>2019-04-07T12:03:30Z</time>
      </trkpt>
      <trkpt lat="60.59357" lon="7.48387">
        <ele>1212.36</ele>
        <time>2019-04-07T12:03:33Z</time>
      </trkpt>
      <trkpt lat="60.59369" lon="7.48434">
        <ele>1212.36</ele>
        <time>2019-04-07T12:03:38Z</time>
      </trkpt>
      <trkpt lat="60.59378" lon="7.48462">
        <ele>1211.88</ele>
        <time>2019-04-07T12:03:41Z</time>
      </trkpt>
      <trkpt lat="60.594" lon="7.48559">
        <ele>1211.88</ele>
        <time>2019-04-07T12:03:50Z</time>
      </trkpt>
      <trkpt lat="60.5943" lon="7.48692">
        <ele>1211.88</ele>
        <time>2019-04-07T12:04:03Z</time>
      </trkpt>
      <trkpt lat="60.59442" lon="7.48771">
        <ele>1211.88</ele>
        <time>2019-04-07T12:04:11Z</time>
      </trkpt>
      <trkpt lat="60.59445" lon="7.48767">
        <ele>1210.44</ele>
        <time>2019-04-07T12:04:14Z</time>
      </trkpt>
      <trkpt lat="60.59412" lon="7.48756">
        <ele>1210.92</ele>
        <time>2019-04-07T12:04:20Z</time>
      </trkpt>
      <trkpt lat="60.59293" lon="7.48761">
        <ele>1213.8</ele>
        <time>2019-04-07T12:04:37Z</time>
      </trkpt>
      <trkpt lat="60.59239" lon="7.48764">
        <ele>1209.48</ele>
        <time>2019-04-07T12:04:45Z</time>
      </trkpt>
      <trkpt lat="60.59211" lon="7.48773">
        <ele>1210.92</ele>
        <time>2019-04-07T12:04:49Z</time>
      </trkpt>
      <trkpt lat="60.59122" lon="7.48799">
        <ele>1209</ele>
        <time>2019-04-07T12:05:01Z</time>
      </trkpt>
      <trkpt lat="60.59092" lon="7.48808">
        <ele>1210.44</ele>
        <time>2019-04-07T12:05:05Z</time>
      </trkpt>
      <trkpt lat="60.58999" lon="7.4885">
        <ele>1212.36</ele>
        <time>2019-04-07T12:05:19Z</time>
      </trkpt>
      <trkpt lat="60.58978" lon="7.4886">
        <ele>1212.84</ele>
        <time>2019-04-07T12:05:22Z</time>
      </trkpt>
      <trkpt lat="60.58968" lon="7.48857">
        <ele>1211.88</ele>
        <time>2019-04-07T12:05:28Z</time>
      </trkpt>
      <trkpt lat="60.58972" lon="7.48861">
        <ele>1211.88</ele>
        <time>2019-04-07T12:05:31Z</time>
      </trkpt>
      <trkpt lat="60.58975" lon="7.48865">
        <ele>1211.88</ele>
        <time>2019-04-07T12:05:35Z</time>
      </trkpt>
      <trkpt lat="60.58987" lon="7.48868">
        <ele>1211.88</ele>
        <time>2019-04-07T12:05:40Z</time>
      </trkpt>
      <trkpt lat="60.59004" lon="7.48887">
        <ele>1211.88</ele>
        <time>2019-04-07T12:05:44Z</time>
      </trkpt>
      <trkpt lat="60.59014" lon="7.48914">
        <ele>1213.32</ele>
        <time>2019-04-07T12:05:47Z</time>
      </trkpt>
      <trkpt lat="60.59066" lon="7.49045">
        <ele>1212.84</ele>
        <time>2019-04-07T12:06:01Z</time>
      </trkpt>
      <trkpt lat="60.5909" lon="7.49104">
        <ele>1213.32</ele>
        <time>2019-04-07T12:06:06Z</time>
      </trkpt>
      <trkpt lat="60.59112" lon="7.4914">
        <ele>1213.32</ele>
        <time>2019-04-07T12:06:10Z</time>
      </trkpt>
      <trkpt lat="60.59173" lon="7.49255">
        <ele>1213.8</ele>
        <time>2019-04-07T12:06:22Z</time>
      </trkpt>
      <trkpt lat="60.5919" lon="7.49292">
        <ele>1213.8</ele>
        <time>2019-04-07T12:06:26Z</time>
      </trkpt>
      <trkpt lat="60.59215" lon="7.49371">
        <ele>1214.76</ele>
        <time>2019-04-07T12:06:34Z</time>
      </trkpt>
      <trkpt lat="60.59226" lon="7.4941">
        <ele>1214.76</ele>
        <time>2019-04-07T12:06:39Z</time>
      </trkpt>
      <trkpt lat="60.5923" lon="7.49434">
        <ele>1215.24</ele>
        <time>2019-04-07T12:06:42Z</time>
      </trkpt>
      <trkpt lat="60.59263" lon="7.49553">
        <ele>1213.8</ele>
        <time>2019-04-07T12:06:53Z</time>
      </trkpt>
      <trkpt lat="60.59306" lon="7.49723">
        <ele>1212.36</ele>
        <time>2019-04-07T12:07:07Z</time>
      </trkpt>
      <trkpt lat="60.59316" lon="7.49767">
        <ele>1212.36</ele>
        <time>2019-04-07T12:07:11Z</time>
      </trkpt>
      <trkpt lat="60.59325" lon="7.49818">
        <ele>1212.36</ele>
        <time>2019-04-07T12:07:16Z</time>
      </trkpt>
      <trkpt lat="60.59331" lon="7.49849">
        <ele>1212.36</ele>
        <time>2019-04-07T12:07:19Z</time>
      </trkpt>
      <trkpt lat="60.59362" lon="7.49999">
        <ele>1211.88</ele>
        <time>2019-04-07T12:07:32Z</time>
      </trkpt>
      <trkpt lat="60.59401" lon="7.50163">
        <ele>1211.88</ele>
        <time>2019-04-07T12:07:45Z</time>
      </trkpt>
      <trkpt lat="60.59454" lon="7.50349">
        <ele>1211.88</ele>
        <time>2019-04-07T12:07:59Z</time>
      </trkpt>
      <trkpt lat="60.59464" lon="7.50373">
        <ele>1211.88</ele>
        <time>2019-04-07T12:08:01Z</time>
      </trkpt>
      <trkpt lat="60.5951" lon="7.50505">
        <ele>1211.88</ele>
        <time>2019-04-07T12:08:12Z</time>
      </trkpt>
      <trkpt lat="60.59529" lon="7.50557">
        <ele>1211.88</ele>
        <time>2019-04-07T12:08:17Z</time>
      </trkpt>
      <trkpt lat="60.59538" lon="7.50588">
        <ele>1211.88</ele>
        <time>2019-04-07T12:08:20Z</time>
      </trkpt>
      <trkpt lat="60.59544" lon="7.50614">
        <ele>1211.88</ele>
        <time>2019-04-07T12:08:23Z</time>
      </trkpt>
      <trkpt lat="60.59549" lon="7.5063">
        <ele>1211.88</ele>
        <time>2019-04-07T12:08:25Z</time>
      </trkpt>
      <trkpt lat="60.59569" lon="7.50689">
        <ele>1211.88</ele>
        <time>2019-04-07T12:08:32Z</time>
      </trkpt>
      <trkpt lat="60.59578" lon="7.50714">
        <ele>1211.88</ele>
        <time>2019-04-07T12:08:35Z</time>
      </trkpt>
      <trkpt lat="60.59597" lon="7.50757">
        <ele>1211.88</ele>
        <time>2019-04-07T12:08:40Z</time>
      </trkpt>
      <trkpt lat="60.59638" lon="7.50846">
        <ele>1211.88</ele>
        <time>2019-04-07T12:08:49Z</time>
      </trkpt>
      <trkpt lat="60.59652" lon="7.50876">
        <ele>1211.88</ele>
        <time>2019-04-07T12:08:52Z</time>
      </trkpt>
      <trkpt lat="60.59671" lon="7.50916">
        <ele>1211.88</ele>
        <time>2019-04-07T12:08:56Z</time>
      </trkpt>
      <trkpt lat="60.59716" lon="7.51007">
        <ele>1211.88</ele>
        <time>2019-04-07T12:09:06Z</time>
      </trkpt>
      <trkpt lat="60.59724" lon="7.5102">
        <ele>1213.32</ele>
        <time>2019-04-07T12:09:11Z</time>
      </trkpt>
      <trkpt lat="60.59724" lon="7.51007">
        <ele>1211.88</ele>
        <time>2019-04-07T12:09:14Z</time>
      </trkpt>
      <trkpt lat="60.59724" lon="7.50991">
        <ele>1210.44</ele>
        <time>2019-04-07T12:09:24Z</time>
      </trkpt>
      <trkpt lat="60.59724" lon="7.50991">
        <ele>1210.44</ele>
        <time>2019-04-07T12:09:26Z</time>
      </trkpt>
      <trkpt lat="60.5971" lon="7.50968">
        <ele>1210.44</ele>
        <time>2019-04-07T12:09:31Z</time>
      </trkpt>
      <trkpt lat="60.59702" lon="7.50955">
        <ele>1210.44</ele>
        <time>2019-04-07T12:09:33Z</time>
      </trkpt>
      <trkpt lat="60.59645" lon="7.50914">
        <ele>1210.44</ele>
        <time>2019-04-07T12:09:41Z</time>
      </trkpt>
      <trkpt lat="60.59625" lon="7.50871">
        <ele>1211.4</ele>
        <time>2019-04-07T12:09:45Z</time>
      </trkpt>
      <trkpt lat="60.59619" lon="7.50848">
        <ele>1211.4</ele>
        <time>2019-04-07T12:09:47Z</time>
      </trkpt>
      <trkpt lat="60.59562" lon="7.50707">
        <ele>1210.44</ele>
        <time>2019-04-07T12:09:58Z</time>
      </trkpt>
      <trkpt lat="60.59526" lon="7.50569">
        <ele>1209</ele>
        <time>2019-04-07T12:10:07Z</time>
      </trkpt>
      <trkpt lat="60.59503" lon="7.50488">
        <ele>1210.44</ele>
        <time>2019-04-07T12:10:16Z</time>
      </trkpt>
      <trkpt lat="60.59501" lon="7.50482">
        <ele>1210.92</ele>
        <time>2019-04-07T12:10:25Z</time>
      </trkpt>
      <trkpt lat="60.59501" lon="7.50482">
        <ele>1210.92</ele>
        <time>2019-04-07T12:10:47Z</time>
      </trkpt>
      <trkpt lat="60.59501" lon="7.50482">
        <ele>1210.92</ele>
        <time>2019-04-07T12:11:09Z</time>
      </trkpt>
      <trkpt lat="60.59502" lon="7.50477">
        <ele>1210.92</ele>
        <time>2019-04-07T12:11:13Z</time>
      </trkpt>
      <trkpt lat="60.59503" lon="7.5047">
        <ele>1210.92</ele>
        <time>2019-04-07T12:11:27Z</time>
      </trkpt>
      <trkpt lat="60.59502" lon="7.5047">
        <ele>1210.92</ele>
        <time>2019-04-07T12:11:45Z</time>
      </trkpt>
      <trkpt lat="60.59501" lon="7.50465">
        <ele>1210.92</ele>
        <time>2019-04-07T12:12:03Z</time>
      </trkpt>
      <trkpt lat="60.59531" lon="7.50461">
        <ele>1210.92</ele>
        <time>2019-04-07T12:12:11Z</time>
      </trkpt>
      <trkpt lat="60.59554" lon="7.50475">
        <ele>1211.88</ele>
        <time>2019-04-07T12:12:15Z</time>
      </trkpt>
      <trkpt lat="60.5959" lon="7.50529">
        <ele>1211.88</ele>
        <time>2019-04-07T12:12:22Z</time>
      </trkpt>
      <trkpt lat="60.59606" lon="7.50569">
        <ele>1211.88</ele>
        <time>2019-04-07T12:12:27Z</time>
      </trkpt>
      <trkpt lat="60.59625" lon="7.50609">
        <ele>1211.88</ele>
        <time>2019-04-07T12:12:34Z</time>
      </trkpt>
      <trkpt lat="60.59642" lon="7.50651">
        <ele>1211.88</ele>
        <time>2019-04-07T12:12:41Z</time>
      </trkpt>
      <trkpt lat="60.59648" lon="7.50659">
        <ele>1211.88</ele>
        <time>2019-04-07T12:12:43Z</time>
      </trkpt>
      <trkpt lat="60.59664" lon="7.50687">
        <ele>1212.36</ele>
        <time>2019-04-07T12:12:47Z</time>
      </trkpt>
      <trkpt lat="60.59677" lon="7.50715">
        <ele>1213.32</ele>
        <time>2019-04-07T12:12:53Z</time>
      </trkpt>
      <trkpt lat="60.59689" lon="7.50719">
        <ele>1213.8</ele>
        <time>2019-04-07T12:12:59Z</time>
      </trkpt>
      <trkpt lat="60.59691" lon="7.50719">
        <ele>1214.76</ele>
        <time>2019-04-07T12:13:04Z</time>
      </trkpt>
      <trkpt lat="60.59676" lon="7.50708">
        <ele>1212.84</ele>
        <time>2019-04-07T12:13:09Z</time>
      </trkpt>
      <trkpt lat="60.59663" lon="7.5071">
        <ele>1210.44</ele>
        <time>2019-04-07T12:13:11Z</time>
      </trkpt>
      <trkpt lat="60.59649" lon="7.50717">
        <ele>1209.96</ele>
        <time>2019-04-07T12:13:13Z</time>
      </trkpt>
      <trkpt lat="60.5963" lon="7.50734">
        <ele>1212.36</ele>
        <time>2019-04-07T12:13:16Z</time>
      </trkpt>
      <trkpt lat="60.59597" lon="7.5077">
        <ele>1212.84</ele>
        <time>2019-04-07T12:13:21Z</time>
      </trkpt>
      <trkpt lat="60.59553" lon="7.50824">
        <ele>1212.84</ele>
        <time>2019-04-07T12:13:29Z</time>
      </trkpt>
      <trkpt lat="60.59543" lon="7.50834">
        <ele>1212.84</ele>
        <time>2019-04-07T12:13:31Z</time>
      </trkpt>
      <trkpt lat="60.59515" lon="7.50863">
        <ele>1212.84</ele>
        <time>2019-04-07T12:13:36Z</time>
      </trkpt>
      <trkpt lat="60.595" lon="7.50886">
        <ele>1212.84</ele>
        <time>2019-04-07T12:13:39Z</time>
      </trkpt>
      <trkpt lat="60.59488" lon="7.5091">
        <ele>1212.84</ele>
        <time>2019-04-07T12:13:42Z</time>
      </trkpt>
      <trkpt lat="60.59483" lon="7.50916">
        <ele>1211.4</ele>
        <time>2019-04-07T12:13:48Z</time>
      </trkpt>
      <trkpt lat="60.59486" lon="7.50918">
        <ele>1211.4</ele>
        <time>2019-04-07T12:13:49Z</time>
      </trkpt>
      <trkpt lat="60.59512" lon="7.50915">
        <ele>1211.4</ele>
        <time>2019-04-07T12:13:58Z</time>
      </trkpt>
      <trkpt lat="60.59555" lon="7.50906">
        <ele>1212.84</ele>
        <time>2019-04-07T12:14:04Z</time>
      </trkpt>
      <trkpt lat="60.5958" lon="7.50901">
        <ele>1213.32</ele>
        <time>2019-04-07T12:14:07Z</time>
      </trkpt>
      <trkpt lat="60.59603" lon="7.50898">
        <ele>1213.32</ele>
        <time>2019-04-07T12:14:10Z</time>
      </trkpt>
      <trkpt lat="60.59647" lon="7.50911">
        <ele>1212.36</ele>
        <time>2019-04-07T12:14:16Z</time>
      </trkpt>
      <trkpt lat="60.59679" lon="7.50926">
        <ele>1212.36</ele>
        <time>2019-04-07T12:14:20Z</time>
      </trkpt>
      <trkpt lat="60.59716" lon="7.50935">
        <ele>1211.4</ele>
        <time>2019-04-07T12:14:29Z</time>
      </trkpt>
      <trkpt lat="60.5972" lon="7.50939">
        <ele>1210.92</ele>
        <time>2019-04-07T12:14:41Z</time>
      </trkpt>
      <trkpt lat="60.59727" lon="7.50936">
        <ele>1210.92</ele>
        <time>2019-04-07T12:14:54Z</time>
      </trkpt>
      <trkpt lat="60.59729" lon="7.50935">
        <ele>1210.92</ele>
        <time>2019-04-07T12:15:05Z</time>
      </trkpt>
      <trkpt lat="60.59728" lon="7.50936">
        <ele>1210.92</ele>
        <time>2019-04-07T12:15:07Z</time>
      </trkpt>
      <trkpt lat="60.59735" lon="7.50942">
        <ele>1212.36</ele>
        <time>2019-04-07T12:15:12Z</time>
      </trkpt>
      <trkpt lat="60.59737" lon="7.50948">
        <ele>1212.36</ele>
        <time>2019-04-07T12:15:25Z</time>
      </trkpt>
      <trkpt lat="60.59736" lon="7.50947">
        <ele>1212.36</ele>
        <time>2019-04-07T12:15:44Z</time>
      </trkpt>
      <trkpt lat="60.59737" lon="7.50938">
        <ele>1212.36</ele>
        <time>2019-04-07T12:16:03Z</time>
      </trkpt>
      <trkpt lat="60.59737" lon="7.50934">
        <ele>1212.36</ele>
        <time>2019-04-07T12:16:06Z</time>
      </trkpt>
      <trkpt lat="60.59739" lon="7.50914">
        <ele>1212.36</ele>
        <time>2019-04-07T12:16:23Z</time>
      </trkpt>
      <trkpt lat="60.59739" lon="7.50915">
        <ele>1212.84</ele>
        <time>2019-04-07T12:16:42Z</time>
      </trkpt>
      <trkpt lat="60.59739" lon="7.50916">
        <ele>1212.84</ele>
        <time>2019-04-07T12:16:55Z</time>
      </trkpt>
      <trkpt lat="60.59739" lon="7.50909">
        <ele>1212.36</ele>
        <time>2019-04-07T12:17:10Z</time>
      </trkpt>
      <trkpt lat="60.5974" lon="7.50905">
        <ele>1212.36</ele>
        <time>2019-04-07T12:17:22Z</time>
      </trkpt>
      <trkpt lat="60.59739" lon="7.50904">
        <ele>1212.36</ele>
        <time>2019-04-07T12:17:35Z</time>
      </trkpt>
      <trkpt lat="60.59739" lon="7.50907">
        <ele>1212.36</ele>
        <time>2019-04-07T12:17:47Z</time>
      </trkpt>
      <trkpt lat="60.59739" lon="7.50909">
        <ele>1212.36</ele>
        <time>2019-04-07T12:18:00Z</time>
      </trkpt>
      <trkpt lat="60.59739" lon="7.50909">
        <ele>1212.84</ele>
        <time>2019-04-07T12:18:08Z</time>
      </trkpt>
      <trkpt lat="60.59738" lon="7.50908">
        <ele>1212.84</ele>
        <time>2019-04-07T12:18:18Z</time>
      </trkpt>
      <trkpt lat="60.59737" lon="7.50906">
        <ele>1212.36</ele>
        <time>2019-04-07T12:18:31Z</time>
      </trkpt>
      <trkpt lat="60.59738" lon="7.50895">
        <ele>1212.36</ele>
        <time>2019-04-07T12:18:47Z</time>
      </trkpt>
      <trkpt lat="60.5974" lon="7.50887">
        <ele>1213.32</ele>
        <time>2019-04-07T12:18:59Z</time>
      </trkpt>
      <trkpt lat="60.5974" lon="7.50887">
        <ele>1212.36</ele>
        <time>2019-04-07T12:19:03Z</time>
      </trkpt>
      <trkpt lat="60.59741" lon="7.50946">
        <ele>1207.55</ele>
        <time>2019-04-07T13:45:33Z</time>
      </trkpt>
      <trkpt lat="60.59742" lon="7.50956">
        <ele>1207.55</ele>
        <time>2019-04-07T13:45:47Z</time>
      </trkpt>
      <trkpt lat="60.59742" lon="7.50963">
        <ele>1207.55</ele>
        <time>2019-04-07T13:45:58Z</time>
      </trkpt>
      <trkpt lat="60.5974" lon="7.50965">
        <ele>1207.55</ele>
        <time>2019-04-07T13:46:08Z</time>
      </trkpt>
      <trkpt lat="60.59738" lon="7.5096">
        <ele>1207.55</ele>
        <time>2019-04-07T13:46:13Z</time>
      </trkpt>
      <trkpt lat="60.59738" lon="7.50955">
        <ele>1207.55</ele>
        <time>2019-04-07T13:46:19Z</time>
      </trkpt>
      <trkpt lat="60.59737" lon="7.50948">
        <ele>1207.55</ele>
        <time>2019-04-07T13:46:30Z</time>
      </trkpt>
      <trkpt lat="60.59737" lon="7.50947">
        <ele>1207.55</ele>
        <time>2019-04-07T13:46:45Z</time>
      </trkpt>
      <trkpt lat="60.59739" lon="7.50949">
        <ele>1207.55</ele>
        <time>2019-04-07T13:47:06Z</time>
      </trkpt>
      <trkpt lat="60.59739" lon="7.50948">
        <ele>1208.03</ele>
        <time>2019-04-07T13:47:20Z</time>
      </trkpt>
      <trkpt lat="60.59737" lon="7.50948">
        <ele>1207.07</ele>
        <time>2019-04-07T13:47:48Z</time>
      </trkpt>
      <trkpt lat="60.59737" lon="7.50947">
        <ele>1209</ele>
        <time>2019-04-07T13:47:55Z</time>
      </trkpt>
      <trkpt lat="60.59735" lon="7.50941">
        <ele>1207.55</ele>
        <time>2019-04-07T13:48:07Z</time>
      </trkpt>
      <trkpt lat="60.59735" lon="7.50939">
        <ele>1207.55</ele>
        <time>2019-04-07T13:48:10Z</time>
      </trkpt>
      <trkpt lat="60.59727" lon="7.50934">
        <ele>1207.07</ele>
        <time>2019-04-07T13:48:14Z</time>
      </trkpt>
      <trkpt lat="60.59698" lon="7.50897">
        <ele>1207.07</ele>
        <time>2019-04-07T13:48:25Z</time>
      </trkpt>
      <trkpt lat="60.59691" lon="7.50877">
        <ele>1208.51</ele>
        <time>2019-04-07T13:48:29Z</time>
      </trkpt>
      <trkpt lat="60.59682" lon="7.50863">
        <ele>1208.51</ele>
        <time>2019-04-07T13:48:33Z</time>
      </trkpt>
      <trkpt lat="60.59672" lon="7.50837">
        <ele>1208.51</ele>
        <time>2019-04-07T13:48:37Z</time>
      </trkpt>
      <trkpt lat="60.59657" lon="7.50806">
        <ele>1206.59</ele>
        <time>2019-04-07T13:48:41Z</time>
      </trkpt>
      <trkpt lat="60.59631" lon="7.50777">
        <ele>1204.19</ele>
        <time>2019-04-07T13:48:45Z</time>
      </trkpt>
      <trkpt lat="60.59543" lon="7.50702">
        <ele>1204.19</ele>
        <time>2019-04-07T13:48:58Z</time>
      </trkpt>
      <trkpt lat="60.59495" lon="7.50681">
        <ele>1204.19</ele>
        <time>2019-04-07T13:49:05Z</time>
      </trkpt>
      <trkpt lat="60.59468" lon="7.5064">
        <ele>1206.11</ele>
        <time>2019-04-07T13:49:12Z</time>
      </trkpt>
      <trkpt lat="60.59435" lon="7.50624">
        <ele>1205.15</ele>
        <time>2019-04-07T13:49:18Z</time>
      </trkpt>
      <trkpt lat="60.59417" lon="7.50614">
        <ele>1205.15</ele>
        <time>2019-04-07T13:49:21Z</time>
      </trkpt>
      <trkpt lat="60.59398" lon="7.50608">
        <ele>1205.15</ele>
        <time>2019-04-07T13:49:24Z</time>
      </trkpt>
      <trkpt lat="60.59351" lon="7.50618">
        <ele>1204.67</ele>
        <time>2019-04-07T13:49:31Z</time>
      </trkpt>
      <trkpt lat="60.59334" lon="7.50623">
        <ele>1206.11</ele>
        <time>2019-04-07T13:49:34Z</time>
      </trkpt>
      <trkpt lat="60.59323" lon="7.50625">
        <ele>1208.03</ele>
        <time>2019-04-07T13:49:37Z</time>
      </trkpt>
      <trkpt lat="60.59319" lon="7.50617">
        <ele>1209.96</ele>
        <time>2019-04-07T13:49:42Z</time>
      </trkpt>
      <trkpt lat="60.59332" lon="7.50611">
        <ele>1209.96</ele>
        <time>2019-04-07T13:49:46Z</time>
      </trkpt>
      <trkpt lat="60.5935" lon="7.50615">
        <ele>1209.96</ele>
        <time>2019-04-07T13:49:49Z</time>
      </trkpt>
      <trkpt lat="60.59363" lon="7.50614">
        <ele>1208.03</ele>
        <time>2019-04-07T13:49:51Z</time>
      </trkpt>
      <trkpt lat="60.59403" lon="7.50605">
        <ele>1208.03</ele>
        <time>2019-04-07T13:49:57Z</time>
      </trkpt>
      <trkpt lat="60.59492" lon="7.50612">
        <ele>1208.51</ele>
        <time>2019-04-07T13:50:11Z</time>
      </trkpt>
      <trkpt lat="60.59498" lon="7.50613">
        <ele>1208.51</ele>
        <time>2019-04-07T13:50:12Z</time>
      </trkpt>
      <trkpt lat="60.59516" lon="7.5062">
        <ele>1208.51</ele>
        <time>2019-04-07T13:50:15Z</time>
      </trkpt>
      <trkpt lat="60.5954" lon="7.50644">
        <ele>1208.03</ele>
        <time>2019-04-07T13:50:20Z</time>
      </trkpt>
      <trkpt lat="60.59549" lon="7.50656">
        <ele>1208.03</ele>
        <time>2019-04-07T13:50:22Z</time>
      </trkpt>
      <trkpt lat="60.59562" lon="7.50672">
        <ele>1208.03</ele>
        <time>2019-04-07T13:50:25Z</time>
      </trkpt>
      <trkpt lat="60.59588" lon="7.50697">
        <ele>1207.55</ele>
        <time>2019-04-07T13:50:33Z</time>
      </trkpt>
      <trkpt lat="60.59591" lon="7.50698">
        <ele>1207.55</ele>
        <time>2019-04-07T13:50:34Z</time>
      </trkpt>
      <trkpt lat="60.59603" lon="7.50708">
        <ele>1207.55</ele>
        <time>2019-04-07T13:50:37Z</time>
      </trkpt>
      <trkpt lat="60.5962" lon="7.50736">
        <ele>1207.55</ele>
        <time>2019-04-07T13:50:42Z</time>
      </trkpt>
      <trkpt lat="60.59626" lon="7.50755">
        <ele>1207.55</ele>
        <time>2019-04-07T13:50:45Z</time>
      </trkpt>
      <trkpt lat="60.59629" lon="7.50757">
        <ele>1207.55</ele>
        <time>2019-04-07T13:50:48Z</time>
      </trkpt>
      <trkpt lat="60.59621" lon="7.50739">
        <ele>1206.59</ele>
        <time>2019-04-07T13:50:53Z</time>
      </trkpt>
      <trkpt lat="60.59602" lon="7.50712">
        <ele>1206.59</ele>
        <time>2019-04-07T13:50:59Z</time>
      </trkpt>
      <trkpt lat="60.59585" lon="7.50696">
        <ele>1206.59</ele>
        <time>2019-04-07T13:51:03Z</time>
      </trkpt>
      <trkpt lat="60.59575" lon="7.50691">
        <ele>1205.63</ele>
        <time>2019-04-07T13:51:05Z</time>
      </trkpt>
      <trkpt lat="60.59528" lon="7.507">
        <ele>1204.67</ele>
        <time>2019-04-07T13:51:13Z</time>
      </trkpt>
      <trkpt lat="60.59509" lon="7.50706">
        <ele>1204.67</ele>
        <time>2019-04-07T13:51:16Z</time>
      </trkpt>
      <trkpt lat="60.5944" lon="7.50725">
        <ele>1206.11</ele>
        <time>2019-04-07T13:51:27Z</time>
      </trkpt>
      <trkpt lat="60.59374" lon="7.5075">
        <ele>1206.59</ele>
        <time>2019-04-07T13:51:38Z</time>
      </trkpt>
      <trkpt lat="60.59363" lon="7.50758">
        <ele>1206.59</ele>
        <time>2019-04-07T13:51:40Z</time>
      </trkpt>
      <trkpt lat="60.59331" lon="7.50774">
        <ele>1209.48</ele>
        <time>2019-04-07T13:51:49Z</time>
      </trkpt>
      <trkpt lat="60.59318" lon="7.50768">
        <ele>1210.44</ele>
        <time>2019-04-07T13:51:54Z</time>
      </trkpt>
      <trkpt lat="60.59315" lon="7.50761">
        <ele>1210.92</ele>
        <time>2019-04-07T13:51:59Z</time>
      </trkpt>
      <trkpt lat="60.59323" lon="7.50765">
        <ele>1210.92</ele>
        <time>2019-04-07T13:52:03Z</time>
      </trkpt>
      <trkpt lat="60.5936" lon="7.50812">
        <ele>1210.92</ele>
        <time>2019-04-07T13:52:16Z</time>
      </trkpt>
      <trkpt lat="60.59387" lon="7.50844">
        <ele>1209.48</ele>
        <time>2019-04-07T13:52:26Z</time>
      </trkpt>
      <trkpt lat="60.59391" lon="7.50848">
        <ele>1209.48</ele>
        <time>2019-04-07T13:52:28Z</time>
      </trkpt>
      <trkpt lat="60.59413" lon="7.50845">
        <ele>1209</ele>
        <time>2019-04-07T13:52:34Z</time>
      </trkpt>
      <trkpt lat="60.59428" lon="7.5085">
        <ele>1209</ele>
        <time>2019-04-07T13:52:37Z</time>
      </trkpt>
      <trkpt lat="60.59442" lon="7.50856">
        <ele>1209.96</ele>
        <time>2019-04-07T13:52:40Z</time>
      </trkpt>
      <trkpt lat="60.59446" lon="7.5086">
        <ele>1210.44</ele>
        <time>2019-04-07T13:52:41Z</time>
      </trkpt>
      <trkpt lat="60.5946" lon="7.50874">
        <ele>1209.96</ele>
        <time>2019-04-07T13:52:44Z</time>
      </trkpt>
      <trkpt lat="60.59474" lon="7.50898">
        <ele>1209.96</ele>
        <time>2019-04-07T13:52:48Z</time>
      </trkpt>
      <trkpt lat="60.59488" lon="7.50936">
        <ele>1209</ele>
        <time>2019-04-07T13:52:54Z</time>
      </trkpt>
      <trkpt lat="60.59491" lon="7.50937">
        <ele>1208.51</ele>
        <time>2019-04-07T13:52:57Z</time>
      </trkpt>
      <trkpt lat="60.59481" lon="7.50929">
        <ele>1208.03</ele>
        <time>2019-04-07T13:53:01Z</time>
      </trkpt>
      <trkpt lat="60.5946" lon="7.50931">
        <ele>1207.55</ele>
        <time>2019-04-07T13:53:06Z</time>
      </trkpt>
      <trkpt lat="60.59441" lon="7.50943">
        <ele>1208.51</ele>
        <time>2019-04-07T13:53:10Z</time>
      </trkpt>
      <trkpt lat="60.59425" lon="7.50947">
        <ele>1209.96</ele>
        <time>2019-04-07T13:53:14Z</time>
      </trkpt>
      <trkpt lat="60.59411" lon="7.50951">
        <ele>1209.96</ele>
        <time>2019-04-07T13:53:17Z</time>
      </trkpt>
      <trkpt lat="60.59388" lon="7.50944">
        <ele>1210.44</ele>
        <time>2019-04-07T13:53:22Z</time>
      </trkpt>
      <trkpt lat="60.59364" lon="7.50932">
        <ele>1209.48</ele>
        <time>2019-04-07T13:53:26Z</time>
      </trkpt>
      <trkpt lat="60.59342" lon="7.50924">
        <ele>1207.55</ele>
        <time>2019-04-07T13:53:29Z</time>
      </trkpt>
      <trkpt lat="60.59305" lon="7.50909">
        <ele>1210.92</ele>
        <time>2019-04-07T13:53:35Z</time>
      </trkpt>
      <trkpt lat="60.59252" lon="7.50888">
        <ele>1208.03</ele>
        <time>2019-04-07T13:53:43Z</time>
      </trkpt>
      <trkpt lat="60.5921" lon="7.50871">
        <ele>1210.92</ele>
        <time>2019-04-07T13:53:49Z</time>
      </trkpt>
      <trkpt lat="60.5913" lon="7.50831">
        <ele>1212.84</ele>
        <time>2019-04-07T13:54:01Z</time>
      </trkpt>
      <trkpt lat="60.59098" lon="7.50811">
        <ele>1213.32</ele>
        <time>2019-04-07T13:54:06Z</time>
      </trkpt>
      <trkpt lat="60.59079" lon="7.50796">
        <ele>1213.8</ele>
        <time>2019-04-07T13:54:09Z</time>
      </trkpt>
      <trkpt lat="60.59059" lon="7.50778">
        <ele>1215.24</ele>
        <time>2019-04-07T13:54:13Z</time>
      </trkpt>
      <trkpt lat="60.59039" lon="7.50761">
        <ele>1217.17</ele>
        <time>2019-04-07T13:54:18Z</time>
      </trkpt>
      <trkpt lat="60.59017" lon="7.50724">
        <ele>1220.53</ele>
        <time>2019-04-07T13:54:28Z</time>
      </trkpt>
      <trkpt lat="60.59013" lon="7.50713">
        <ele>1221.01</ele>
        <time>2019-04-07T13:54:32Z</time>
      </trkpt>
      <trkpt lat="60.58997" lon="7.50693">
        <ele>1223.42</ele>
        <time>2019-04-07T13:54:41Z</time>
      </trkpt>
      <trkpt lat="60.58976" lon="7.50669">
        <ele>1225.82</ele>
        <time>2019-04-07T13:54:51Z</time>
      </trkpt>
      <trkpt lat="60.58951" lon="7.50652">
        <ele>1226.78</ele>
        <time>2019-04-07T13:55:00Z</time>
      </trkpt>
      <trkpt lat="60.58947" lon="7.5065">
        <ele>1226.78</ele>
        <time>2019-04-07T13:55:01Z</time>
      </trkpt>
      <trkpt lat="60.58934" lon="7.50644">
        <ele>1226.78</ele>
        <time>2019-04-07T13:55:04Z</time>
      </trkpt>
      <trkpt lat="60.58919" lon="7.50619">
        <ele>1228.7</ele>
        <time>2019-04-07T13:55:09Z</time>
      </trkpt>
      <trkpt lat="60.5891" lon="7.50605">
        <ele>1229.66</ele>
        <time>2019-04-07T13:55:14Z</time>
      </trkpt>
      <trkpt lat="60.58886" lon="7.50578">
        <ele>1230.62</ele>
        <time>2019-04-07T13:55:23Z</time>
      </trkpt>
      <trkpt lat="60.58873" lon="7.50542">
        <ele>1233.03</ele>
        <time>2019-04-07T13:55:32Z</time>
      </trkpt>
      <trkpt lat="60.58872" lon="7.50528">
        <ele>1234.95</ele>
        <time>2019-04-07T13:55:39Z</time>
      </trkpt>
      <trkpt lat="60.58879" lon="7.5051">
        <ele>1235.43</ele>
        <time>2019-04-07T13:55:46Z</time>
      </trkpt>
      <trkpt lat="60.58891" lon="7.50532">
        <ele>1235.43</ele>
        <time>2019-04-07T13:55:51Z</time>
      </trkpt>
      <trkpt lat="60.58895" lon="7.50554">
        <ele>1235.43</ele>
        <time>2019-04-07T13:55:54Z</time>
      </trkpt>
      <trkpt lat="60.58901" lon="7.50579">
        <ele>1233.51</ele>
        <time>2019-04-07T13:55:57Z</time>
      </trkpt>
      <trkpt lat="60.58908" lon="7.50617">
        <ele>1231.59</ele>
        <time>2019-04-07T13:56:01Z</time>
      </trkpt>
      <trkpt lat="60.58919" lon="7.5068">
        <ele>1227.74</ele>
        <time>2019-04-07T13:56:07Z</time>
      </trkpt>
      <trkpt lat="60.58924" lon="7.50732">
        <ele>1224.38</ele>
        <time>2019-04-07T13:56:12Z</time>
      </trkpt>
      <trkpt lat="60.58926" lon="7.50749">
        <ele>1223.9</ele>
        <time>2019-04-07T13:56:14Z</time>
      </trkpt>
      <trkpt lat="60.58927" lon="7.50773">
        <ele>1222.45</ele>
        <time>2019-04-07T13:56:17Z</time>
      </trkpt>
      <trkpt lat="60.58927" lon="7.50782">
        <ele>1220.53</ele>
        <time>2019-04-07T13:56:22Z</time>
      </trkpt>
      <trkpt lat="60.58928" lon="7.50773">
        <ele>1220.53</ele>
        <time>2019-04-07T13:56:28Z</time>
      </trkpt>
      <trkpt lat="60.58922" lon="7.50768">
        <ele>1220.53</ele>
        <time>2019-04-07T13:56:32Z</time>
      </trkpt>
      <trkpt lat="60.58906" lon="7.50751">
        <ele>1220.05</ele>
        <time>2019-04-07T13:56:37Z</time>
      </trkpt>
      <trkpt lat="60.58892" lon="7.50741">
        <ele>1219.57</ele>
        <time>2019-04-07T13:56:40Z</time>
      </trkpt>
      <trkpt lat="60.58876" lon="7.50736">
        <ele>1219.09</ele>
        <time>2019-04-07T13:56:43Z</time>
      </trkpt>
      <trkpt lat="60.58858" lon="7.50728">
        <ele>1221.49</ele>
        <time>2019-04-07T13:56:47Z</time>
      </trkpt>
      <trkpt lat="60.58847" lon="7.50724">
        <ele>1222.93</ele>
        <time>2019-04-07T13:56:52Z</time>
      </trkpt>
      <trkpt lat="60.58842" lon="7.50712">
        <ele>1223.9</ele>
        <time>2019-04-07T13:57:02Z</time>
      </trkpt>
      <trkpt lat="60.5885" lon="7.50711">
        <ele>1223.9</ele>
        <time>2019-04-07T13:57:06Z</time>
      </trkpt>
      <trkpt lat="60.5887" lon="7.50693">
        <ele>1223.9</ele>
        <time>2019-04-07T13:57:11Z</time>
      </trkpt>
      <trkpt lat="60.58892" lon="7.50674">
        <ele>1225.34</ele>
        <time>2019-04-07T13:57:21Z</time>
      </trkpt>
      <trkpt lat="60.58892" lon="7.50673">
        <ele>1225.34</ele>
        <time>2019-04-07T13:57:22Z</time>
      </trkpt>
      <trkpt lat="60.58891" lon="7.50663">
        <ele>1225.82</ele>
        <time>2019-04-07T13:57:29Z</time>
      </trkpt>
      <trkpt lat="60.58874" lon="7.50632">
        <ele>1227.74</ele>
        <time>2019-04-07T13:57:40Z</time>
      </trkpt>
      <trkpt lat="60.58873" lon="7.50628">
        <ele>1228.22</ele>
        <time>2019-04-07T13:57:42Z</time>
      </trkpt>
      <trkpt lat="60.58866" lon="7.50622">
        <ele>1228.22</ele>
        <time>2019-04-07T13:57:46Z</time>
      </trkpt>
      <trkpt lat="60.58857" lon="7.5061">
        <ele>1229.66</ele>
        <time>2019-04-07T13:57:51Z</time>
      </trkpt>
      <trkpt lat="60.58843" lon="7.50593">
        <ele>1232.55</ele>
        <time>2019-04-07T13:58:00Z</time>
      </trkpt>
      <trkpt lat="60.58836" lon="7.50579">
        <ele>1233.51</ele>
        <time>2019-04-07T13:58:07Z</time>
      </trkpt>
      <trkpt lat="60.58827" lon="7.50571">
        <ele>1234.95</ele>
        <time>2019-04-07T13:58:13Z</time>
      </trkpt>
      <trkpt lat="60.58821" lon="7.50551">
        <ele>1235.91</ele>
        <time>2019-04-07T13:58:19Z</time>
      </trkpt>
      <trkpt lat="60.58808" lon="7.50542">
        <ele>1236.39</ele>
        <time>2019-04-07T13:58:25Z</time>
      </trkpt>
      <trkpt lat="60.58779" lon="7.50526">
        <ele>1237.83</ele>
        <time>2019-04-07T13:58:35Z</time>
      </trkpt>
      <trkpt lat="60.58755" lon="7.50525">
        <ele>1237.83</ele>
        <time>2019-04-07T13:58:42Z</time>
      </trkpt>
      <trkpt lat="60.58753" lon="7.5052">
        <ele>1239.76</ele>
        <time>2019-04-07T13:58:46Z</time>
      </trkpt>
      <trkpt lat="60.58749" lon="7.50516">
        <ele>1240.24</ele>
        <time>2019-04-07T13:58:53Z</time>
      </trkpt>
      <trkpt lat="60.58743" lon="7.50512">
        <ele>1240.24</ele>
        <time>2019-04-07T13:58:57Z</time>
      </trkpt>
      <trkpt lat="60.58739" lon="7.5051">
        <ele>1241.2</ele>
        <time>2019-04-07T13:59:01Z</time>
      </trkpt>
      <trkpt lat="60.58736" lon="7.50499">
        <ele>1242.64</ele>
        <time>2019-04-07T13:59:05Z</time>
      </trkpt>
      <trkpt lat="60.5872" lon="7.50505">
        <ele>1243.12</ele>
        <time>2019-04-07T13:59:12Z</time>
      </trkpt>
      <trkpt lat="60.58708" lon="7.50517">
        <ele>1241.2</ele>
        <time>2019-04-07T13:59:15Z</time>
      </trkpt>
      <trkpt lat="60.58701" lon="7.50524">
        <ele>1241.2</ele>
        <time>2019-04-07T13:59:17Z</time>
      </trkpt>
      <trkpt lat="60.58679" lon="7.5055">
        <ele>1243.6</ele>
        <time>2019-04-07T13:59:28Z</time>
      </trkpt>
      <trkpt lat="60.58679" lon="7.50548">
        <ele>1243.6</ele>
        <time>2019-04-07T13:59:32Z</time>
      </trkpt>
      <trkpt lat="60.58677" lon="7.50545">
        <ele>1244.56</ele>
        <time>2019-04-07T13:59:37Z</time>
      </trkpt>
      <trkpt lat="60.58675" lon="7.50535">
        <ele>1245.53</ele>
        <time>2019-04-07T13:59:42Z</time>
      </trkpt>
      <trkpt lat="60.58674" lon="7.5053">
        <ele>1246.97</ele>
        <time>2019-04-07T13:59:47Z</time>
      </trkpt>
      <trkpt lat="60.58672" lon="7.50523">
        <ele>1247.45</ele>
        <time>2019-04-07T13:59:51Z</time>
      </trkpt>
      <trkpt lat="60.5867" lon="7.50516">
        <ele>1248.41</ele>
        <time>2019-04-07T13:59:57Z</time>
      </trkpt>
      <trkpt lat="60.58667" lon="7.50504">
        <ele>1250.33</ele>
        <time>2019-04-07T14:00:03Z</time>
      </trkpt>
      <trkpt lat="60.58667" lon="7.50496">
        <ele>1250.81</ele>
        <time>2019-04-07T14:00:07Z</time>
      </trkpt>
      <trkpt lat="60.58668" lon="7.50485">
        <ele>1251.29</ele>
        <time>2019-04-07T14:00:13Z</time>
      </trkpt>
      <trkpt lat="60.58667" lon="7.5048">
        <ele>1251.77</ele>
        <time>2019-04-07T14:00:17Z</time>
      </trkpt>
      <trkpt lat="60.58666" lon="7.50471">
        <ele>1252.74</ele>
        <time>2019-04-07T14:00:22Z</time>
      </trkpt>
      <trkpt lat="60.58665" lon="7.50461">
        <ele>1253.22</ele>
        <time>2019-04-07T14:00:27Z</time>
      </trkpt>
      <trkpt lat="60.58664" lon="7.50452">
        <ele>1254.18</ele>
        <time>2019-04-07T14:00:31Z</time>
      </trkpt>
      <trkpt lat="60.58661" lon="7.50439">
        <ele>1255.14</ele>
        <time>2019-04-07T14:00:37Z</time>
      </trkpt>
      <trkpt lat="60.58659" lon="7.50418">
        <ele>1255.62</ele>
        <time>2019-04-07T14:00:45Z</time>
      </trkpt>
      <trkpt lat="60.58657" lon="7.50412">
        <ele>1256.58</ele>
        <time>2019-04-07T14:00:49Z</time>
      </trkpt>
      <trkpt lat="60.58654" lon="7.50394">
        <ele>1257.06</ele>
        <time>2019-04-07T14:00:56Z</time>
      </trkpt>
      <trkpt lat="60.58645" lon="7.50363">
        <ele>1258.98</ele>
        <time>2019-04-07T14:01:08Z</time>
      </trkpt>
      <trkpt lat="60.58638" lon="7.50336">
        <ele>1259.94</ele>
        <time>2019-04-07T14:01:17Z</time>
      </trkpt>
      <trkpt lat="60.58625" lon="7.50313">
        <ele>1260.91</ele>
        <time>2019-04-07T14:01:25Z</time>
      </trkpt>
      <trkpt lat="60.58625" lon="7.50312">
        <ele>1260.91</ele>
        <time>2019-04-07T14:01:26Z</time>
      </trkpt>
      <trkpt lat="60.58619" lon="7.50299">
        <ele>1260.91</ele>
        <time>2019-04-07T14:01:31Z</time>
      </trkpt>
      <trkpt lat="60.58613" lon="7.50292">
        <ele>1259.46</ele>
        <time>2019-04-07T14:01:33Z</time>
      </trkpt>
      <trkpt lat="60.58611" lon="7.50291">
        <ele>1260.91</ele>
        <time>2019-04-07T14:01:35Z</time>
      </trkpt>
      <trkpt lat="60.5861" lon="7.50288">
        <ele>1260.91</ele>
        <time>2019-04-07T14:01:39Z</time>
      </trkpt>
      <trkpt lat="60.58603" lon="7.50279">
        <ele>1261.39</ele>
        <time>2019-04-07T14:01:46Z</time>
      </trkpt>
      <trkpt lat="60.58591" lon="7.50269">
        <ele>1258.98</ele>
        <time>2019-04-07T14:01:53Z</time>
      </trkpt>
      <trkpt lat="60.58581" lon="7.50269">
        <ele>1258.02</ele>
        <time>2019-04-07T14:01:57Z</time>
      </trkpt>
      <trkpt lat="60.58552" lon="7.50267">
        <ele>1257.54</ele>
        <time>2019-04-07T14:02:04Z</time>
      </trkpt>
      <trkpt lat="60.58533" lon="7.50243">
        <ele>1258.02</ele>
        <time>2019-04-07T14:02:14Z</time>
      </trkpt>
      <trkpt lat="60.58532" lon="7.5024">
        <ele>1258.02</ele>
        <time>2019-04-07T14:02:15Z</time>
      </trkpt>
      <trkpt lat="60.58525" lon="7.50225">
        <ele>1255.14</ele>
        <time>2019-04-07T14:02:18Z</time>
      </trkpt>
      <trkpt lat="60.58501" lon="7.50197">
        <ele>1255.14</ele>
        <time>2019-04-07T14:02:24Z</time>
      </trkpt>
      <trkpt lat="60.58476" lon="7.50189">
        <ele>1254.18</ele>
        <time>2019-04-07T14:02:29Z</time>
      </trkpt>
      <trkpt lat="60.58422" lon="7.50158">
        <ele>1254.18</ele>
        <time>2019-04-07T14:02:38Z</time>
      </trkpt>
      <trkpt lat="60.58411" lon="7.50153">
        <ele>1254.18</ele>
        <time>2019-04-07T14:02:40Z</time>
      </trkpt>
      <trkpt lat="60.58401" lon="7.50146">
        <ele>1254.66</ele>
        <time>2019-04-07T14:02:42Z</time>
      </trkpt>
      <trkpt lat="60.58385" lon="7.50138">
        <ele>1257.54</ele>
        <time>2019-04-07T14:02:49Z</time>
      </trkpt>
      <trkpt lat="60.58374" lon="7.50112">
        <ele>1254.18</ele>
        <time>2019-04-07T14:02:57Z</time>
      </trkpt>
      <trkpt lat="60.58364" lon="7.50104">
        <ele>1253.22</ele>
        <time>2019-04-07T14:02:59Z</time>
      </trkpt>
      <trkpt lat="60.5836" lon="7.50103">
        <ele>1253.22</ele>
        <time>2019-04-07T14:03:00Z</time>
      </trkpt>
      <trkpt lat="60.58351" lon="7.50101">
        <ele>1253.22</ele>
        <time>2019-04-07T14:03:02Z</time>
      </trkpt>
      <trkpt lat="60.58343" lon="7.50102">
        <ele>1253.22</ele>
        <time>2019-04-07T14:03:04Z</time>
      </trkpt>
      <trkpt lat="60.58338" lon="7.50098">
        <ele>1256.58</ele>
        <time>2019-04-07T14:03:07Z</time>
      </trkpt>
      <trkpt lat="60.58337" lon="7.50097">
        <ele>1256.58</ele>
        <time>2019-04-07T14:03:08Z</time>
      </trkpt>
      <trkpt lat="60.58334" lon="7.50086">
        <ele>1258.02</ele>
        <time>2019-04-07T14:03:15Z</time>
      </trkpt>
      <trkpt lat="60.58328" lon="7.50071">
        <ele>1259.94</ele>
        <time>2019-04-07T14:03:24Z</time>
      </trkpt>
      <trkpt lat="60.58327" lon="7.50067">
        <ele>1259.94</ele>
        <time>2019-04-07T14:03:28Z</time>
      </trkpt>
      <trkpt lat="60.58323" lon="7.5006">
        <ele>1260.91</ele>
        <time>2019-04-07T14:03:33Z</time>
      </trkpt>
      <trkpt lat="60.58321" lon="7.50055">
        <ele>1261.39</ele>
        <time>2019-04-07T14:03:38Z</time>
      </trkpt>
      <trkpt lat="60.58318" lon="7.5005">
        <ele>1261.87</ele>
        <time>2019-04-07T14:03:48Z</time>
      </trkpt>
      <trkpt lat="60.58316" lon="7.50044">
        <ele>1262.35</ele>
        <time>2019-04-07T14:03:53Z</time>
      </trkpt>
      <trkpt lat="60.58303" lon="7.5003">
        <ele>1262.35</ele>
        <time>2019-04-07T14:04:01Z</time>
      </trkpt>
      <trkpt lat="60.58297" lon="7.50027">
        <ele>1262.35</ele>
        <time>2019-04-07T14:04:03Z</time>
      </trkpt>
      <trkpt lat="60.58276" lon="7.50033">
        <ele>1258.98</ele>
        <time>2019-04-07T14:04:07Z</time>
      </trkpt>
      <trkpt lat="60.58249" lon="7.50041">
        <ele>1258.98</ele>
        <time>2019-04-07T14:04:12Z</time>
      </trkpt>
      <trkpt lat="60.58222" lon="7.50045">
        <ele>1262.35</ele>
        <time>2019-04-07T14:04:19Z</time>
      </trkpt>
      <trkpt lat="60.58205" lon="7.50058">
        <ele>1262.35</ele>
        <time>2019-04-07T14:04:26Z</time>
      </trkpt>
      <trkpt lat="60.58203" lon="7.50057">
        <ele>1262.83</ele>
        <time>2019-04-07T14:04:31Z</time>
      </trkpt>
      <trkpt lat="60.58208" lon="7.50102">
        <ele>1262.83</ele>
        <time>2019-04-07T14:04:40Z</time>
      </trkpt>
      <trkpt lat="60.58198" lon="7.50139">
        <ele>1258.98</ele>
        <time>2019-04-07T14:04:45Z</time>
      </trkpt>
      <trkpt lat="60.58191" lon="7.50158">
        <ele>1257.06</ele>
        <time>2019-04-07T14:04:48Z</time>
      </trkpt>
      <trkpt lat="60.58183" lon="7.50174">
        <ele>1255.62</ele>
        <time>2019-04-07T14:04:51Z</time>
      </trkpt>
      <trkpt lat="60.58178" lon="7.50183">
        <ele>1254.18</ele>
        <time>2019-04-07T14:04:53Z</time>
      </trkpt>
      <trkpt lat="60.58178" lon="7.50196">
        <ele>1252.25</ele>
        <time>2019-04-07T14:04:57Z</time>
      </trkpt>
      <trkpt lat="60.58179" lon="7.50196">
        <ele>1251.29</ele>
        <time>2019-04-07T14:04:59Z</time>
      </trkpt>
      <trkpt lat="60.58164" lon="7.50172">
        <ele>1252.74</ele>
        <time>2019-04-07T14:05:07Z</time>
      </trkpt>
      <trkpt lat="60.58148" lon="7.50155">
        <ele>1256.58</ele>
        <time>2019-04-07T14:05:13Z</time>
      </trkpt>
      <trkpt lat="60.58146" lon="7.50149">
        <ele>1257.54</ele>
        <time>2019-04-07T14:05:15Z</time>
      </trkpt>
      <trkpt lat="60.58143" lon="7.50143">
        <ele>1258.98</ele>
        <time>2019-04-07T14:05:19Z</time>
      </trkpt>
      <trkpt lat="60.58141" lon="7.50133">
        <ele>1259.46</ele>
        <time>2019-04-07T14:05:23Z</time>
      </trkpt>
      <trkpt lat="60.58137" lon="7.50127">
        <ele>1260.91</ele>
        <time>2019-04-07T14:05:26Z</time>
      </trkpt>
      <trkpt lat="60.58137" lon="7.50127">
        <ele>1261.87</ele>
        <time>2019-04-07T14:05:27Z</time>
      </trkpt>
      <trkpt lat="60.58133" lon="7.50114">
        <ele>1263.31</ele>
        <time>2019-04-07T14:05:32Z</time>
      </trkpt>
      <trkpt lat="60.58125" lon="7.50091">
        <ele>1266.19</ele>
        <time>2019-04-07T14:05:43Z</time>
      </trkpt>
      <trkpt lat="60.58122" lon="7.50079">
        <ele>1267.64</ele>
        <time>2019-04-07T14:05:51Z</time>
      </trkpt>
      <trkpt lat="60.58122" lon="7.50078">
        <ele>1267.64</ele>
        <time>2019-04-07T14:05:52Z</time>
      </trkpt>
      <trkpt lat="60.58121" lon="7.50073">
        <ele>1268.6</ele>
        <time>2019-04-07T14:05:56Z</time>
      </trkpt>
      <trkpt lat="60.58116" lon="7.5006">
        <ele>1270.52</ele>
        <time>2019-04-07T14:06:08Z</time>
      </trkpt>
      <trkpt lat="60.58114" lon="7.50059">
        <ele>1271.48</ele>
        <time>2019-04-07T14:06:13Z</time>
      </trkpt>
      <trkpt lat="60.58109" lon="7.50051">
        <ele>1273.4</ele>
        <time>2019-04-07T14:06:21Z</time>
      </trkpt>
      <trkpt lat="60.58106" lon="7.50043">
        <ele>1274.36</ele>
        <time>2019-04-07T14:06:25Z</time>
      </trkpt>
      <trkpt lat="60.58101" lon="7.50039">
        <ele>1275.33</ele>
        <time>2019-04-07T14:06:28Z</time>
      </trkpt>
      <trkpt lat="60.58096" lon="7.50038">
        <ele>1276.29</ele>
        <time>2019-04-07T14:06:37Z</time>
      </trkpt>
      <trkpt lat="60.58092" lon="7.5004">
        <ele>1277.25</ele>
        <time>2019-04-07T14:06:48Z</time>
      </trkpt>
      <trkpt lat="60.58081" lon="7.5004">
        <ele>1278.21</ele>
        <time>2019-04-07T14:07:00Z</time>
      </trkpt>
      <trkpt lat="60.58079" lon="7.50042">
        <ele>1276.77</ele>
        <time>2019-04-07T14:07:02Z</time>
      </trkpt>
      <trkpt lat="60.58076" lon="7.50043">
        <ele>1276.77</ele>
        <time>2019-04-07T14:07:05Z</time>
      </trkpt>
      <trkpt lat="60.58066" lon="7.5004">
        <ele>1276.77</ele>
        <time>2019-04-07T14:07:11Z</time>
      </trkpt>
      <trkpt lat="60.58061" lon="7.50043">
        <ele>1276.77</ele>
        <time>2019-04-07T14:07:14Z</time>
      </trkpt>
      <trkpt lat="60.58056" lon="7.50039">
        <ele>1278.21</ele>
        <time>2019-04-07T14:07:17Z</time>
      </trkpt>
      <trkpt lat="60.58055" lon="7.50038">
        <ele>1279.17</ele>
        <time>2019-04-07T14:07:19Z</time>
      </trkpt>
      <trkpt lat="60.58049" lon="7.50034">
        <ele>1279.65</ele>
        <time>2019-04-07T14:07:24Z</time>
      </trkpt>
      <trkpt lat="60.58042" lon="7.50023">
        <ele>1281.57</ele>
        <time>2019-04-07T14:07:31Z</time>
      </trkpt>
      <trkpt lat="60.5804" lon="7.50015">
        <ele>1282.54</ele>
        <time>2019-04-07T14:07:37Z</time>
      </trkpt>
      <trkpt lat="60.5804" lon="7.50011">
        <ele>1283.98</ele>
        <time>2019-04-07T14:07:39Z</time>
      </trkpt>
      <trkpt lat="60.5804" lon="7.50005">
        <ele>1284.46</ele>
        <time>2019-04-07T14:07:50Z</time>
      </trkpt>
      <trkpt lat="60.58038" lon="7.49992">
        <ele>1285.42</ele>
        <time>2019-04-07T14:07:55Z</time>
      </trkpt>
      <trkpt lat="60.58038" lon="7.49983">
        <ele>1286.86</ele>
        <time>2019-04-07T14:08:00Z</time>
      </trkpt>
      <trkpt lat="60.58039" lon="7.49978">
        <ele>1287.34</ele>
        <time>2019-04-07T14:08:04Z</time>
      </trkpt>
      <trkpt lat="60.58038" lon="7.49964">
        <ele>1288.78</ele>
        <time>2019-04-07T14:08:11Z</time>
      </trkpt>
      <trkpt lat="60.58033" lon="7.49957">
        <ele>1291.19</ele>
        <time>2019-04-07T14:08:16Z</time>
      </trkpt>
      <trkpt lat="60.58029" lon="7.49948">
        <ele>1293.11</ele>
        <time>2019-04-07T14:08:23Z</time>
      </trkpt>
      <trkpt lat="60.58026" lon="7.49938">
        <ele>1295.03</ele>
        <time>2019-04-07T14:08:27Z</time>
      </trkpt>
      <trkpt lat="60.58024" lon="7.49936">
        <ele>1295.51</ele>
        <time>2019-04-07T14:08:36Z</time>
      </trkpt>
      <trkpt lat="60.58024" lon="7.4993">
        <ele>1295.99</ele>
        <time>2019-04-07T14:08:40Z</time>
      </trkpt>
      <trkpt lat="60.58018" lon="7.49923">
        <ele>1296.96</ele>
        <time>2019-04-07T14:08:47Z</time>
      </trkpt>
      <trkpt lat="60.58001" lon="7.49914">
        <ele>1297.92</ele>
        <time>2019-04-07T14:08:55Z</time>
      </trkpt>
      <trkpt lat="60.57984" lon="7.49907">
        <ele>1295.99</ele>
        <time>2019-04-07T14:08:59Z</time>
      </trkpt>
      <trkpt lat="60.57969" lon="7.4988">
        <ele>1299.36</ele>
        <time>2019-04-07T14:09:07Z</time>
      </trkpt>
      <trkpt lat="60.57968" lon="7.49878">
        <ele>1299.36</ele>
        <time>2019-04-07T14:09:08Z</time>
      </trkpt>
      <trkpt lat="60.57962" lon="7.49861">
        <ele>1300.8</ele>
        <time>2019-04-07T14:09:14Z</time>
      </trkpt>
      <trkpt lat="60.57958" lon="7.49854">
        <ele>1301.28</ele>
        <time>2019-04-07T14:09:18Z</time>
      </trkpt>
      <trkpt lat="60.57952" lon="7.49834">
        <ele>1302.72</ele>
        <time>2019-04-07T14:09:24Z</time>
      </trkpt>
      <trkpt lat="60.57941" lon="7.49813">
        <ele>1305.61</ele>
        <time>2019-04-07T14:09:34Z</time>
      </trkpt>
      <trkpt lat="60.57932" lon="7.49793">
        <ele>1307.53</ele>
        <time>2019-04-07T14:09:41Z</time>
      </trkpt>
      <trkpt lat="60.57924" lon="7.49769">
        <ele>1308.01</ele>
        <time>2019-04-07T14:09:50Z</time>
      </trkpt>
      <trkpt lat="60.57923" lon="7.49764">
        <ele>1308.01</ele>
        <time>2019-04-07T14:09:52Z</time>
      </trkpt>
      <trkpt lat="60.57921" lon="7.49755">
        <ele>1309.45</ele>
        <time>2019-04-07T14:09:57Z</time>
      </trkpt>
      <trkpt lat="60.57919" lon="7.49743">
        <ele>1309.93</ele>
        <time>2019-04-07T14:10:03Z</time>
      </trkpt>
      <trkpt lat="60.57918" lon="7.49735">
        <ele>1310.41</ele>
        <time>2019-04-07T14:10:07Z</time>
      </trkpt>
      <trkpt lat="60.57917" lon="7.49728">
        <ele>1310.9</ele>
        <time>2019-04-07T14:10:12Z</time>
      </trkpt>
      <trkpt lat="60.57915" lon="7.49717">
        <ele>1312.34</ele>
        <time>2019-04-07T14:10:16Z</time>
      </trkpt>
      <trkpt lat="60.57914" lon="7.49709">
        <ele>1312.82</ele>
        <time>2019-04-07T14:10:21Z</time>
      </trkpt>
      <trkpt lat="60.57912" lon="7.49697">
        <ele>1313.3</ele>
        <time>2019-04-07T14:10:26Z</time>
      </trkpt>
      <trkpt lat="60.57906" lon="7.49679">
        <ele>1314.26</ele>
        <time>2019-04-07T14:10:32Z</time>
      </trkpt>
      <trkpt lat="60.57891" lon="7.4965">
        <ele>1314.74</ele>
        <time>2019-04-07T14:10:41Z</time>
      </trkpt>
      <trkpt lat="60.57879" lon="7.49628">
        <ele>1315.22</ele>
        <time>2019-04-07T14:10:49Z</time>
      </trkpt>
      <trkpt lat="60.57875" lon="7.49624">
        <ele>1313.78</ele>
        <time>2019-04-07T14:10:50Z</time>
      </trkpt>
      <trkpt lat="60.5787" lon="7.4962">
        <ele>1313.3</ele>
        <time>2019-04-07T14:10:51Z</time>
      </trkpt>
      <trkpt lat="60.57854" lon="7.49595">
        <ele>1313.3</ele>
        <time>2019-04-07T14:10:55Z</time>
      </trkpt>
      <trkpt lat="60.57848" lon="7.49582">
        <ele>1315.22</ele>
        <time>2019-04-07T14:10:58Z</time>
      </trkpt>
      <trkpt lat="60.57845" lon="7.4958">
        <ele>1316.18</ele>
        <time>2019-04-07T14:11:03Z</time>
      </trkpt>
      <trkpt lat="60.57841" lon="7.49573">
        <ele>1316.18</ele>
        <time>2019-04-07T14:11:08Z</time>
      </trkpt>
      <trkpt lat="60.57838" lon="7.49562">
        <ele>1316.66</ele>
        <time>2019-04-07T14:11:13Z</time>
      </trkpt>
      <trkpt lat="60.57827" lon="7.49544">
        <ele>1317.62</ele>
        <time>2019-04-07T14:11:22Z</time>
      </trkpt>
      <trkpt lat="60.57809" lon="7.4952">
        <ele>1317.62</ele>
        <time>2019-04-07T14:11:33Z</time>
      </trkpt>
      <trkpt lat="60.57793" lon="7.49495">
        <ele>1315.22</ele>
        <time>2019-04-07T14:11:40Z</time>
      </trkpt>
      <trkpt lat="60.57786" lon="7.49488">
        <ele>1314.26</ele>
        <time>2019-04-07T14:11:42Z</time>
      </trkpt>
      <trkpt lat="60.57774" lon="7.49471">
        <ele>1313.78</ele>
        <time>2019-04-07T14:11:50Z</time>
      </trkpt>
      <trkpt lat="60.57756" lon="7.49443">
        <ele>1312.34</ele>
        <time>2019-04-07T14:11:57Z</time>
      </trkpt>
      <trkpt lat="60.57747" lon="7.49435">
        <ele>1311.38</ele>
        <time>2019-04-07T14:12:00Z</time>
      </trkpt>
      <trkpt lat="60.57739" lon="7.49438">
        <ele>1309.45</ele>
        <time>2019-04-07T14:12:03Z</time>
      </trkpt>
      <trkpt lat="60.57737" lon="7.49437">
        <ele>1309.45</ele>
        <time>2019-04-07T14:12:07Z</time>
      </trkpt>
      <trkpt lat="60.57737" lon="7.49429">
        <ele>1309.45</ele>
        <time>2019-04-07T14:12:10Z</time>
      </trkpt>
      <trkpt lat="60.57728" lon="7.49399">
        <ele>1308.01</ele>
        <time>2019-04-07T14:12:16Z</time>
      </trkpt>
      <trkpt lat="60.57726" lon="7.49393">
        <ele>1307.05</ele>
        <time>2019-04-07T14:12:17Z</time>
      </trkpt>
      <trkpt lat="60.57708" lon="7.49364">
        <ele>1303.69</ele>
        <time>2019-04-07T14:12:21Z</time>
      </trkpt>
      <trkpt lat="60.57703" lon="7.49355">
        <ele>1302.24</ele>
        <time>2019-04-07T14:12:22Z</time>
      </trkpt>
      <trkpt lat="60.57677" lon="7.49313">
        <ele>1298.4</ele>
        <time>2019-04-07T14:12:26Z</time>
      </trkpt>
      <trkpt lat="60.57647" lon="7.49273">
        <ele>1294.55</ele>
        <time>2019-04-07T14:12:30Z</time>
      </trkpt>
      <trkpt lat="60.57623" lon="7.49242">
        <ele>1290.71</ele>
        <time>2019-04-07T14:12:33Z</time>
      </trkpt>
      <trkpt lat="60.57604" lon="7.49224">
        <ele>1287.34</ele>
        <time>2019-04-07T14:12:35Z</time>
      </trkpt>
      <trkpt lat="60.57595" lon="7.49216">
        <ele>1287.34</ele>
        <time>2019-04-07T14:12:36Z</time>
      </trkpt>
      <trkpt lat="60.57572" lon="7.49195">
        <ele>1290.23</ele>
        <time>2019-04-07T14:12:39Z</time>
      </trkpt>
      <trkpt lat="60.57548" lon="7.49176">
        <ele>1293.59</ele>
        <time>2019-04-07T14:12:43Z</time>
      </trkpt>
      <trkpt lat="60.57537" lon="7.49169">
        <ele>1294.55</ele>
        <time>2019-04-07T14:12:45Z</time>
      </trkpt>
      <trkpt lat="60.57505" lon="7.49146">
        <ele>1291.19</ele>
        <time>2019-04-07T14:12:50Z</time>
      </trkpt>
      <trkpt lat="60.57497" lon="7.49141">
        <ele>1291.19</ele>
        <time>2019-04-07T14:12:51Z</time>
      </trkpt>
      <trkpt lat="60.57472" lon="7.49121">
        <ele>1294.55</ele>
        <time>2019-04-07T14:12:55Z</time>
      </trkpt>
      <trkpt lat="60.57461" lon="7.4911">
        <ele>1295.99</ele>
        <time>2019-04-07T14:12:58Z</time>
      </trkpt>
      <trkpt lat="60.5745" lon="7.49088">
        <ele>1298.88</ele>
        <time>2019-04-07T14:13:04Z</time>
      </trkpt>
      <trkpt lat="60.57445" lon="7.49075">
        <ele>1298.88</ele>
        <time>2019-04-07T14:13:09Z</time>
      </trkpt>
      <trkpt lat="60.57421" lon="7.49043">
        <ele>1301.28</ele>
        <time>2019-04-07T14:13:19Z</time>
      </trkpt>
      <trkpt lat="60.57419" lon="7.49037">
        <ele>1301.76</ele>
        <time>2019-04-07T14:13:21Z</time>
      </trkpt>
      <trkpt lat="60.57398" lon="7.49013">
        <ele>1303.69</ele>
        <time>2019-04-07T14:13:32Z</time>
      </trkpt>
      <trkpt lat="60.57388" lon="7.48998">
        <ele>1306.09</ele>
        <time>2019-04-07T14:13:41Z</time>
      </trkpt>
      <trkpt lat="60.57387" lon="7.48997">
        <ele>1307.05</ele>
        <time>2019-04-07T14:13:44Z</time>
      </trkpt>
      <trkpt lat="60.57385" lon="7.48991">
        <ele>1308.01</ele>
        <time>2019-04-07T14:13:48Z</time>
      </trkpt>
      <trkpt lat="60.5738" lon="7.48985">
        <ele>1308.97</ele>
        <time>2019-04-07T14:13:52Z</time>
      </trkpt>
      <trkpt lat="60.57379" lon="7.48981">
        <ele>1309.93</ele>
        <time>2019-04-07T14:13:56Z</time>
      </trkpt>
      <trkpt lat="60.57376" lon="7.48975">
        <ele>1311.38</ele>
        <time>2019-04-07T14:14:01Z</time>
      </trkpt>
      <trkpt lat="60.57375" lon="7.48969">
        <ele>1311.38</ele>
        <time>2019-04-07T14:14:05Z</time>
      </trkpt>
      <trkpt lat="60.57369" lon="7.48951">
        <ele>1314.26</ele>
        <time>2019-04-07T14:14:13Z</time>
      </trkpt>
      <trkpt lat="60.57367" lon="7.48949">
        <ele>1313.78</ele>
        <time>2019-04-07T14:14:17Z</time>
      </trkpt>
      <trkpt lat="60.57359" lon="7.48952">
        <ele>1311.86</ele>
        <time>2019-04-07T14:14:21Z</time>
      </trkpt>
      <trkpt lat="60.5735" lon="7.48957">
        <ele>1310.41</ele>
        <time>2019-04-07T14:14:24Z</time>
      </trkpt>
      <trkpt lat="60.57328" lon="7.48969">
        <ele>1308.49</ele>
        <time>2019-04-07T14:14:30Z</time>
      </trkpt>
      <trkpt lat="60.57319" lon="7.48975">
        <ele>1308.01</ele>
        <time>2019-04-07T14:14:32Z</time>
      </trkpt>
      <trkpt lat="60.57301" lon="7.48975">
        <ele>1309.93</ele>
        <time>2019-04-07T14:14:37Z</time>
      </trkpt>
      <trkpt lat="60.57296" lon="7.48971">
        <ele>1311.38</ele>
        <time>2019-04-07T14:14:42Z</time>
      </trkpt>
      <trkpt lat="60.57292" lon="7.48963">
        <ele>1312.82</ele>
        <time>2019-04-07T14:14:47Z</time>
      </trkpt>
      <trkpt lat="60.57289" lon="7.4896">
        <ele>1313.78</ele>
        <time>2019-04-07T14:14:53Z</time>
      </trkpt>
      <trkpt lat="60.57288" lon="7.48956">
        <ele>1314.74</ele>
        <time>2019-04-07T14:14:57Z</time>
      </trkpt>
      <trkpt lat="60.57286" lon="7.48949">
        <ele>1315.22</ele>
        <time>2019-04-07T14:15:01Z</time>
      </trkpt>
      <trkpt lat="60.57285" lon="7.48943">
        <ele>1316.66</ele>
        <time>2019-04-07T14:15:05Z</time>
      </trkpt>
      <trkpt lat="60.57283" lon="7.48937">
        <ele>1317.14</ele>
        <time>2019-04-07T14:15:11Z</time>
      </trkpt>
      <trkpt lat="60.57281" lon="7.48929">
        <ele>1318.1</ele>
        <time>2019-04-07T14:15:15Z</time>
      </trkpt>
      <trkpt lat="60.57279" lon="7.48924">
        <ele>1319.55</ele>
        <time>2019-04-07T14:15:20Z</time>
      </trkpt>
      <trkpt lat="60.57278" lon="7.48917">
        <ele>1320.51</ele>
        <time>2019-04-07T14:15:24Z</time>
      </trkpt>
      <trkpt lat="60.57272" lon="7.48902">
        <ele>1322.43</ele>
        <time>2019-04-07T14:15:34Z</time>
      </trkpt>
      <trkpt lat="60.5727" lon="7.48899">
        <ele>1323.39</ele>
        <time>2019-04-07T14:15:39Z</time>
      </trkpt>
      <trkpt lat="60.57268" lon="7.48894">
        <ele>1323.87</ele>
        <time>2019-04-07T14:15:44Z</time>
      </trkpt>
      <trkpt lat="60.57263" lon="7.4889">
        <ele>1325.31</ele>
        <time>2019-04-07T14:15:48Z</time>
      </trkpt>
      <trkpt lat="60.57261" lon="7.48881">
        <ele>1325.8</ele>
        <time>2019-04-07T14:15:52Z</time>
      </trkpt>
      <trkpt lat="60.57257" lon="7.48877">
        <ele>1326.76</ele>
        <time>2019-04-07T14:15:58Z</time>
      </trkpt>
      <trkpt lat="60.57255" lon="7.48871">
        <ele>1327.24</ele>
        <time>2019-04-07T14:16:02Z</time>
      </trkpt>
      <trkpt lat="60.57252" lon="7.48864">
        <ele>1328.68</ele>
        <time>2019-04-07T14:16:08Z</time>
      </trkpt>
      <trkpt lat="60.57251" lon="7.48861">
        <ele>1328.68</ele>
        <time>2019-04-07T14:16:10Z</time>
      </trkpt>
      <trkpt lat="60.57247" lon="7.48858">
        <ele>1330.6</ele>
        <time>2019-04-07T14:16:17Z</time>
      </trkpt>
      <trkpt lat="60.57243" lon="7.48848">
        <ele>1331.56</ele>
        <time>2019-04-07T14:16:27Z</time>
      </trkpt>
      <trkpt lat="60.57243" lon="7.48846">
        <ele>1331.56</ele>
        <time>2019-04-07T14:16:29Z</time>
      </trkpt>
      <trkpt lat="60.57239" lon="7.48843">
        <ele>1333.01</ele>
        <time>2019-04-07T14:16:34Z</time>
      </trkpt>
      <trkpt lat="60.57234" lon="7.48839">
        <ele>1333.97</ele>
        <time>2019-04-07T14:16:45Z</time>
      </trkpt>
      <trkpt lat="60.57234" lon="7.48839">
        <ele>1333.97</ele>
        <time>2019-04-07T14:16:46Z</time>
      </trkpt>
      <trkpt lat="60.57233" lon="7.48834">
        <ele>1334.93</ele>
        <time>2019-04-07T14:16:51Z</time>
      </trkpt>
      <trkpt lat="60.57232" lon="7.48829">
        <ele>1335.89</ele>
        <time>2019-04-07T14:16:56Z</time>
      </trkpt>
      <trkpt lat="60.57231" lon="7.48824">
        <ele>1336.37</ele>
        <time>2019-04-07T14:17:00Z</time>
      </trkpt>
      <trkpt lat="60.57227" lon="7.48812">
        <ele>1338.29</ele>
        <time>2019-04-07T14:17:09Z</time>
      </trkpt>
      <trkpt lat="60.57227" lon="7.48813">
        <ele>1338.29</ele>
        <time>2019-04-07T14:17:10Z</time>
      </trkpt>
      <trkpt lat="60.57224" lon="7.48808">
        <ele>1339.25</ele>
        <time>2019-04-07T14:17:15Z</time>
      </trkpt>
      <trkpt lat="60.57222" lon="7.48803">
        <ele>1339.73</ele>
        <time>2019-04-07T14:17:19Z</time>
      </trkpt>
      <trkpt lat="60.5722" lon="7.48799">
        <ele>1340.7</ele>
        <time>2019-04-07T14:17:25Z</time>
      </trkpt>
      <trkpt lat="60.57218" lon="7.48795">
        <ele>1341.66</ele>
        <time>2019-04-07T14:17:29Z</time>
      </trkpt>
      <trkpt lat="60.57213" lon="7.48792">
        <ele>1342.14</ele>
        <time>2019-04-07T14:17:35Z</time>
      </trkpt>
      <trkpt lat="60.5721" lon="7.48789">
        <ele>1343.1</ele>
        <time>2019-04-07T14:17:39Z</time>
      </trkpt>
      <trkpt lat="60.57207" lon="7.48784">
        <ele>1344.54</ele>
        <time>2019-04-07T14:17:44Z</time>
      </trkpt>
      <trkpt lat="60.57204" lon="7.48778">
        <ele>1345.02</ele>
        <time>2019-04-07T14:17:48Z</time>
      </trkpt>
      <trkpt lat="60.57195" lon="7.48777">
        <ele>1345.5</ele>
        <time>2019-04-07T14:17:53Z</time>
      </trkpt>
      <trkpt lat="60.57193" lon="7.48773">
        <ele>1346.46</ele>
        <time>2019-04-07T14:17:57Z</time>
      </trkpt>
      <trkpt lat="60.57185" lon="7.48764">
        <ele>1347.43</ele>
        <time>2019-04-07T14:18:03Z</time>
      </trkpt>
      <trkpt lat="60.57184" lon="7.48759">
        <ele>1347.91</ele>
        <time>2019-04-07T14:18:06Z</time>
      </trkpt>
      <trkpt lat="60.57166" lon="7.48751">
        <ele>1347.91</ele>
        <time>2019-04-07T14:18:16Z</time>
      </trkpt>
      <trkpt lat="60.57157" lon="7.48748">
        <ele>1348.39</ele>
        <time>2019-04-07T14:18:22Z</time>
      </trkpt>
      <trkpt lat="60.57149" lon="7.48728">
        <ele>1349.83</ele>
        <time>2019-04-07T14:18:31Z</time>
      </trkpt>
      <trkpt lat="60.5714" lon="7.48702">
        <ele>1351.27</ele>
        <time>2019-04-07T14:18:38Z</time>
      </trkpt>
      <trkpt lat="60.57115" lon="7.48676">
        <ele>1353.67</ele>
        <time>2019-04-07T14:18:48Z</time>
      </trkpt>
      <trkpt lat="60.571" lon="7.48657">
        <ele>1356.56</ele>
        <time>2019-04-07T14:18:54Z</time>
      </trkpt>
      <trkpt lat="60.571" lon="7.48658">
        <ele>1356.56</ele>
        <time>2019-04-07T14:18:55Z</time>
      </trkpt>
      <trkpt lat="60.57096" lon="7.48646">
        <ele>1358</ele>
        <time>2019-04-07T14:18:59Z</time>
      </trkpt>
      <trkpt lat="60.57095" lon="7.48646">
        <ele>1358.48</ele>
        <time>2019-04-07T14:19:01Z</time>
      </trkpt>
      <trkpt lat="60.57093" lon="7.48638">
        <ele>1359.44</ele>
        <time>2019-04-07T14:19:05Z</time>
      </trkpt>
      <trkpt lat="60.57087" lon="7.48628">
        <ele>1360.88</ele>
        <time>2019-04-07T14:19:10Z</time>
      </trkpt>
      <trkpt lat="60.57083" lon="7.48615">
        <ele>1361.84</ele>
        <time>2019-04-07T14:19:15Z</time>
      </trkpt>
      <trkpt lat="60.57068" lon="7.48604">
        <ele>1361.84</ele>
        <time>2019-04-07T14:19:22Z</time>
      </trkpt>
      <trkpt lat="60.57067" lon="7.48598">
        <ele>1361.84</ele>
        <time>2019-04-07T14:19:26Z</time>
      </trkpt>
      <trkpt lat="60.57061" lon="7.48586">
        <ele>1362.33</ele>
        <time>2019-04-07T14:19:34Z</time>
      </trkpt>
      <trkpt lat="60.5706" lon="7.48579">
        <ele>1362.81</ele>
        <time>2019-04-07T14:19:38Z</time>
      </trkpt>
      <trkpt lat="60.57051" lon="7.48573">
        <ele>1362.81</ele>
        <time>2019-04-07T14:19:45Z</time>
      </trkpt>
      <trkpt lat="60.57049" lon="7.48568">
        <ele>1362.81</ele>
        <time>2019-04-07T14:19:49Z</time>
      </trkpt>
      <trkpt lat="60.57043" lon="7.48559">
        <ele>1362.81</ele>
        <time>2019-04-07T14:19:55Z</time>
      </trkpt>
      <trkpt lat="60.57033" lon="7.48542">
        <ele>1362.81</ele>
        <time>2019-04-07T14:20:04Z</time>
      </trkpt>
      <trkpt lat="60.57031" lon="7.48541">
        <ele>1362.81</ele>
        <time>2019-04-07T14:20:07Z</time>
      </trkpt>
      <trkpt lat="60.5703" lon="7.48535">
        <ele>1362.81</ele>
        <time>2019-04-07T14:20:13Z</time>
      </trkpt>
      <trkpt lat="60.57028" lon="7.48524">
        <ele>1362.81</ele>
        <time>2019-04-07T14:20:19Z</time>
      </trkpt>
      <trkpt lat="60.57027" lon="7.48516">
        <ele>1363.29</ele>
        <time>2019-04-07T14:20:24Z</time>
      </trkpt>
      <trkpt lat="60.57025" lon="7.48505">
        <ele>1364.25</ele>
        <time>2019-04-07T14:20:34Z</time>
      </trkpt>
      <trkpt lat="60.57023" lon="7.485">
        <ele>1365.21</ele>
        <time>2019-04-07T14:20:40Z</time>
      </trkpt>
      <trkpt lat="60.57022" lon="7.48491">
        <ele>1365.69</ele>
        <time>2019-04-07T14:20:44Z</time>
      </trkpt>
      <trkpt lat="60.57021" lon="7.48485">
        <ele>1366.65</ele>
        <time>2019-04-07T14:20:49Z</time>
      </trkpt>
      <trkpt lat="60.5702" lon="7.48477">
        <ele>1367.61</ele>
        <time>2019-04-07T14:20:54Z</time>
      </trkpt>
      <trkpt lat="60.57018" lon="7.48468">
        <ele>1369.05</ele>
        <time>2019-04-07T14:20:59Z</time>
      </trkpt>
      <trkpt lat="60.57016" lon="7.4846">
        <ele>1369.54</ele>
        <time>2019-04-07T14:21:04Z</time>
      </trkpt>
      <trkpt lat="60.5701" lon="7.48436">
        <ele>1370.98</ele>
        <time>2019-04-07T14:21:14Z</time>
      </trkpt>
      <trkpt lat="60.5701" lon="7.48436">
        <ele>1371.46</ele>
        <time>2019-04-07T14:21:15Z</time>
      </trkpt>
      <trkpt lat="60.57004" lon="7.4842">
        <ele>1371.94</ele>
        <time>2019-04-07T14:21:23Z</time>
      </trkpt>
      <trkpt lat="60.57003" lon="7.48418">
        <ele>1371.94</ele>
        <time>2019-04-07T14:21:25Z</time>
      </trkpt>
      <trkpt lat="60.56999" lon="7.48409">
        <ele>1374.34</ele>
        <time>2019-04-07T14:21:30Z</time>
      </trkpt>
      <trkpt lat="60.56996" lon="7.48396">
        <ele>1376.26</ele>
        <time>2019-04-07T14:21:34Z</time>
      </trkpt>
      <trkpt lat="60.56994" lon="7.48386">
        <ele>1376.75</ele>
        <time>2019-04-07T14:21:39Z</time>
      </trkpt>
      <trkpt lat="60.56993" lon="7.48384">
        <ele>1377.23</ele>
        <time>2019-04-07T14:21:41Z</time>
      </trkpt>
      <trkpt lat="60.56992" lon="7.48374">
        <ele>1380.11</ele>
        <time>2019-04-07T14:21:49Z</time>
      </trkpt>
      <trkpt lat="60.56991" lon="7.48369">
        <ele>1381.07</ele>
        <time>2019-04-07T14:21:53Z</time>
      </trkpt>
      <trkpt lat="60.56989" lon="7.4836">
        <ele>1382.99</ele>
        <time>2019-04-07T14:21:58Z</time>
      </trkpt>
      <trkpt lat="60.56986" lon="7.4834">
        <ele>1386.36</ele>
        <time>2019-04-07T14:22:06Z</time>
      </trkpt>
      <trkpt lat="60.56986" lon="7.4834">
        <ele>1386.36</ele>
        <time>2019-04-07T14:22:07Z</time>
      </trkpt>
      <trkpt lat="60.56983" lon="7.48335">
        <ele>1387.32</ele>
        <time>2019-04-07T14:22:12Z</time>
      </trkpt>
      <trkpt lat="60.56982" lon="7.48328">
        <ele>1388.76</ele>
        <time>2019-04-07T14:22:17Z</time>
      </trkpt>
      <trkpt lat="60.56979" lon="7.48319">
        <ele>1390.2</ele>
        <time>2019-04-07T14:22:21Z</time>
      </trkpt>
      <trkpt lat="60.56976" lon="7.48307">
        <ele>1392.13</ele>
        <time>2019-04-07T14:22:26Z</time>
      </trkpt>
      <trkpt lat="60.56972" lon="7.48292">
        <ele>1394.05</ele>
        <time>2019-04-07T14:22:30Z</time>
      </trkpt>
      <trkpt lat="60.56961" lon="7.4826">
        <ele>1397.41</ele>
        <time>2019-04-07T14:22:39Z</time>
      </trkpt>
      <trkpt lat="60.5696" lon="7.48255">
        <ele>1397.89</ele>
        <time>2019-04-07T14:22:41Z</time>
      </trkpt>
      <trkpt lat="60.56957" lon="7.48247">
        <ele>1399.34</ele>
        <time>2019-04-07T14:22:43Z</time>
      </trkpt>
      <trkpt lat="60.56953" lon="7.48224">
        <ele>1402.7</ele>
        <time>2019-04-07T14:22:49Z</time>
      </trkpt>
      <trkpt lat="60.56949" lon="7.48209">
        <ele>1405.1</ele>
        <time>2019-04-07T14:22:53Z</time>
      </trkpt>
      <trkpt lat="60.56949" lon="7.48186">
        <ele>1407.51</ele>
        <time>2019-04-07T14:22:59Z</time>
      </trkpt>
      <trkpt lat="60.56953" lon="7.48163">
        <ele>1408.95</ele>
        <time>2019-04-07T14:23:02Z</time>
      </trkpt>
      <trkpt lat="60.56964" lon="7.48127">
        <ele>1409.43</ele>
        <time>2019-04-07T14:23:09Z</time>
      </trkpt>
      <trkpt lat="60.56966" lon="7.48113">
        <ele>1410.39</ele>
        <time>2019-04-07T14:23:13Z</time>
      </trkpt>
      <trkpt lat="60.56965" lon="7.48097">
        <ele>1411.35</ele>
        <time>2019-04-07T14:23:17Z</time>
      </trkpt>
      <trkpt lat="60.56962" lon="7.48077">
        <ele>1414.24</ele>
        <time>2019-04-07T14:23:23Z</time>
      </trkpt>
      <trkpt lat="60.56956" lon="7.48041">
        <ele>1415.2</ele>
        <time>2019-04-07T14:23:30Z</time>
      </trkpt>
      <trkpt lat="60.5695" lon="7.48005">
        <ele>1416.64</ele>
        <time>2019-04-07T14:23:38Z</time>
      </trkpt>
      <trkpt lat="60.56944" lon="7.47964">
        <ele>1417.12</ele>
        <time>2019-04-07T14:23:47Z</time>
      </trkpt>
      <trkpt lat="60.56932" lon="7.47925">
        <ele>1418.56</ele>
        <time>2019-04-07T14:23:56Z</time>
      </trkpt>
      <trkpt lat="60.5692" lon="7.4788">
        <ele>1420</ele>
        <time>2019-04-07T14:24:05Z</time>
      </trkpt>
      <trkpt lat="60.56916" lon="7.47862">
        <ele>1420.49</ele>
        <time>2019-04-07T14:24:10Z</time>
      </trkpt>
      <trkpt lat="60.5691" lon="7.4785">
        <ele>1420.97</ele>
        <time>2019-04-07T14:24:14Z</time>
      </trkpt>
      <trkpt lat="60.56898" lon="7.47829">
        <ele>1421.93</ele>
        <time>2019-04-07T14:24:22Z</time>
      </trkpt>
      <trkpt lat="60.56881" lon="7.47786">
        <ele>1421.93</ele>
        <time>2019-04-07T14:24:33Z</time>
      </trkpt>
      <trkpt lat="60.56874" lon="7.47755">
        <ele>1422.41</ele>
        <time>2019-04-07T14:24:41Z</time>
      </trkpt>
      <trkpt lat="60.56877" lon="7.47745">
        <ele>1422.41</ele>
        <time>2019-04-07T14:24:44Z</time>
      </trkpt>
      <trkpt lat="60.56877" lon="7.4774">
        <ele>1420.97</ele>
        <time>2019-04-07T14:24:46Z</time>
      </trkpt>
      <trkpt lat="60.56868" lon="7.47701">
        <ele>1420</ele>
        <time>2019-04-07T14:24:56Z</time>
      </trkpt>
      <trkpt lat="60.56859" lon="7.47663">
        <ele>1419.52</ele>
        <time>2019-04-07T14:25:05Z</time>
      </trkpt>
      <trkpt lat="60.56845" lon="7.47623">
        <ele>1418.08</ele>
        <time>2019-04-07T14:25:14Z</time>
      </trkpt>
      <trkpt lat="60.56841" lon="7.47612">
        <ele>1418.08</ele>
        <time>2019-04-07T14:25:17Z</time>
      </trkpt>
      <trkpt lat="60.56833" lon="7.47601">
        <ele>1418.08</ele>
        <time>2019-04-07T14:25:21Z</time>
      </trkpt>
      <trkpt lat="60.56832" lon="7.47598">
        <ele>1418.08</ele>
        <time>2019-04-07T14:25:24Z</time>
      </trkpt>
      <trkpt lat="60.56828" lon="7.47571">
        <ele>1417.12</ele>
        <time>2019-04-07T14:25:33Z</time>
      </trkpt>
      <trkpt lat="60.56828" lon="7.47567">
        <ele>1416.64</ele>
        <time>2019-04-07T14:25:34Z</time>
      </trkpt>
      <trkpt lat="60.5682" lon="7.47536">
        <ele>1414.72</ele>
        <time>2019-04-07T14:25:47Z</time>
      </trkpt>
      <trkpt lat="60.5682" lon="7.47534">
        <ele>1414.72</ele>
        <time>2019-04-07T14:25:48Z</time>
      </trkpt>
      <trkpt lat="60.56814" lon="7.4751">
        <ele>1413.76</ele>
        <time>2019-04-07T14:25:58Z</time>
      </trkpt>
      <trkpt lat="60.56813" lon="7.47507">
        <ele>1413.76</ele>
        <time>2019-04-07T14:26:01Z</time>
      </trkpt>
      <trkpt lat="60.56798" lon="7.47476">
        <ele>1413.28</ele>
        <time>2019-04-07T14:26:10Z</time>
      </trkpt>
      <trkpt lat="60.56796" lon="7.47472">
        <ele>1413.28</ele>
        <time>2019-04-07T14:26:13Z</time>
      </trkpt>
      <trkpt lat="60.56793" lon="7.47462">
        <ele>1413.28</ele>
        <time>2019-04-07T14:26:20Z</time>
      </trkpt>
      <trkpt lat="60.56791" lon="7.47451">
        <ele>1412.79</ele>
        <time>2019-04-07T14:26:25Z</time>
      </trkpt>
      <trkpt lat="60.56789" lon="7.47447">
        <ele>1412.31</ele>
        <time>2019-04-07T14:26:37Z</time>
      </trkpt>
      <trkpt lat="60.56785" lon="7.47432">
        <ele>1412.31</ele>
        <time>2019-04-07T14:26:46Z</time>
      </trkpt>
      <trkpt lat="60.56783" lon="7.47427">
        <ele>1412.31</ele>
        <time>2019-04-07T14:26:50Z</time>
      </trkpt>
      <trkpt lat="60.5678" lon="7.47418">
        <ele>1413.76</ele>
        <time>2019-04-07T14:26:55Z</time>
      </trkpt>
      <trkpt lat="60.56776" lon="7.47405">
        <ele>1414.72</ele>
        <time>2019-04-07T14:27:05Z</time>
      </trkpt>
      <trkpt lat="60.56773" lon="7.47397">
        <ele>1415.2</ele>
        <time>2019-04-07T14:27:12Z</time>
      </trkpt>
      <trkpt lat="60.5677" lon="7.47392">
        <ele>1415.68</ele>
        <time>2019-04-07T14:27:23Z</time>
      </trkpt>
      <trkpt lat="60.56767" lon="7.47384">
        <ele>1416.16</ele>
        <time>2019-04-07T14:27:34Z</time>
      </trkpt>
      <trkpt lat="60.56765" lon="7.4738">
        <ele>1416.64</ele>
        <time>2019-04-07T14:27:41Z</time>
      </trkpt>
      <trkpt lat="60.56766" lon="7.4737">
        <ele>1417.12</ele>
        <time>2019-04-07T14:27:48Z</time>
      </trkpt>
      <trkpt lat="60.56762" lon="7.47361">
        <ele>1417.6</ele>
        <time>2019-04-07T14:27:53Z</time>
      </trkpt>
      <trkpt lat="60.56761" lon="7.47354">
        <ele>1418.08</ele>
        <time>2019-04-07T14:27:58Z</time>
      </trkpt>
      <trkpt lat="60.56758" lon="7.47342">
        <ele>1419.52</ele>
        <time>2019-04-07T14:28:03Z</time>
      </trkpt>
      <trkpt lat="60.56757" lon="7.47328">
        <ele>1420</ele>
        <time>2019-04-07T14:28:10Z</time>
      </trkpt>
      <trkpt lat="60.56753" lon="7.47316">
        <ele>1420.97</ele>
        <time>2019-04-07T14:28:15Z</time>
      </trkpt>
      <trkpt lat="60.56753" lon="7.47291">
        <ele>1421.93</ele>
        <time>2019-04-07T14:28:23Z</time>
      </trkpt>
      <trkpt lat="60.5675" lon="7.47277">
        <ele>1422.89</ele>
        <time>2019-04-07T14:28:28Z</time>
      </trkpt>
      <trkpt lat="60.56745" lon="7.47261">
        <ele>1424.33</ele>
        <time>2019-04-07T14:28:37Z</time>
      </trkpt>
      <trkpt lat="60.56743" lon="7.47256">
        <ele>1424.81</ele>
        <time>2019-04-07T14:28:45Z</time>
      </trkpt>
      <trkpt lat="60.5674" lon="7.4725">
        <ele>1425.29</ele>
        <time>2019-04-07T14:28:56Z</time>
      </trkpt>
      <trkpt lat="60.5674" lon="7.47249">
        <ele>1426.25</ele>
        <time>2019-04-07T14:28:59Z</time>
      </trkpt>
      <trkpt lat="60.56744" lon="7.47256">
        <ele>1425.29</ele>
        <time>2019-04-07T14:29:04Z</time>
      </trkpt>
      <trkpt lat="60.56743" lon="7.47252">
        <ele>1424.33</ele>
        <time>2019-04-07T14:29:19Z</time>
      </trkpt>
      <trkpt lat="60.56741" lon="7.47244">
        <ele>1425.77</ele>
        <time>2019-04-07T14:29:25Z</time>
      </trkpt>
      <trkpt lat="60.5674" lon="7.47242">
        <ele>1426.25</ele>
        <time>2019-04-07T14:29:30Z</time>
      </trkpt>
      <trkpt lat="60.56738" lon="7.47235">
        <ele>1426.73</ele>
        <time>2019-04-07T14:29:35Z</time>
      </trkpt>
      <trkpt lat="60.56737" lon="7.47221">
        <ele>1427.21</ele>
        <time>2019-04-07T14:29:42Z</time>
      </trkpt>
      <trkpt lat="60.56734" lon="7.47216">
        <ele>1427.7</ele>
        <time>2019-04-07T14:29:47Z</time>
      </trkpt>
      <trkpt lat="60.56733" lon="7.47205">
        <ele>1428.66</ele>
        <time>2019-04-07T14:29:53Z</time>
      </trkpt>
      <trkpt lat="60.56728" lon="7.47198">
        <ele>1429.62</ele>
        <time>2019-04-07T14:29:59Z</time>
      </trkpt>
      <trkpt lat="60.56723" lon="7.47191">
        <ele>1430.58</ele>
        <time>2019-04-07T14:30:06Z</time>
      </trkpt>
      <trkpt lat="60.56718" lon="7.47181">
        <ele>1432.02</ele>
        <time>2019-04-07T14:30:13Z</time>
      </trkpt>
      <trkpt lat="60.56713" lon="7.47173">
        <ele>1432.5</ele>
        <time>2019-04-07T14:30:18Z</time>
      </trkpt>
      <trkpt lat="60.56709" lon="7.47165">
        <ele>1433.46</ele>
        <time>2019-04-07T14:30:23Z</time>
      </trkpt>
      <trkpt lat="60.56704" lon="7.47142">
        <ele>1435.39</ele>
        <time>2019-04-07T14:30:32Z</time>
      </trkpt>
      <trkpt lat="60.56704" lon="7.47142">
        <ele>1435.39</ele>
        <time>2019-04-07T14:30:34Z</time>
      </trkpt>
      <trkpt lat="60.56701" lon="7.4713">
        <ele>1436.35</ele>
        <time>2019-04-07T14:30:40Z</time>
      </trkpt>
      <trkpt lat="60.56698" lon="7.47125">
        <ele>1437.31</ele>
        <time>2019-04-07T14:30:45Z</time>
      </trkpt>
      <trkpt lat="60.56694" lon="7.47117">
        <ele>1438.27</ele>
        <time>2019-04-07T14:30:50Z</time>
      </trkpt>
      <trkpt lat="60.56688" lon="7.47107">
        <ele>1439.23</ele>
        <time>2019-04-07T14:30:56Z</time>
      </trkpt>
      <trkpt lat="60.56687" lon="7.47104">
        <ele>1440.19</ele>
        <time>2019-04-07T14:31:00Z</time>
      </trkpt>
      <trkpt lat="60.5668" lon="7.47095">
        <ele>1441.63</ele>
        <time>2019-04-07T14:31:06Z</time>
      </trkpt>
      <trkpt lat="60.56678" lon="7.47088">
        <ele>1442.11</ele>
        <time>2019-04-07T14:31:12Z</time>
      </trkpt>
      <trkpt lat="60.56674" lon="7.47084">
        <ele>1442.6</ele>
        <time>2019-04-07T14:31:17Z</time>
      </trkpt>
      <trkpt lat="60.56669" lon="7.47073">
        <ele>1444.04</ele>
        <time>2019-04-07T14:31:28Z</time>
      </trkpt>
      <trkpt lat="60.56668" lon="7.47072">
        <ele>1444.04</ele>
        <time>2019-04-07T14:31:29Z</time>
      </trkpt>
      <trkpt lat="60.56664" lon="7.4707">
        <ele>1445</ele>
        <time>2019-04-07T14:31:34Z</time>
      </trkpt>
      <trkpt lat="60.56662" lon="7.47064">
        <ele>1445.48</ele>
        <time>2019-04-07T14:31:40Z</time>
      </trkpt>
      <trkpt lat="60.56655" lon="7.4705">
        <ele>1446.92</ele>
        <time>2019-04-07T14:31:48Z</time>
      </trkpt>
      <trkpt lat="60.56654" lon="7.47049">
        <ele>1447.4</ele>
        <time>2019-04-07T14:31:51Z</time>
      </trkpt>
      <trkpt lat="60.56651" lon="7.47044">
        <ele>1448.36</ele>
        <time>2019-04-07T14:31:56Z</time>
      </trkpt>
      <trkpt lat="60.56649" lon="7.47039">
        <ele>1449.32</ele>
        <time>2019-04-07T14:32:02Z</time>
      </trkpt>
      <trkpt lat="60.56643" lon="7.4703">
        <ele>1449.81</ele>
        <time>2019-04-07T14:32:08Z</time>
      </trkpt>
      <trkpt lat="60.56637" lon="7.47022">
        <ele>1451.25</ele>
        <time>2019-04-07T14:32:19Z</time>
      </trkpt>
      <trkpt lat="60.56637" lon="7.47022">
        <ele>1451.25</ele>
        <time>2019-04-07T14:32:20Z</time>
      </trkpt>
      <trkpt lat="60.56636" lon="7.47018">
        <ele>1452.69</ele>
        <time>2019-04-07T14:32:24Z</time>
      </trkpt>
      <trkpt lat="60.56639" lon="7.4702">
        <ele>1452.69</ele>
        <time>2019-04-07T14:32:27Z</time>
      </trkpt>
      <trkpt lat="60.56637" lon="7.47017">
        <ele>1451.25</ele>
        <time>2019-04-07T14:32:29Z</time>
      </trkpt>
      <trkpt lat="60.56637" lon="7.47019">
        <ele>1451.25</ele>
        <time>2019-04-07T14:32:32Z</time>
      </trkpt>
      <trkpt lat="60.56635" lon="7.47014">
        <ele>1451.25</ele>
        <time>2019-04-07T14:32:44Z</time>
      </trkpt>
      <trkpt lat="60.56636" lon="7.47015">
        <ele>1451.25</ele>
        <time>2019-04-07T14:32:46Z</time>
      </trkpt>
      <trkpt lat="60.56633" lon="7.4701">
        <ele>1452.69</ele>
        <time>2019-04-07T14:32:56Z</time>
      </trkpt>
      <trkpt lat="60.56633" lon="7.4701">
        <ele>1452.69</ele>
        <time>2019-04-07T14:32:57Z</time>
      </trkpt>
      <trkpt lat="60.56629" lon="7.47006">
        <ele>1453.65</ele>
        <time>2019-04-07T14:33:02Z</time>
      </trkpt>
      <trkpt lat="60.56623" lon="7.46997">
        <ele>1455.09</ele>
        <time>2019-04-07T14:33:07Z</time>
      </trkpt>
      <trkpt lat="60.56616" lon="7.46993">
        <ele>1456.05</ele>
        <time>2019-04-07T14:33:12Z</time>
      </trkpt>
      <trkpt lat="60.56613" lon="7.46988">
        <ele>1457.02</ele>
        <time>2019-04-07T14:33:18Z</time>
      </trkpt>
      <trkpt lat="60.56609" lon="7.46979">
        <ele>1457.98</ele>
        <time>2019-04-07T14:33:23Z</time>
      </trkpt>
      <trkpt lat="60.56606" lon="7.46977">
        <ele>1458.46</ele>
        <time>2019-04-07T14:33:30Z</time>
      </trkpt>
      <trkpt lat="60.56601" lon="7.46975">
        <ele>1458.94</ele>
        <time>2019-04-07T14:33:35Z</time>
      </trkpt>
      <trkpt lat="60.56599" lon="7.46973">
        <ele>1459.42</ele>
        <time>2019-04-07T14:33:42Z</time>
      </trkpt>
      <trkpt lat="60.56599" lon="7.46975">
        <ele>1459.42</ele>
        <time>2019-04-07T14:33:52Z</time>
      </trkpt>
      <trkpt lat="60.566" lon="7.46975">
        <ele>1459.42</ele>
        <time>2019-04-07T14:34:03Z</time>
      </trkpt>
      <trkpt lat="60.566" lon="7.46976">
        <ele>1459.42</ele>
        <time>2019-04-07T14:34:05Z</time>
      </trkpt>
      <trkpt lat="60.56597" lon="7.46974">
        <ele>1459.42</ele>
        <time>2019-04-07T14:34:12Z</time>
      </trkpt>
      <trkpt lat="60.56595" lon="7.46972">
        <ele>1459.9</ele>
        <time>2019-04-07T14:34:16Z</time>
      </trkpt>
      <trkpt lat="60.56593" lon="7.46969">
        <ele>1460.38</ele>
        <time>2019-04-07T14:34:23Z</time>
      </trkpt>
      <trkpt lat="60.56591" lon="7.46966">
        <ele>1460.86</ele>
        <time>2019-04-07T14:34:26Z</time>
      </trkpt>
      <trkpt lat="60.56588" lon="7.4696">
        <ele>1461.82</ele>
        <time>2019-04-07T14:34:32Z</time>
      </trkpt>
      <trkpt lat="60.56584" lon="7.46955">
        <ele>1462.3</ele>
        <time>2019-04-07T14:34:42Z</time>
      </trkpt>
      <trkpt lat="60.56583" lon="7.46955">
        <ele>1462.3</ele>
        <time>2019-04-07T14:34:49Z</time>
      </trkpt>
      <trkpt lat="60.56583" lon="7.46947">
        <ele>1462.78</ele>
        <time>2019-04-07T14:34:55Z</time>
      </trkpt>
      <trkpt lat="60.56581" lon="7.46942">
        <ele>1463.26</ele>
        <time>2019-04-07T14:35:00Z</time>
      </trkpt>
      <trkpt lat="60.5658" lon="7.46939">
        <ele>1463.74</ele>
        <time>2019-04-07T14:35:03Z</time>
      </trkpt>
      <trkpt lat="60.56582" lon="7.4694">
        <ele>1463.74</ele>
        <time>2019-04-07T14:35:11Z</time>
      </trkpt>
      <trkpt lat="60.56581" lon="7.46938">
        <ele>1463.74</ele>
        <time>2019-04-07T14:35:16Z</time>
      </trkpt>
      <trkpt lat="60.56575" lon="7.46929">
        <ele>1465.19</ele>
        <time>2019-04-07T14:35:26Z</time>
      </trkpt>
      <trkpt lat="60.56572" lon="7.46924">
        <ele>1465.67</ele>
        <time>2019-04-07T14:35:34Z</time>
      </trkpt>
      <trkpt lat="60.56568" lon="7.46915">
        <ele>1467.11</ele>
        <time>2019-04-07T14:35:39Z</time>
      </trkpt>
      <trkpt lat="60.56561" lon="7.469">
        <ele>1468.55</ele>
        <time>2019-04-07T14:35:48Z</time>
      </trkpt>
      <trkpt lat="60.56555" lon="7.46894">
        <ele>1469.99</ele>
        <time>2019-04-07T14:35:54Z</time>
      </trkpt>
      <trkpt lat="60.56552" lon="7.46884">
        <ele>1470.95</ele>
        <time>2019-04-07T14:36:00Z</time>
      </trkpt>
      <trkpt lat="60.56551" lon="7.46879">
        <ele>1471.44</ele>
        <time>2019-04-07T14:36:05Z</time>
      </trkpt>
      <trkpt lat="60.56552" lon="7.46881">
        <ele>1471.44</ele>
        <time>2019-04-07T14:36:11Z</time>
      </trkpt>
      <trkpt lat="60.56549" lon="7.46879">
        <ele>1471.44</ele>
        <time>2019-04-07T14:36:22Z</time>
      </trkpt>
      <trkpt lat="60.5655" lon="7.46879">
        <ele>1471.44</ele>
        <time>2019-04-07T14:36:29Z</time>
      </trkpt>
      <trkpt lat="60.56545" lon="7.46862">
        <ele>1472.88</ele>
        <time>2019-04-07T14:36:38Z</time>
      </trkpt>
      <trkpt lat="60.56542" lon="7.46852">
        <ele>1473.36</ele>
        <time>2019-04-07T14:36:42Z</time>
      </trkpt>
      <trkpt lat="60.56537" lon="7.46843">
        <ele>1474.8</ele>
        <time>2019-04-07T14:36:48Z</time>
      </trkpt>
      <trkpt lat="60.56533" lon="7.46827">
        <ele>1475.76</ele>
        <time>2019-04-07T14:36:53Z</time>
      </trkpt>
      <trkpt lat="60.56529" lon="7.46822">
        <ele>1477.2</ele>
        <time>2019-04-07T14:36:58Z</time>
      </trkpt>
      <trkpt lat="60.56527" lon="7.46817">
        <ele>1477.68</ele>
        <time>2019-04-07T14:37:03Z</time>
      </trkpt>
      <trkpt lat="60.56525" lon="7.46811">
        <ele>1478.16</ele>
        <time>2019-04-07T14:37:07Z</time>
      </trkpt>
      <trkpt lat="60.56524" lon="7.46805">
        <ele>1478.65</ele>
        <time>2019-04-07T14:37:12Z</time>
      </trkpt>
      <trkpt lat="60.56519" lon="7.46801">
        <ele>1479.61</ele>
        <time>2019-04-07T14:37:18Z</time>
      </trkpt>
      <trkpt lat="60.56516" lon="7.46789">
        <ele>1480.57</ele>
        <time>2019-04-07T14:37:28Z</time>
      </trkpt>
      <trkpt lat="60.56516" lon="7.4679">
        <ele>1480.57</ele>
        <time>2019-04-07T14:37:36Z</time>
      </trkpt>
      <trkpt lat="60.56514" lon="7.46786">
        <ele>1480.57</ele>
        <time>2019-04-07T14:37:42Z</time>
      </trkpt>
      <trkpt lat="60.56512" lon="7.46778">
        <ele>1481.53</ele>
        <time>2019-04-07T14:37:52Z</time>
      </trkpt>
      <trkpt lat="60.56512" lon="7.46776">
        <ele>1481.53</ele>
        <time>2019-04-07T14:37:55Z</time>
      </trkpt>
      <trkpt lat="60.56513" lon="7.46773">
        <ele>1481.53</ele>
        <time>2019-04-07T14:38:06Z</time>
      </trkpt>
      <trkpt lat="60.56513" lon="7.46771">
        <ele>1481.53</ele>
        <time>2019-04-07T14:38:17Z</time>
      </trkpt>
      <trkpt lat="60.56515" lon="7.46766">
        <ele>1481.53</ele>
        <time>2019-04-07T14:38:21Z</time>
      </trkpt>
      <trkpt lat="60.56511" lon="7.4676">
        <ele>1482.01</ele>
        <time>2019-04-07T14:38:26Z</time>
      </trkpt>
      <trkpt lat="60.56511" lon="7.46752">
        <ele>1482.97</ele>
        <time>2019-04-07T14:38:30Z</time>
      </trkpt>
      <trkpt lat="60.56506" lon="7.46745">
        <ele>1483.93</ele>
        <time>2019-04-07T14:38:35Z</time>
      </trkpt>
      <trkpt lat="60.56507" lon="7.46733">
        <ele>1484.89</ele>
        <time>2019-04-07T14:38:40Z</time>
      </trkpt>
      <trkpt lat="60.56502" lon="7.46726">
        <ele>1485.37</ele>
        <time>2019-04-07T14:38:46Z</time>
      </trkpt>
      <trkpt lat="60.56501" lon="7.46714">
        <ele>1486.34</ele>
        <time>2019-04-07T14:38:50Z</time>
      </trkpt>
      <trkpt lat="60.56497" lon="7.46703">
        <ele>1486.82</ele>
        <time>2019-04-07T14:38:55Z</time>
      </trkpt>
      <trkpt lat="60.56497" lon="7.46686">
        <ele>1488.26</ele>
        <time>2019-04-07T14:39:01Z</time>
      </trkpt>
      <trkpt lat="60.56493" lon="7.46678">
        <ele>1489.22</ele>
        <time>2019-04-07T14:39:06Z</time>
      </trkpt>
      <trkpt lat="60.56492" lon="7.46673">
        <ele>1489.22</ele>
        <time>2019-04-07T14:39:10Z</time>
      </trkpt>
      <trkpt lat="60.56489" lon="7.46666">
        <ele>1490.18</ele>
        <time>2019-04-07T14:39:17Z</time>
      </trkpt>
      <trkpt lat="60.5648" lon="7.46641">
        <ele>1491.62</ele>
        <time>2019-04-07T14:39:28Z</time>
      </trkpt>
      <trkpt lat="60.5648" lon="7.4664">
        <ele>1492.1</ele>
        <time>2019-04-07T14:39:32Z</time>
      </trkpt>
      <trkpt lat="60.56474" lon="7.46627">
        <ele>1493.55</ele>
        <time>2019-04-07T14:39:41Z</time>
      </trkpt>
      <trkpt lat="60.5647" lon="7.46618">
        <ele>1494.03</ele>
        <time>2019-04-07T14:39:47Z</time>
      </trkpt>
      <trkpt lat="60.56469" lon="7.4661">
        <ele>1494.03</ele>
        <time>2019-04-07T14:39:51Z</time>
      </trkpt>
      <trkpt lat="60.56463" lon="7.46599">
        <ele>1494.99</ele>
        <time>2019-04-07T14:39:58Z</time>
      </trkpt>
      <trkpt lat="60.56462" lon="7.46593">
        <ele>1494.99</ele>
        <time>2019-04-07T14:40:02Z</time>
      </trkpt>
      <trkpt lat="60.56458" lon="7.46584">
        <ele>1496.43</ele>
        <time>2019-04-07T14:40:09Z</time>
      </trkpt>
      <trkpt lat="60.56454" lon="7.46574">
        <ele>1496.43</ele>
        <time>2019-04-07T14:40:18Z</time>
      </trkpt>
      <trkpt lat="60.56449" lon="7.46567">
        <ele>1496.91</ele>
        <time>2019-04-07T14:40:29Z</time>
      </trkpt>
      <trkpt lat="60.56449" lon="7.46567">
        <ele>1496.91</ele>
        <time>2019-04-07T14:40:30Z</time>
      </trkpt>
      <trkpt lat="60.56447" lon="7.46561">
        <ele>1497.39</ele>
        <time>2019-04-07T14:40:39Z</time>
      </trkpt>
      <trkpt lat="60.56443" lon="7.46552">
        <ele>1497.87</ele>
        <time>2019-04-07T14:40:49Z</time>
      </trkpt>
      <trkpt lat="60.56443" lon="7.46552">
        <ele>1497.87</ele>
        <time>2019-04-07T14:40:50Z</time>
      </trkpt>
      <trkpt lat="60.56442" lon="7.46543">
        <ele>1498.35</ele>
        <time>2019-04-07T14:40:58Z</time>
      </trkpt>
      <trkpt lat="60.56439" lon="7.46529">
        <ele>1499.31</ele>
        <time>2019-04-07T14:41:10Z</time>
      </trkpt>
      <trkpt lat="60.56434" lon="7.46523">
        <ele>1499.79</ele>
        <time>2019-04-07T14:41:20Z</time>
      </trkpt>
      <trkpt lat="60.5643" lon="7.46514">
        <ele>1500.27</ele>
        <time>2019-04-07T14:41:26Z</time>
      </trkpt>
      <trkpt lat="60.5643" lon="7.46508">
        <ele>1500.76</ele>
        <time>2019-04-07T14:41:30Z</time>
      </trkpt>
      <trkpt lat="60.56421" lon="7.46492">
        <ele>1501.72</ele>
        <time>2019-04-07T14:41:41Z</time>
      </trkpt>
      <trkpt lat="60.56419" lon="7.46485">
        <ele>1502.2</ele>
        <time>2019-04-07T14:41:48Z</time>
      </trkpt>
      <trkpt lat="60.56415" lon="7.46472">
        <ele>1503.16</ele>
        <time>2019-04-07T14:41:55Z</time>
      </trkpt>
      <trkpt lat="60.56414" lon="7.46461">
        <ele>1503.16</ele>
        <time>2019-04-07T14:41:59Z</time>
      </trkpt>
      <trkpt lat="60.56408" lon="7.46443">
        <ele>1504.6</ele>
        <time>2019-04-07T14:42:05Z</time>
      </trkpt>
      <trkpt lat="60.56401" lon="7.46429">
        <ele>1505.56</ele>
        <time>2019-04-07T14:42:13Z</time>
      </trkpt>
      <trkpt lat="60.56395" lon="7.46406">
        <ele>1507</ele>
        <time>2019-04-07T14:42:23Z</time>
      </trkpt>
      <trkpt lat="60.56392" lon="7.46397">
        <ele>1507.97</ele>
        <time>2019-04-07T14:42:30Z</time>
      </trkpt>
      <trkpt lat="60.56387" lon="7.46385">
        <ele>1508.45</ele>
        <time>2019-04-07T14:42:39Z</time>
      </trkpt>
      <trkpt lat="60.56383" lon="7.46373">
        <ele>1509.41</ele>
        <time>2019-04-07T14:42:49Z</time>
      </trkpt>
      <trkpt lat="60.5638" lon="7.46364">
        <ele>1510.37</ele>
        <time>2019-04-07T14:42:59Z</time>
      </trkpt>
      <trkpt lat="60.56378" lon="7.46351">
        <ele>1510.85</ele>
        <time>2019-04-07T14:43:06Z</time>
      </trkpt>
      <trkpt lat="60.56374" lon="7.46341">
        <ele>1511.33</ele>
        <time>2019-04-07T14:43:12Z</time>
      </trkpt>
      <trkpt lat="60.56372" lon="7.46319">
        <ele>1513.25</ele>
        <time>2019-04-07T14:43:18Z</time>
      </trkpt>
      <trkpt lat="60.56363" lon="7.46282">
        <ele>1515.66</ele>
        <time>2019-04-07T14:43:28Z</time>
      </trkpt>
      <trkpt lat="60.56357" lon="7.46252">
        <ele>1517.58</ele>
        <time>2019-04-07T14:43:38Z</time>
      </trkpt>
      <trkpt lat="60.56356" lon="7.4624">
        <ele>1518.06</ele>
        <time>2019-04-07T14:43:42Z</time>
      </trkpt>
      <trkpt lat="60.56348" lon="7.4621">
        <ele>1520.94</ele>
        <time>2019-04-07T14:43:50Z</time>
      </trkpt>
      <trkpt lat="60.56347" lon="7.46206">
        <ele>1520.94</ele>
        <time>2019-04-07T14:43:52Z</time>
      </trkpt>
      <trkpt lat="60.56344" lon="7.46201">
        <ele>1521.42</ele>
        <time>2019-04-07T14:43:54Z</time>
      </trkpt>
      <trkpt lat="60.56342" lon="7.4619">
        <ele>1522.39</ele>
        <time>2019-04-07T14:43:59Z</time>
      </trkpt>
      <trkpt lat="60.56338" lon="7.46181">
        <ele>1523.83</ele>
        <time>2019-04-07T14:44:05Z</time>
      </trkpt>
      <trkpt lat="60.56336" lon="7.46164">
        <ele>1524.31</ele>
        <time>2019-04-07T14:44:11Z</time>
      </trkpt>
      <trkpt lat="60.56333" lon="7.46153">
        <ele>1525.75</ele>
        <time>2019-04-07T14:44:17Z</time>
      </trkpt>
      <trkpt lat="60.5633" lon="7.4614">
        <ele>1526.23</ele>
        <time>2019-04-07T14:44:21Z</time>
      </trkpt>
      <trkpt lat="60.56322" lon="7.46119">
        <ele>1528.15</ele>
        <time>2019-04-07T14:44:30Z</time>
      </trkpt>
      <trkpt lat="60.56315" lon="7.46093">
        <ele>1530.08</ele>
        <time>2019-04-07T14:44:40Z</time>
      </trkpt>
      <trkpt lat="60.5631" lon="7.46064">
        <ele>1532</ele>
        <time>2019-04-07T14:44:48Z</time>
      </trkpt>
      <trkpt lat="60.56306" lon="7.46046">
        <ele>1533.44</ele>
        <time>2019-04-07T14:44:56Z</time>
      </trkpt>
      <trkpt lat="60.56302" lon="7.46038">
        <ele>1533.92</ele>
        <time>2019-04-07T14:45:08Z</time>
      </trkpt>
      <trkpt lat="60.563" lon="7.46032">
        <ele>1534.88</ele>
        <time>2019-04-07T14:45:14Z</time>
      </trkpt>
      <trkpt lat="60.56298" lon="7.46007">
        <ele>1535.84</ele>
        <time>2019-04-07T14:45:24Z</time>
      </trkpt>
      <trkpt lat="60.56298" lon="7.46003">
        <ele>1536.32</ele>
        <time>2019-04-07T14:45:28Z</time>
      </trkpt>
      <trkpt lat="60.56296" lon="7.45993">
        <ele>1537.29</ele>
        <time>2019-04-07T14:45:34Z</time>
      </trkpt>
      <trkpt lat="60.56297" lon="7.45986">
        <ele>1537.77</ele>
        <time>2019-04-07T14:45:38Z</time>
      </trkpt>
      <trkpt lat="60.56293" lon="7.45974">
        <ele>1538.25</ele>
        <time>2019-04-07T14:45:47Z</time>
      </trkpt>
      <trkpt lat="60.56293" lon="7.45974">
        <ele>1538.25</ele>
        <time>2019-04-07T14:45:48Z</time>
      </trkpt>
      <trkpt lat="60.5629" lon="7.45966">
        <ele>1539.21</ele>
        <time>2019-04-07T14:45:54Z</time>
      </trkpt>
      <trkpt lat="60.5629" lon="7.45952">
        <ele>1539.21</ele>
        <time>2019-04-07T14:45:59Z</time>
      </trkpt>
      <trkpt lat="60.56284" lon="7.45938">
        <ele>1540.65</ele>
        <time>2019-04-07T14:46:07Z</time>
      </trkpt>
      <trkpt lat="60.56278" lon="7.45925">
        <ele>1541.13</ele>
        <time>2019-04-07T14:46:13Z</time>
      </trkpt>
      <trkpt lat="60.56278" lon="7.4592">
        <ele>1541.13</ele>
        <time>2019-04-07T14:46:16Z</time>
      </trkpt>
      <trkpt lat="60.56273" lon="7.45912">
        <ele>1542.09</ele>
        <time>2019-04-07T14:46:24Z</time>
      </trkpt>
      <trkpt lat="60.56273" lon="7.45912">
        <ele>1542.09</ele>
        <time>2019-04-07T14:46:29Z</time>
      </trkpt>
      <trkpt lat="60.56273" lon="7.45909">
        <ele>1542.57</ele>
        <time>2019-04-07T14:46:39Z</time>
      </trkpt>
      <trkpt lat="60.56273" lon="7.45911">
        <ele>1542.57</ele>
        <time>2019-04-07T14:46:46Z</time>
      </trkpt>
      <trkpt lat="60.56274" lon="7.45921">
        <ele>1541.13</ele>
        <time>2019-04-07T14:46:51Z</time>
      </trkpt>
      <trkpt lat="60.56274" lon="7.45927">
        <ele>1540.65</ele>
        <time>2019-04-07T14:47:02Z</time>
      </trkpt>
      <trkpt lat="60.56274" lon="7.45927">
        <ele>1540.65</ele>
        <time>2019-04-07T14:47:06Z</time>
      </trkpt>
      <trkpt lat="60.56274" lon="7.45927">
        <ele>1540.65</ele>
        <time>2019-04-07T14:47:18Z</time>
      </trkpt>
      <trkpt lat="60.56274" lon="7.45925">
        <ele>1540.65</ele>
        <time>2019-04-07T14:47:19Z</time>
      </trkpt>
      <trkpt lat="60.56271" lon="7.45923">
        <ele>1540.65</ele>
        <time>2019-04-07T14:47:30Z</time>
      </trkpt>
      <trkpt lat="60.56271" lon="7.45917">
        <ele>1540.65</ele>
        <time>2019-04-07T14:47:35Z</time>
      </trkpt>
      <trkpt lat="60.56272" lon="7.45908">
        <ele>1542.09</ele>
        <time>2019-04-07T14:47:39Z</time>
      </trkpt>
      <trkpt lat="60.56272" lon="7.45908">
        <ele>1542.09</ele>
        <time>2019-04-07T14:47:40Z</time>
      </trkpt>
      <trkpt lat="60.56271" lon="7.45897">
        <ele>1542.57</ele>
        <time>2019-04-07T14:47:45Z</time>
      </trkpt>
      <trkpt lat="60.56272" lon="7.45889">
        <ele>1543.53</ele>
        <time>2019-04-07T14:47:50Z</time>
      </trkpt>
      <trkpt lat="60.56269" lon="7.4588">
        <ele>1544.01</ele>
        <time>2019-04-07T14:47:55Z</time>
      </trkpt>
      <trkpt lat="60.56269" lon="7.45873">
        <ele>1544.01</ele>
        <time>2019-04-07T14:48:00Z</time>
      </trkpt>
      <trkpt lat="60.56268" lon="7.45866">
        <ele>1544.5</ele>
        <time>2019-04-07T14:48:11Z</time>
      </trkpt>
      <trkpt lat="60.56267" lon="7.45863">
        <ele>1544.5</ele>
        <time>2019-04-07T14:48:21Z</time>
      </trkpt>
      <trkpt lat="60.56265" lon="7.45863">
        <ele>1545.46</ele>
        <time>2019-04-07T14:48:30Z</time>
      </trkpt>
      <trkpt lat="60.56266" lon="7.45863">
        <ele>1545.46</ele>
        <time>2019-04-07T14:48:37Z</time>
      </trkpt>
      <trkpt lat="60.56264" lon="7.45854">
        <ele>1545.94</ele>
        <time>2019-04-07T14:48:48Z</time>
      </trkpt>
      <trkpt lat="60.56264" lon="7.45854">
        <ele>1545.94</ele>
        <time>2019-04-07T14:48:49Z</time>
      </trkpt>
      <trkpt lat="60.56262" lon="7.45845">
        <ele>1545.94</ele>
        <time>2019-04-07T14:49:00Z</time>
      </trkpt>
      <trkpt lat="60.56261" lon="7.45844">
        <ele>1545.94</ele>
        <time>2019-04-07T14:49:01Z</time>
      </trkpt>
      <trkpt lat="60.56261" lon="7.45836">
        <ele>1546.42</ele>
        <time>2019-04-07T14:49:06Z</time>
      </trkpt>
      <trkpt lat="60.56262" lon="7.45829">
        <ele>1546.9</ele>
        <time>2019-04-07T14:49:11Z</time>
      </trkpt>
      <trkpt lat="60.5626" lon="7.4582">
        <ele>1547.86</ele>
        <time>2019-04-07T14:49:18Z</time>
      </trkpt>
      <trkpt lat="60.56261" lon="7.45815">
        <ele>1548.34</ele>
        <time>2019-04-07T14:49:21Z</time>
      </trkpt>
      <trkpt lat="60.5626" lon="7.45807">
        <ele>1548.82</ele>
        <time>2019-04-07T14:49:29Z</time>
      </trkpt>
      <trkpt lat="60.56259" lon="7.45802">
        <ele>1549.3</ele>
        <time>2019-04-07T14:49:40Z</time>
      </trkpt>
      <trkpt lat="60.5626" lon="7.45798">
        <ele>1549.78</ele>
        <time>2019-04-07T14:49:51Z</time>
      </trkpt>
      <trkpt lat="60.56259" lon="7.45798">
        <ele>1549.78</ele>
        <time>2019-04-07T14:50:03Z</time>
      </trkpt>
      <trkpt lat="60.56258" lon="7.45797">
        <ele>1549.78</ele>
        <time>2019-04-07T14:50:07Z</time>
      </trkpt>
      <trkpt lat="60.56257" lon="7.45791">
        <ele>1550.26</ele>
        <time>2019-04-07T14:50:19Z</time>
      </trkpt>
      <trkpt lat="60.56256" lon="7.4579">
        <ele>1550.26</ele>
        <time>2019-04-07T14:50:31Z</time>
      </trkpt>
      <trkpt lat="60.56255" lon="7.45784">
        <ele>1550.74</ele>
        <time>2019-04-07T14:50:44Z</time>
      </trkpt>
      <trkpt lat="60.56256" lon="7.45779">
        <ele>1551.22</ele>
        <time>2019-04-07T14:50:54Z</time>
      </trkpt>
      <trkpt lat="60.56256" lon="7.45772">
        <ele>1551.71</ele>
        <time>2019-04-07T14:51:01Z</time>
      </trkpt>
      <trkpt lat="60.56256" lon="7.4577">
        <ele>1552.19</ele>
        <time>2019-04-07T14:51:06Z</time>
      </trkpt>
      <trkpt lat="60.56255" lon="7.45761">
        <ele>1552.67</ele>
        <time>2019-04-07T14:51:17Z</time>
      </trkpt>
      <trkpt lat="60.56256" lon="7.45754">
        <ele>1553.15</ele>
        <time>2019-04-07T14:51:29Z</time>
      </trkpt>
      <trkpt lat="60.56256" lon="7.45749">
        <ele>1553.63</ele>
        <time>2019-04-07T14:51:39Z</time>
      </trkpt>
      <trkpt lat="60.56255" lon="7.45746">
        <ele>1554.11</ele>
        <time>2019-04-07T14:51:51Z</time>
      </trkpt>
      <trkpt lat="60.56255" lon="7.45739">
        <ele>1555.07</ele>
        <time>2019-04-07T14:52:01Z</time>
      </trkpt>
      <trkpt lat="60.56254" lon="7.4574">
        <ele>1555.07</ele>
        <time>2019-04-07T14:52:03Z</time>
      </trkpt>
      <trkpt lat="60.56254" lon="7.45736">
        <ele>1555.07</ele>
        <time>2019-04-07T14:52:14Z</time>
      </trkpt>
      <trkpt lat="60.56255" lon="7.45737">
        <ele>1555.07</ele>
        <time>2019-04-07T14:52:23Z</time>
      </trkpt>
      <trkpt lat="60.56255" lon="7.45736">
        <ele>1553.63</ele>
        <time>2019-04-07T14:52:36Z</time>
      </trkpt>
      <trkpt lat="60.56255" lon="7.45741">
        <ele>1553.63</ele>
        <time>2019-04-07T14:52:47Z</time>
      </trkpt>
      <trkpt lat="60.56254" lon="7.45744">
        <ele>1553.63</ele>
        <time>2019-04-07T14:52:59Z</time>
      </trkpt>
      <trkpt lat="60.56255" lon="7.45744">
        <ele>1553.63</ele>
        <time>2019-04-07T14:53:19Z</time>
      </trkpt>
      <trkpt lat="60.56255" lon="7.45746">
        <ele>1553.15</ele>
        <time>2019-04-07T14:53:47Z</time>
      </trkpt>
      <trkpt lat="60.56254" lon="7.45747">
        <ele>1553.15</ele>
        <time>2019-04-07T14:54:18Z</time>
      </trkpt>
      <trkpt lat="60.56255" lon="7.45748">
        <ele>1552.67</ele>
        <time>2019-04-07T14:54:44Z</time>
      </trkpt>
      <trkpt lat="60.56255" lon="7.45748">
        <ele>1552.67</ele>
        <time>2019-04-07T14:55:08Z</time>
      </trkpt>
      <trkpt lat="60.56253" lon="7.45751">
        <ele>1552.19</ele>
        <time>2019-04-07T14:55:38Z</time>
      </trkpt>
      <trkpt lat="60.56254" lon="7.45749">
        <ele>1552.19</ele>
        <time>2019-04-07T14:56:05Z</time>
      </trkpt>
      <trkpt lat="60.56256" lon="7.45747">
        <ele>1552.19</ele>
        <time>2019-04-07T14:56:32Z</time>
      </trkpt>
      <trkpt lat="60.56254" lon="7.45749">
        <ele>1552.19</ele>
        <time>2019-04-07T14:57:00Z</time>
      </trkpt>
      <trkpt lat="60.56253" lon="7.45748">
        <ele>1552.19</ele>
        <time>2019-04-07T14:57:26Z</time>
      </trkpt>
      <trkpt lat="60.56256" lon="7.4575">
        <ele>1551.71</ele>
        <time>2019-04-07T14:57:57Z</time>
      </trkpt>
      <trkpt lat="60.56256" lon="7.4575">
        <ele>1551.71</ele>
        <time>2019-04-07T14:58:05Z</time>
      </trkpt>
      <trkpt lat="60.56268" lon="7.45797">
        <ele>1548.82</ele>
        <time>2019-04-07T14:58:18Z</time>
      </trkpt>
      <trkpt lat="60.56284" lon="7.45839">
        <ele>1546.9</ele>
        <time>2019-04-07T14:58:24Z</time>
      </trkpt>
      <trkpt lat="60.56301" lon="7.45893">
        <ele>1543.53</ele>
        <time>2019-04-07T14:58:29Z</time>
      </trkpt>
      <trkpt lat="60.56314" lon="7.45941">
        <ele>1540.65</ele>
        <time>2019-04-07T14:58:33Z</time>
      </trkpt>
      <trkpt lat="60.56329" lon="7.46003">
        <ele>1536.8</ele>
        <time>2019-04-07T14:58:38Z</time>
      </trkpt>
      <trkpt lat="60.56343" lon="7.46052">
        <ele>1532.96</ele>
        <time>2019-04-07T14:58:42Z</time>
      </trkpt>
      <trkpt lat="60.56346" lon="7.46064">
        <ele>1531.52</ele>
        <time>2019-04-07T14:58:43Z</time>
      </trkpt>
      <trkpt lat="60.56356" lon="7.46115">
        <ele>1527.67</ele>
        <time>2019-04-07T14:58:47Z</time>
      </trkpt>
      <trkpt lat="60.56361" lon="7.46139">
        <ele>1525.27</ele>
        <time>2019-04-07T14:58:49Z</time>
      </trkpt>
      <trkpt lat="60.56366" lon="7.46174">
        <ele>1521.9</ele>
        <time>2019-04-07T14:58:52Z</time>
      </trkpt>
      <trkpt lat="60.56376" lon="7.46221">
        <ele>1518.54</ele>
        <time>2019-04-07T14:58:56Z</time>
      </trkpt>
      <trkpt lat="60.56382" lon="7.46256">
        <ele>1515.66</ele>
        <time>2019-04-07T14:58:59Z</time>
      </trkpt>
      <trkpt lat="60.56395" lon="7.46316">
        <ele>1512.29</ele>
        <time>2019-04-07T14:59:04Z</time>
      </trkpt>
      <trkpt lat="60.56398" lon="7.46328">
        <ele>1510.37</ele>
        <time>2019-04-07T14:59:05Z</time>
      </trkpt>
      <trkpt lat="60.56411" lon="7.4637">
        <ele>1506.04</ele>
        <time>2019-04-07T14:59:09Z</time>
      </trkpt>
      <trkpt lat="60.56415" lon="7.46389">
        <ele>1505.08</ele>
        <time>2019-04-07T14:59:11Z</time>
      </trkpt>
      <trkpt lat="60.56421" lon="7.46413">
        <ele>1504.12</ele>
        <time>2019-04-07T14:59:14Z</time>
      </trkpt>
      <trkpt lat="60.56433" lon="7.46456">
        <ele>1501.72</ele>
        <time>2019-04-07T14:59:20Z</time>
      </trkpt>
      <trkpt lat="60.56448" lon="7.46505">
        <ele>1497.87</ele>
        <time>2019-04-07T14:59:26Z</time>
      </trkpt>
      <trkpt lat="60.56455" lon="7.46524">
        <ele>1497.39</ele>
        <time>2019-04-07T14:59:28Z</time>
      </trkpt>
      <trkpt lat="60.56462" lon="7.46554">
        <ele>1496.43</ele>
        <time>2019-04-07T14:59:31Z</time>
      </trkpt>
      <trkpt lat="60.56466" lon="7.46571">
        <ele>1494.99</ele>
        <time>2019-04-07T14:59:33Z</time>
      </trkpt>
      <trkpt lat="60.5647" lon="7.46589">
        <ele>1494.51</ele>
        <time>2019-04-07T14:59:35Z</time>
      </trkpt>
      <trkpt lat="60.5648" lon="7.46629">
        <ele>1490.66</ele>
        <time>2019-04-07T14:59:40Z</time>
      </trkpt>
      <trkpt lat="60.56488" lon="7.46664">
        <ele>1488.74</ele>
        <time>2019-04-07T14:59:44Z</time>
      </trkpt>
      <trkpt lat="60.56493" lon="7.46681">
        <ele>1487.78</ele>
        <time>2019-04-07T14:59:46Z</time>
      </trkpt>
      <trkpt lat="60.56511" lon="7.46732">
        <ele>1483.93</ele>
        <time>2019-04-07T14:59:52Z</time>
      </trkpt>
      <trkpt lat="60.56526" lon="7.46768">
        <ele>1479.61</ele>
        <time>2019-04-07T14:59:56Z</time>
      </trkpt>
      <trkpt lat="60.56542" lon="7.46807">
        <ele>1476.24</ele>
        <time>2019-04-07T15:00:00Z</time>
      </trkpt>
      <trkpt lat="60.56554" lon="7.46837">
        <ele>1472.88</ele>
        <time>2019-04-07T15:00:03Z</time>
      </trkpt>
      <trkpt lat="60.56565" lon="7.46867">
        <ele>1469.51</ele>
        <time>2019-04-07T15:00:06Z</time>
      </trkpt>
      <trkpt lat="60.56577" lon="7.46897">
        <ele>1466.63</ele>
        <time>2019-04-07T15:00:09Z</time>
      </trkpt>
      <trkpt lat="60.56582" lon="7.46907">
        <ele>1464.71</ele>
        <time>2019-04-07T15:00:10Z</time>
      </trkpt>
      <trkpt lat="60.56597" lon="7.46933">
        <ele>1461.82</ele>
        <time>2019-04-07T15:00:13Z</time>
      </trkpt>
      <trkpt lat="60.56606" lon="7.46952">
        <ele>1459.42</ele>
        <time>2019-04-07T15:00:15Z</time>
      </trkpt>
      <trkpt lat="60.56622" lon="7.46994">
        <ele>1454.61</ele>
        <time>2019-04-07T15:00:19Z</time>
      </trkpt>
      <trkpt lat="60.56631" lon="7.47014">
        <ele>1451.73</ele>
        <time>2019-04-07T15:00:21Z</time>
      </trkpt>
      <trkpt lat="60.56646" lon="7.47053">
        <ele>1445.96</ele>
        <time>2019-04-07T15:00:25Z</time>
      </trkpt>
      <trkpt lat="60.56659" lon="7.47082">
        <ele>1442.6</ele>
        <time>2019-04-07T15:00:28Z</time>
      </trkpt>
      <trkpt lat="60.56671" lon="7.47112">
        <ele>1439.23</ele>
        <time>2019-04-07T15:00:31Z</time>
      </trkpt>
      <trkpt lat="60.56683" lon="7.47141">
        <ele>1435.87</ele>
        <time>2019-04-07T15:00:34Z</time>
      </trkpt>
      <trkpt lat="60.56699" lon="7.47179">
        <ele>1431.54</ele>
        <time>2019-04-07T15:00:38Z</time>
      </trkpt>
      <trkpt lat="60.56712" lon="7.47213">
        <ele>1428.66</ele>
        <time>2019-04-07T15:00:42Z</time>
      </trkpt>
      <trkpt lat="60.56731" lon="7.47251">
        <ele>1423.85</ele>
        <time>2019-04-07T15:00:47Z</time>
      </trkpt>
      <trkpt lat="60.56743" lon="7.47272">
        <ele>1420.49</ele>
        <time>2019-04-07T15:00:50Z</time>
      </trkpt>
      <trkpt lat="60.56746" lon="7.4728">
        <ele>1420.49</ele>
        <time>2019-04-07T15:00:51Z</time>
      </trkpt>
      <trkpt lat="60.56758" lon="7.47316">
        <ele>1417.12</ele>
        <time>2019-04-07T15:00:55Z</time>
      </trkpt>
      <trkpt lat="60.56768" lon="7.47353">
        <ele>1413.76</ele>
        <time>2019-04-07T15:00:59Z</time>
      </trkpt>
      <trkpt lat="60.56777" lon="7.4738">
        <ele>1410.87</ele>
        <time>2019-04-07T15:01:02Z</time>
      </trkpt>
      <trkpt lat="60.5679" lon="7.4742">
        <ele>1407.51</ele>
        <time>2019-04-07T15:01:07Z</time>
      </trkpt>
      <trkpt lat="60.56797" lon="7.47436">
        <ele>1405.58</ele>
        <time>2019-04-07T15:01:10Z</time>
      </trkpt>
      <trkpt lat="60.56804" lon="7.47442">
        <ele>1404.14</ele>
        <time>2019-04-07T15:01:19Z</time>
      </trkpt>
      <trkpt lat="60.56801" lon="7.47441">
        <ele>1404.14</ele>
        <time>2019-04-07T15:01:34Z</time>
      </trkpt>
      <trkpt lat="60.568" lon="7.47441">
        <ele>1405.1</ele>
        <time>2019-04-07T15:01:53Z</time>
      </trkpt>
      <trkpt lat="60.568" lon="7.47438">
        <ele>1405.1</ele>
        <time>2019-04-07T15:02:09Z</time>
      </trkpt>
      <trkpt lat="60.56801" lon="7.47433">
        <ele>1405.1</ele>
        <time>2019-04-07T15:02:29Z</time>
      </trkpt>
      <trkpt lat="60.56804" lon="7.47429">
        <ele>1405.1</ele>
        <time>2019-04-07T15:02:41Z</time>
      </trkpt>
      <trkpt lat="60.56804" lon="7.47429">
        <ele>1405.1</ele>
        <time>2019-04-07T15:03:00Z</time>
      </trkpt>
      <trkpt lat="60.56802" lon="7.47424">
        <ele>1405.1</ele>
        <time>2019-04-07T15:03:13Z</time>
      </trkpt>
      <trkpt lat="60.56799" lon="7.47416">
        <ele>1405.1</ele>
        <time>2019-04-07T15:03:27Z</time>
      </trkpt>
      <trkpt lat="60.56797" lon="7.47411">
        <ele>1405.1</ele>
        <time>2019-04-07T15:03:47Z</time>
      </trkpt>
      <trkpt lat="60.56802" lon="7.47406">
        <ele>1405.1</ele>
        <time>2019-04-07T15:04:21Z</time>
      </trkpt>
      <trkpt lat="60.56798" lon="7.47405">
        <ele>1405.1</ele>
        <time>2019-04-07T15:04:49Z</time>
      </trkpt>
      <trkpt lat="60.56797" lon="7.47409">
        <ele>1405.1</ele>
        <time>2019-04-07T15:05:01Z</time>
      </trkpt>
      <trkpt lat="60.56795" lon="7.47408">
        <ele>1405.1</ele>
        <time>2019-04-07T15:05:05Z</time>
      </trkpt>
      <trkpt lat="60.56797" lon="7.47403">
        <ele>1405.58</ele>
        <time>2019-04-07T15:05:20Z</time>
      </trkpt>
      <trkpt lat="60.56796" lon="7.47402">
        <ele>1405.58</ele>
        <time>2019-04-07T15:05:40Z</time>
      </trkpt>
      <trkpt lat="60.56797" lon="7.474">
        <ele>1401.74</ele>
        <time>2019-04-07T15:05:44Z</time>
      </trkpt>
      <trkpt lat="60.56797" lon="7.47399">
        <ele>1407.99</ele>
        <time>2019-04-07T15:05:45Z</time>
      </trkpt>
      <trkpt lat="60.56797" lon="7.47399">
        <ele>1403.66</ele>
        <time>2019-04-07T15:05:46Z</time>
      </trkpt>
      <trkpt lat="60.56794" lon="7.47403">
        <ele>1404.62</ele>
        <time>2019-04-07T15:05:59Z</time>
      </trkpt>
      <trkpt lat="60.56797" lon="7.47409">
        <ele>1405.1</ele>
        <time>2019-04-07T15:06:12Z</time>
      </trkpt>
      <trkpt lat="60.56796" lon="7.47406">
        <ele>1405.1</ele>
        <time>2019-04-07T15:06:23Z</time>
      </trkpt>
      <trkpt lat="60.56798" lon="7.47409">
        <ele>1404.62</ele>
        <time>2019-04-07T15:06:27Z</time>
      </trkpt>
      <trkpt lat="60.56798" lon="7.47404">
        <ele>1405.1</ele>
        <time>2019-04-07T15:06:42Z</time>
      </trkpt>
      <trkpt lat="60.56798" lon="7.47411">
        <ele>1404.14</ele>
        <time>2019-04-07T15:06:54Z</time>
      </trkpt>
      <trkpt lat="60.56799" lon="7.4741">
        <ele>1405.58</ele>
        <time>2019-04-07T15:07:10Z</time>
      </trkpt>
      <trkpt lat="60.56799" lon="7.4741">
        <ele>1404.62</ele>
        <time>2019-04-07T15:07:12Z</time>
      </trkpt>
      <trkpt lat="60.56797" lon="7.4741">
        <ele>1405.1</ele>
        <time>2019-04-07T15:07:27Z</time>
      </trkpt>
      <trkpt lat="60.56797" lon="7.47409">
        <ele>1405.1</ele>
        <time>2019-04-07T15:07:44Z</time>
      </trkpt>
      <trkpt lat="60.56797" lon="7.4741">
        <ele>1401.74</ele>
        <time>2019-04-07T15:07:52Z</time>
      </trkpt>
      <trkpt lat="60.56797" lon="7.47409">
        <ele>1404.62</ele>
        <time>2019-04-07T15:07:55Z</time>
      </trkpt>
      <trkpt lat="60.56797" lon="7.47408">
        <ele>1405.1</ele>
        <time>2019-04-07T15:08:10Z</time>
      </trkpt>
      <trkpt lat="60.56798" lon="7.47408">
        <ele>1403.18</ele>
        <time>2019-04-07T15:08:22Z</time>
      </trkpt>
      <trkpt lat="60.568" lon="7.47405">
        <ele>1403.18</ele>
        <time>2019-04-07T15:08:52Z</time>
      </trkpt>
      <trkpt lat="60.568" lon="7.47403">
        <ele>1403.66</ele>
        <time>2019-04-07T15:09:21Z</time>
      </trkpt>
      <trkpt lat="60.568" lon="7.47406">
        <ele>1403.66</ele>
        <time>2019-04-07T15:09:46Z</time>
      </trkpt>
      <trkpt lat="60.56801" lon="7.47406">
        <ele>1404.14</ele>
        <time>2019-04-07T15:10:14Z</time>
      </trkpt>
      <trkpt lat="60.56801" lon="7.47407">
        <ele>1404.14</ele>
        <time>2019-04-07T15:10:44Z</time>
      </trkpt>
      <trkpt lat="60.56801" lon="7.47407">
        <ele>1404.14</ele>
        <time>2019-04-07T15:10:45Z</time>
      </trkpt>
      <trkpt lat="60.56798" lon="7.47404">
        <ele>1405.1</ele>
        <time>2019-04-07T15:10:54Z</time>
      </trkpt>
      <trkpt lat="60.56798" lon="7.47406">
        <ele>1405.58</ele>
        <time>2019-04-07T15:11:09Z</time>
      </trkpt>
      <trkpt lat="60.56799" lon="7.47404">
        <ele>1405.58</ele>
        <time>2019-04-07T15:11:30Z</time>
      </trkpt>
      <trkpt lat="60.56799" lon="7.47406">
        <ele>1405.58</ele>
        <time>2019-04-07T15:11:52Z</time>
      </trkpt>
      <trkpt lat="60.56804" lon="7.47434">
        <ele>1405.58</ele>
        <time>2019-04-07T15:12:08Z</time>
      </trkpt>
      <trkpt lat="60.56804" lon="7.47438">
        <ele>1406.07</ele>
        <time>2019-04-07T15:12:21Z</time>
      </trkpt>
      <trkpt lat="60.56802" lon="7.47436">
        <ele>1406.07</ele>
        <time>2019-04-07T15:12:47Z</time>
      </trkpt>
      <trkpt lat="60.56805" lon="7.47444">
        <ele>1406.55</ele>
        <time>2019-04-07T15:13:00Z</time>
      </trkpt>
      <trkpt lat="60.56817" lon="7.47465">
        <ele>1406.55</ele>
        <time>2019-04-07T15:13:11Z</time>
      </trkpt>
      <trkpt lat="60.56815" lon="7.47463">
        <ele>1405.1</ele>
        <time>2019-04-07T15:13:17Z</time>
      </trkpt>
      <trkpt lat="60.5682" lon="7.4747">
        <ele>1405.1</ele>
        <time>2019-04-07T15:13:30Z</time>
      </trkpt>
      <trkpt lat="60.56834" lon="7.475">
        <ele>1405.1</ele>
        <time>2019-04-07T15:13:42Z</time>
      </trkpt>
      <trkpt lat="60.56855" lon="7.47535">
        <ele>1405.1</ele>
        <time>2019-04-07T15:13:55Z</time>
      </trkpt>
      <trkpt lat="60.56868" lon="7.47561">
        <ele>1405.1</ele>
        <time>2019-04-07T15:14:09Z</time>
      </trkpt>
      <trkpt lat="60.56873" lon="7.47568">
        <ele>1405.1</ele>
        <time>2019-04-07T15:14:16Z</time>
      </trkpt>
      <trkpt lat="60.56881" lon="7.47581">
        <ele>1405.1</ele>
        <time>2019-04-07T15:14:28Z</time>
      </trkpt>
      <trkpt lat="60.56882" lon="7.47585">
        <ele>1406.07</ele>
        <time>2019-04-07T15:14:31Z</time>
      </trkpt>
      <trkpt lat="60.56885" lon="7.47597">
        <ele>1406.55</ele>
        <time>2019-04-07T15:14:42Z</time>
      </trkpt>
      <trkpt lat="60.56888" lon="7.47606">
        <ele>1407.03</ele>
        <time>2019-04-07T15:14:50Z</time>
      </trkpt>
      <trkpt lat="60.56888" lon="7.47625">
        <ele>1407.99</ele>
        <time>2019-04-07T15:15:05Z</time>
      </trkpt>
      <trkpt lat="60.5689" lon="7.47635">
        <ele>1408.47</ele>
        <time>2019-04-07T15:15:13Z</time>
      </trkpt>
      <trkpt lat="60.56894" lon="7.47653">
        <ele>1409.43</ele>
        <time>2019-04-07T15:15:27Z</time>
      </trkpt>
      <trkpt lat="60.56897" lon="7.4767">
        <ele>1410.39</ele>
        <time>2019-04-07T15:15:40Z</time>
      </trkpt>
      <trkpt lat="60.56904" lon="7.47689">
        <ele>1411.35</ele>
        <time>2019-04-07T15:15:55Z</time>
      </trkpt>
      <trkpt lat="60.5691" lon="7.47703">
        <ele>1412.31</ele>
        <time>2019-04-07T15:16:08Z</time>
      </trkpt>
      <trkpt lat="60.56915" lon="7.47718">
        <ele>1412.31</ele>
        <time>2019-04-07T15:16:21Z</time>
      </trkpt>
      <trkpt lat="60.56916" lon="7.47722">
        <ele>1412.31</ele>
        <time>2019-04-07T15:16:24Z</time>
      </trkpt>
      <trkpt lat="60.56917" lon="7.47726">
        <ele>1412.31</ele>
        <time>2019-04-07T15:16:26Z</time>
      </trkpt>
      <trkpt lat="60.56927" lon="7.47763">
        <ele>1412.79</ele>
        <time>2019-04-07T15:16:40Z</time>
      </trkpt>
      <trkpt lat="60.56935" lon="7.47807">
        <ele>1412.79</ele>
        <time>2019-04-07T15:16:51Z</time>
      </trkpt>
      <trkpt lat="60.56947" lon="7.47868">
        <ele>1410.87</ele>
        <time>2019-04-07T15:17:05Z</time>
      </trkpt>
      <trkpt lat="60.5696" lon="7.47929">
        <ele>1409.91</ele>
        <time>2019-04-07T15:17:18Z</time>
      </trkpt>
      <trkpt lat="60.56979" lon="7.47974">
        <ele>1408.47</ele>
        <time>2019-04-07T15:17:31Z</time>
      </trkpt>
      <trkpt lat="60.56986" lon="7.48026">
        <ele>1406.55</ele>
        <time>2019-04-07T15:17:42Z</time>
      </trkpt>
      <trkpt lat="60.56987" lon="7.48106">
        <ele>1403.66</ele>
        <time>2019-04-07T15:17:54Z</time>
      </trkpt>
      <trkpt lat="60.56984" lon="7.48141">
        <ele>1401.74</ele>
        <time>2019-04-07T15:17:58Z</time>
      </trkpt>
      <trkpt lat="60.56982" lon="7.48169">
        <ele>1399.34</ele>
        <time>2019-04-07T15:18:01Z</time>
      </trkpt>
      <trkpt lat="60.56973" lon="7.48216">
        <ele>1395.97</ele>
        <time>2019-04-07T15:18:06Z</time>
      </trkpt>
      <trkpt lat="60.5697" lon="7.48234">
        <ele>1394.53</ele>
        <time>2019-04-07T15:18:08Z</time>
      </trkpt>
      <trkpt lat="60.56971" lon="7.4825">
        <ele>1393.09</ele>
        <time>2019-04-07T15:18:10Z</time>
      </trkpt>
      <trkpt lat="60.56968" lon="7.48267">
        <ele>1390.68</ele>
        <time>2019-04-07T15:18:12Z</time>
      </trkpt>
      <trkpt lat="60.56958" lon="7.48304">
        <ele>1386.84</ele>
        <time>2019-04-07T15:18:16Z</time>
      </trkpt>
      <trkpt lat="60.56956" lon="7.48312">
        <ele>1386.84</ele>
        <time>2019-04-07T15:18:17Z</time>
      </trkpt>
      <trkpt lat="60.56952" lon="7.48342">
        <ele>1382.99</ele>
        <time>2019-04-07T15:18:21Z</time>
      </trkpt>
      <trkpt lat="60.5695" lon="7.48365">
        <ele>1380.11</ele>
        <time>2019-04-07T15:18:24Z</time>
      </trkpt>
      <trkpt lat="60.56963" lon="7.48395">
        <ele>1374.82</ele>
        <time>2019-04-07T15:18:28Z</time>
      </trkpt>
      <trkpt lat="60.56965" lon="7.48427">
        <ele>1371.46</ele>
        <time>2019-04-07T15:18:31Z</time>
      </trkpt>
      <trkpt lat="60.56968" lon="7.48448">
        <ele>1370.5</ele>
        <time>2019-04-07T15:18:33Z</time>
      </trkpt>
      <trkpt lat="60.56986" lon="7.48506">
        <ele>1363.77</ele>
        <time>2019-04-07T15:18:40Z</time>
      </trkpt>
      <trkpt lat="60.5699" lon="7.48509">
        <ele>1363.77</ele>
        <time>2019-04-07T15:18:41Z</time>
      </trkpt>
      <trkpt lat="60.57001" lon="7.48513">
        <ele>1361.84</ele>
        <time>2019-04-07T15:18:43Z</time>
      </trkpt>
      <trkpt lat="60.57016" lon="7.48532">
        <ele>1358</ele>
        <time>2019-04-07T15:18:46Z</time>
      </trkpt>
      <trkpt lat="60.57019" lon="7.48542">
        <ele>1358</ele>
        <time>2019-04-07T15:18:47Z</time>
      </trkpt>
      <trkpt lat="60.57025" lon="7.48574">
        <ele>1353.67</ele>
        <time>2019-04-07T15:18:50Z</time>
      </trkpt>
      <trkpt lat="60.57042" lon="7.48622">
        <ele>1349.83</ele>
        <time>2019-04-07T15:18:54Z</time>
      </trkpt>
      <trkpt lat="60.57061" lon="7.48658">
        <ele>1348.39</ele>
        <time>2019-04-07T15:19:01Z</time>
      </trkpt>
      <trkpt lat="60.57074" lon="7.48699">
        <ele>1343.58</ele>
        <time>2019-04-07T15:19:05Z</time>
      </trkpt>
      <trkpt lat="60.57078" lon="7.48708">
        <ele>1344.06</ele>
        <time>2019-04-07T15:19:06Z</time>
      </trkpt>
      <trkpt lat="60.57082" lon="7.48716">
        <ele>1343.1</ele>
        <time>2019-04-07T15:19:07Z</time>
      </trkpt>
      <trkpt lat="60.57108" lon="7.4877">
        <ele>1338.77</ele>
        <time>2019-04-07T15:19:14Z</time>
      </trkpt>
      <trkpt lat="60.57113" lon="7.48778">
        <ele>1338.77</ele>
        <time>2019-04-07T15:19:15Z</time>
      </trkpt>
      <trkpt lat="60.57122" lon="7.48796">
        <ele>1336.85</ele>
        <time>2019-04-07T15:19:17Z</time>
      </trkpt>
      <trkpt lat="60.5713" lon="7.48817">
        <ele>1334.93</ele>
        <time>2019-04-07T15:19:19Z</time>
      </trkpt>
      <trkpt lat="60.57143" lon="7.4884">
        <ele>1333.97</ele>
        <time>2019-04-07T15:19:23Z</time>
      </trkpt>
      <trkpt lat="60.57144" lon="7.48855">
        <ele>1332.52</ele>
        <time>2019-04-07T15:19:25Z</time>
      </trkpt>
      <trkpt lat="60.57142" lon="7.48873">
        <ele>1331.56</ele>
        <time>2019-04-07T15:19:27Z</time>
      </trkpt>
      <trkpt lat="60.57148" lon="7.48917">
        <ele>1327.24</ele>
        <time>2019-04-07T15:19:32Z</time>
      </trkpt>
      <trkpt lat="60.57151" lon="7.48922">
        <ele>1327.24</ele>
        <time>2019-04-07T15:19:33Z</time>
      </trkpt>
      <trkpt lat="60.57157" lon="7.48938">
        <ele>1325.31</ele>
        <time>2019-04-07T15:19:35Z</time>
      </trkpt>
      <trkpt lat="60.57172" lon="7.48979">
        <ele>1322.43</ele>
        <time>2019-04-07T15:19:40Z</time>
      </trkpt>
      <trkpt lat="60.57183" lon="7.49004">
        <ele>1320.51</ele>
        <time>2019-04-07T15:19:43Z</time>
      </trkpt>
      <trkpt lat="60.57196" lon="7.49037">
        <ele>1316.66</ele>
        <time>2019-04-07T15:19:47Z</time>
      </trkpt>
      <trkpt lat="60.57199" lon="7.49046">
        <ele>1316.66</ele>
        <time>2019-04-07T15:19:48Z</time>
      </trkpt>
      <trkpt lat="60.57207" lon="7.4906">
        <ele>1315.22</ele>
        <time>2019-04-07T15:19:50Z</time>
      </trkpt>
      <trkpt lat="60.57224" lon="7.49102">
        <ele>1311.86</ele>
        <time>2019-04-07T15:19:55Z</time>
      </trkpt>
      <trkpt lat="60.57239" lon="7.49137">
        <ele>1308.01</ele>
        <time>2019-04-07T15:19:59Z</time>
      </trkpt>
      <trkpt lat="60.57253" lon="7.49174">
        <ele>1305.13</ele>
        <time>2019-04-07T15:20:03Z</time>
      </trkpt>
      <trkpt lat="60.57261" lon="7.49188">
        <ele>1303.69</ele>
        <time>2019-04-07T15:20:05Z</time>
      </trkpt>
      <trkpt lat="60.57287" lon="7.49221">
        <ele>1299.84</ele>
        <time>2019-04-07T15:20:10Z</time>
      </trkpt>
      <trkpt lat="60.57293" lon="7.49228">
        <ele>1299.84</ele>
        <time>2019-04-07T15:20:11Z</time>
      </trkpt>
      <trkpt lat="60.57316" lon="7.4926">
        <ele>1297.92</ele>
        <time>2019-04-07T15:20:15Z</time>
      </trkpt>
      <trkpt lat="60.57345" lon="7.49304">
        <ele>1294.07</ele>
        <time>2019-04-07T15:20:20Z</time>
      </trkpt>
      <trkpt lat="60.57351" lon="7.49313">
        <ele>1293.59</ele>
        <time>2019-04-07T15:20:21Z</time>
      </trkpt>
      <trkpt lat="60.57367" lon="7.49347">
        <ele>1291.67</ele>
        <time>2019-04-07T15:20:25Z</time>
      </trkpt>
      <trkpt lat="60.57392" lon="7.49383">
        <ele>1288.3</ele>
        <time>2019-04-07T15:20:30Z</time>
      </trkpt>
      <trkpt lat="60.57397" lon="7.49391">
        <ele>1288.3</ele>
        <time>2019-04-07T15:20:31Z</time>
      </trkpt>
      <trkpt lat="60.57427" lon="7.49442">
        <ele>1284.94</ele>
        <time>2019-04-07T15:20:37Z</time>
      </trkpt>
      <trkpt lat="60.57432" lon="7.49452">
        <ele>1284.94</ele>
        <time>2019-04-07T15:20:38Z</time>
      </trkpt>
      <trkpt lat="60.57441" lon="7.49472">
        <ele>1283.5</ele>
        <time>2019-04-07T15:20:40Z</time>
      </trkpt>
      <trkpt lat="60.57454" lon="7.49508">
        <ele>1282.54</ele>
        <time>2019-04-07T15:20:43Z</time>
      </trkpt>
      <trkpt lat="60.57462" lon="7.49531">
        <ele>1281.09</ele>
        <time>2019-04-07T15:20:45Z</time>
      </trkpt>
      <trkpt lat="60.57497" lon="7.49613">
        <ele>1277.73</ele>
        <time>2019-04-07T15:20:54Z</time>
      </trkpt>
      <trkpt lat="60.57537" lon="7.49682">
        <ele>1276.77</ele>
        <time>2019-04-07T15:21:07Z</time>
      </trkpt>
      <trkpt lat="60.57574" lon="7.49761">
        <ele>1274.85</ele>
        <time>2019-04-07T15:21:22Z</time>
      </trkpt>
      <trkpt lat="60.57599" lon="7.49819">
        <ele>1274.36</ele>
        <time>2019-04-07T15:21:35Z</time>
      </trkpt>
      <trkpt lat="60.57622" lon="7.49867">
        <ele>1273.4</ele>
        <time>2019-04-07T15:21:48Z</time>
      </trkpt>
      <trkpt lat="60.57645" lon="7.49934">
        <ele>1271.96</ele>
        <time>2019-04-07T15:22:02Z</time>
      </trkpt>
      <trkpt lat="60.5767" lon="7.50003">
        <ele>1270.52</ele>
        <time>2019-04-07T15:22:16Z</time>
      </trkpt>
      <trkpt lat="60.57682" lon="7.50019">
        <ele>1270.04</ele>
        <time>2019-04-07T15:22:21Z</time>
      </trkpt>
      <trkpt lat="60.57686" lon="7.50022">
        <ele>1269.56</ele>
        <time>2019-04-07T15:22:32Z</time>
      </trkpt>
      <trkpt lat="60.57689" lon="7.50026">
        <ele>1268.12</ele>
        <time>2019-04-07T15:22:45Z</time>
      </trkpt>
      <trkpt lat="60.5769" lon="7.50022">
        <ele>1267.64</ele>
        <time>2019-04-07T15:22:47Z</time>
      </trkpt>
      <trkpt lat="60.57709" lon="7.5005">
        <ele>1266.67</ele>
        <time>2019-04-07T15:22:57Z</time>
      </trkpt>
      <trkpt lat="60.57735" lon="7.50084">
        <ele>1265.23</ele>
        <time>2019-04-07T15:23:06Z</time>
      </trkpt>
      <trkpt lat="60.57776" lon="7.5013">
        <ele>1262.83</ele>
        <time>2019-04-07T15:23:20Z</time>
      </trkpt>
      <trkpt lat="60.57811" lon="7.50144">
        <ele>1261.87</ele>
        <time>2019-04-07T15:23:34Z</time>
      </trkpt>
      <trkpt lat="60.57835" lon="7.50143">
        <ele>1261.39</ele>
        <time>2019-04-07T15:23:43Z</time>
      </trkpt>
      <trkpt lat="60.57854" lon="7.50137">
        <ele>1261.87</ele>
        <time>2019-04-07T15:23:48Z</time>
      </trkpt>
      <trkpt lat="60.57883" lon="7.50147">
        <ele>1260.43</ele>
        <time>2019-04-07T15:23:59Z</time>
      </trkpt>
      <trkpt lat="60.57885" lon="7.50148">
        <ele>1260.43</ele>
        <time>2019-04-07T15:24:00Z</time>
      </trkpt>
      <trkpt lat="60.57918" lon="7.50161">
        <ele>1260.43</ele>
        <time>2019-04-07T15:24:13Z</time>
      </trkpt>
      <trkpt lat="60.57931" lon="7.50167">
        <ele>1258.02</ele>
        <time>2019-04-07T15:24:19Z</time>
      </trkpt>
      <trkpt lat="60.57935" lon="7.50169">
        <ele>1259.46</ele>
        <time>2019-04-07T15:24:21Z</time>
      </trkpt>
      <trkpt lat="60.57962" lon="7.50188">
        <ele>1258.02</ele>
        <time>2019-04-07T15:24:35Z</time>
      </trkpt>
      <trkpt lat="60.57986" lon="7.50196">
        <ele>1258.02</ele>
        <time>2019-04-07T15:24:48Z</time>
      </trkpt>
      <trkpt lat="60.58013" lon="7.5019">
        <ele>1258.5</ele>
        <time>2019-04-07T15:25:00Z</time>
      </trkpt>
      <trkpt lat="60.58019" lon="7.50189">
        <ele>1257.06</ele>
        <time>2019-04-07T15:25:02Z</time>
      </trkpt>
      <trkpt lat="60.5805" lon="7.50196">
        <ele>1256.1</ele>
        <time>2019-04-07T15:25:15Z</time>
      </trkpt>
      <trkpt lat="60.58052" lon="7.50198">
        <ele>1256.1</ele>
        <time>2019-04-07T15:25:18Z</time>
      </trkpt>
      <trkpt lat="60.58068" lon="7.50204">
        <ele>1256.1</ele>
        <time>2019-04-07T15:25:31Z</time>
      </trkpt>
      <trkpt lat="60.58078" lon="7.50202">
        <ele>1257.54</ele>
        <time>2019-04-07T15:25:45Z</time>
      </trkpt>
      <trkpt lat="60.58081" lon="7.502">
        <ele>1257.54</ele>
        <time>2019-04-07T15:25:50Z</time>
      </trkpt>
      <trkpt lat="60.58104" lon="7.50179">
        <ele>1257.54</ele>
        <time>2019-04-07T15:26:05Z</time>
      </trkpt>
      <trkpt lat="60.58113" lon="7.50168">
        <ele>1255.62</ele>
        <time>2019-04-07T15:26:09Z</time>
      </trkpt>
      <trkpt lat="60.58146" lon="7.50149">
        <ele>1252.25</ele>
        <time>2019-04-07T15:26:16Z</time>
      </trkpt>
      <trkpt lat="60.58154" lon="7.50147">
        <ele>1252.25</ele>
        <time>2019-04-07T15:26:17Z</time>
      </trkpt>
      <trkpt lat="60.58175" lon="7.50144">
        <ele>1249.37</ele>
        <time>2019-04-07T15:26:20Z</time>
      </trkpt>
      <trkpt lat="60.58181" lon="7.50143">
        <ele>1249.37</ele>
        <time>2019-04-07T15:26:21Z</time>
      </trkpt>
      <trkpt lat="60.58186" lon="7.50141">
        <ele>1249.37</ele>
        <time>2019-04-07T15:26:22Z</time>
      </trkpt>
      <trkpt lat="60.58214" lon="7.5014">
        <ele>1249.85</ele>
        <time>2019-04-07T15:26:34Z</time>
      </trkpt>
      <trkpt lat="60.58236" lon="7.50135">
        <ele>1249.37</ele>
        <time>2019-04-07T15:26:47Z</time>
      </trkpt>
      <trkpt lat="60.5825" lon="7.50131">
        <ele>1249.37</ele>
        <time>2019-04-07T15:26:58Z</time>
      </trkpt>
      <trkpt lat="60.58264" lon="7.5013">
        <ele>1249.37</ele>
        <time>2019-04-07T15:27:13Z</time>
      </trkpt>
      <trkpt lat="60.58276" lon="7.50128">
        <ele>1250.81</ele>
        <time>2019-04-07T15:27:24Z</time>
      </trkpt>
      <trkpt lat="60.58289" lon="7.50126">
        <ele>1251.77</ele>
        <time>2019-04-07T15:27:39Z</time>
      </trkpt>
      <trkpt lat="60.58305" lon="7.50119">
        <ele>1251.77</ele>
        <time>2019-04-07T15:27:52Z</time>
      </trkpt>
      <trkpt lat="60.58331" lon="7.50099">
        <ele>1251.77</ele>
        <time>2019-04-07T15:28:03Z</time>
      </trkpt>
      <trkpt lat="60.58371" lon="7.50088">
        <ele>1248.41</ele>
        <time>2019-04-07T15:28:14Z</time>
      </trkpt>
      <trkpt lat="60.58375" lon="7.50089">
        <ele>1248.41</ele>
        <time>2019-04-07T15:28:15Z</time>
      </trkpt>
      <trkpt lat="60.58399" lon="7.50102">
        <ele>1248.41</ele>
        <time>2019-04-07T15:28:25Z</time>
      </trkpt>
      <trkpt lat="60.58428" lon="7.50119">
        <ele>1248.41</ele>
        <time>2019-04-07T15:28:39Z</time>
      </trkpt>
      <trkpt lat="60.58452" lon="7.50137">
        <ele>1248.41</ele>
        <time>2019-04-07T15:28:53Z</time>
      </trkpt>
      <trkpt lat="60.58465" lon="7.50147">
        <ele>1249.85</ele>
        <time>2019-04-07T15:29:11Z</time>
      </trkpt>
      <trkpt lat="60.58485" lon="7.50163">
        <ele>1250.33</ele>
        <time>2019-04-07T15:29:24Z</time>
      </trkpt>
      <trkpt lat="60.58493" lon="7.5017">
        <ele>1250.33</ele>
        <time>2019-04-07T15:29:33Z</time>
      </trkpt>
      <trkpt lat="60.58501" lon="7.50174">
        <ele>1251.29</ele>
        <time>2019-04-07T15:29:45Z</time>
      </trkpt>
      <trkpt lat="60.58519" lon="7.50186">
        <ele>1251.29</ele>
        <time>2019-04-07T15:29:55Z</time>
      </trkpt>
      <trkpt lat="60.58536" lon="7.5019">
        <ele>1249.37</ele>
        <time>2019-04-07T15:30:01Z</time>
      </trkpt>
      <trkpt lat="60.58554" lon="7.50195">
        <ele>1250.33</ele>
        <time>2019-04-07T15:30:12Z</time>
      </trkpt>
      <trkpt lat="60.58576" lon="7.50218">
        <ele>1248.89</ele>
        <time>2019-04-07T15:30:22Z</time>
      </trkpt>
      <trkpt lat="60.58593" lon="7.50222">
        <ele>1248.41</ele>
        <time>2019-04-07T15:30:31Z</time>
      </trkpt>
      <trkpt lat="60.58603" lon="7.50223">
        <ele>1249.85</ele>
        <time>2019-04-07T15:30:45Z</time>
      </trkpt>
      <trkpt lat="60.58604" lon="7.50224">
        <ele>1249.85</ele>
        <time>2019-04-07T15:30:47Z</time>
      </trkpt>
      <trkpt lat="60.58617" lon="7.50238">
        <ele>1250.33</ele>
        <time>2019-04-07T15:31:00Z</time>
      </trkpt>
      <trkpt lat="60.58639" lon="7.50257">
        <ele>1250.81</ele>
        <time>2019-04-07T15:31:13Z</time>
      </trkpt>
      <trkpt lat="60.58642" lon="7.50265">
        <ele>1251.29</ele>
        <time>2019-04-07T15:31:20Z</time>
      </trkpt>
      <trkpt lat="60.58647" lon="7.50282">
        <ele>1251.77</ele>
        <time>2019-04-07T15:31:34Z</time>
      </trkpt>
      <trkpt lat="60.58657" lon="7.50292">
        <ele>1252.74</ele>
        <time>2019-04-07T15:31:47Z</time>
      </trkpt>
      <trkpt lat="60.58676" lon="7.50314">
        <ele>1251.77</ele>
        <time>2019-04-07T15:31:57Z</time>
      </trkpt>
      <trkpt lat="60.58711" lon="7.50362">
        <ele>1249.37</ele>
        <time>2019-04-07T15:32:11Z</time>
      </trkpt>
      <trkpt lat="60.5873" lon="7.50373">
        <ele>1246.49</ele>
        <time>2019-04-07T15:32:16Z</time>
      </trkpt>
      <trkpt lat="60.58745" lon="7.50397">
        <ele>1244.56</ele>
        <time>2019-04-07T15:32:20Z</time>
      </trkpt>
      <trkpt lat="60.58757" lon="7.50443">
        <ele>1241.2</ele>
        <time>2019-04-07T15:32:25Z</time>
      </trkpt>
      <trkpt lat="60.58757" lon="7.50453">
        <ele>1241.2</ele>
        <time>2019-04-07T15:32:26Z</time>
      </trkpt>
      <trkpt lat="60.58759" lon="7.50461">
        <ele>1238.8</ele>
        <time>2019-04-07T15:32:29Z</time>
      </trkpt>
      <trkpt lat="60.58759" lon="7.50463">
        <ele>1238.8</ele>
        <time>2019-04-07T15:32:32Z</time>
      </trkpt>
      <trkpt lat="60.5876" lon="7.50504">
        <ele>1235.43</ele>
        <time>2019-04-07T15:32:39Z</time>
      </trkpt>
      <trkpt lat="60.58766" lon="7.50515">
        <ele>1234.47</ele>
        <time>2019-04-07T15:32:41Z</time>
      </trkpt>
      <trkpt lat="60.58809" lon="7.50548">
        <ele>1230.62</ele>
        <time>2019-04-07T15:32:53Z</time>
      </trkpt>
      <trkpt lat="60.58861" lon="7.5058">
        <ele>1227.26</ele>
        <time>2019-04-07T15:33:07Z</time>
      </trkpt>
      <trkpt lat="60.58908" lon="7.50607">
        <ele>1222.93</ele>
        <time>2019-04-07T15:33:17Z</time>
      </trkpt>
      <trkpt lat="60.58915" lon="7.50611">
        <ele>1225.82</ele>
        <time>2019-04-07T15:33:19Z</time>
      </trkpt>
      <trkpt lat="60.58958" lon="7.50636">
        <ele>1223.42</ele>
        <time>2019-04-07T15:33:33Z</time>
      </trkpt>
      <trkpt lat="60.59003" lon="7.50664">
        <ele>1220.53</ele>
        <time>2019-04-07T15:33:48Z</time>
      </trkpt>
      <trkpt lat="60.59045" lon="7.50691">
        <ele>1217.65</ele>
        <time>2019-04-07T15:33:56Z</time>
      </trkpt>
      <trkpt lat="60.59079" lon="7.50717">
        <ele>1214.28</ele>
        <time>2019-04-07T15:34:02Z</time>
      </trkpt>
      <trkpt lat="60.59085" lon="7.50721">
        <ele>1214.28</ele>
        <time>2019-04-07T15:34:03Z</time>
      </trkpt>
      <trkpt lat="60.5914" lon="7.50762">
        <ele>1210.92</ele>
        <time>2019-04-07T15:34:14Z</time>
      </trkpt>
      <trkpt lat="60.59193" lon="7.50808">
        <ele>1209.96</ele>
        <time>2019-04-07T15:34:30Z</time>
      </trkpt>
      <trkpt lat="60.5923" lon="7.50838">
        <ele>1209</ele>
        <time>2019-04-07T15:34:43Z</time>
      </trkpt>
      <trkpt lat="60.59279" lon="7.50873">
        <ele>1209</ele>
        <time>2019-04-07T15:34:57Z</time>
      </trkpt>
      <trkpt lat="60.59308" lon="7.50891">
        <ele>1209</ele>
        <time>2019-04-07T15:35:10Z</time>
      </trkpt>
      <trkpt lat="60.59331" lon="7.50901">
        <ele>1207.55</ele>
        <time>2019-04-07T15:35:17Z</time>
      </trkpt>
      <trkpt lat="60.59384" lon="7.50915">
        <ele>1206.59</ele>
        <time>2019-04-07T15:35:31Z</time>
      </trkpt>
      <trkpt lat="60.59402" lon="7.50916">
        <ele>1206.59</ele>
        <time>2019-04-07T15:35:44Z</time>
      </trkpt>
      <trkpt lat="60.59414" lon="7.5092">
        <ele>1206.59</ele>
        <time>2019-04-07T15:35:55Z</time>
      </trkpt>
      <trkpt lat="60.59415" lon="7.50914">
        <ele>1206.59</ele>
        <time>2019-04-07T15:36:15Z</time>
      </trkpt>
      <trkpt lat="60.59418" lon="7.50916">
        <ele>1206.59</ele>
        <time>2019-04-07T15:36:38Z</time>
      </trkpt>
      <trkpt lat="60.59416" lon="7.50919">
        <ele>1206.59</ele>
        <time>2019-04-07T15:36:53Z</time>
      </trkpt>
      <trkpt lat="60.59416" lon="7.50923">
        <ele>1207.07</ele>
        <time>2019-04-07T15:37:27Z</time>
      </trkpt>
      <trkpt lat="60.59416" lon="7.50923">
        <ele>1207.07</ele>
        <time>2019-04-07T15:38:11Z</time>
      </trkpt>
      <trkpt lat="60.59416" lon="7.5092">
        <ele>1207.07</ele>
        <time>2019-04-07T15:38:46Z</time>
      </trkpt>
      <trkpt lat="60.59416" lon="7.50922">
        <ele>1207.55</ele>
        <time>2019-04-07T15:39:18Z</time>
      </trkpt>
      <trkpt lat="60.59414" lon="7.50924">
        <ele>1207.55</ele>
        <time>2019-04-07T15:39:55Z</time>
      </trkpt>
      <trkpt lat="60.59416" lon="7.5092">
        <ele>1207.55</ele>
        <time>2019-04-07T15:40:34Z</time>
      </trkpt>
      <trkpt lat="60.59416" lon="7.50921">
        <ele>1208.03</ele>
        <time>2019-04-07T15:41:13Z</time>
      </trkpt>
      <trkpt lat="60.59416" lon="7.50921">
        <ele>1208.03</ele>
        <time>2019-04-07T15:41:53Z</time>
      </trkpt>
      <trkpt lat="60.59417" lon="7.5092">
        <ele>1208.51</ele>
        <time>2019-04-07T15:42:47Z</time>
      </trkpt>
      <trkpt lat="60.59417" lon="7.50923">
        <ele>1208.51</ele>
        <time>2019-04-07T15:43:28Z</time>
      </trkpt>
      <trkpt lat="60.59416" lon="7.50921">
        <ele>1209</ele>
        <time>2019-04-07T15:44:06Z</time>
      </trkpt>
      <trkpt lat="60.59415" lon="7.50921">
        <ele>1209</ele>
        <time>2019-04-07T15:44:38Z</time>
      </trkpt>
      <trkpt lat="60.59415" lon="7.50923">
        <ele>1209</ele>
        <time>2019-04-07T15:45:10Z</time>
      </trkpt>
      <trkpt lat="60.59415" lon="7.50923">
        <ele>1209</ele>
        <time>2019-04-07T15:45:44Z</time>
      </trkpt>
      <trkpt lat="60.59415" lon="7.50923">
        <ele>1209.48</ele>
        <time>2019-04-07T15:46:30Z</time>
      </trkpt>
      <trkpt lat="60.59415" lon="7.50924">
        <ele>1209.48</ele>
        <time>2019-04-07T15:47:24Z</time>
      </trkpt>
      <trkpt lat="60.59416" lon="7.50922">
        <ele>1209.48</ele>
        <time>2019-04-07T15:48:12Z</time>
      </trkpt>
      <trkpt lat="60.59417" lon="7.50917">
        <ele>1210.92</ele>
        <time>2019-04-07T15:48:33Z</time>
      </trkpt>
      <trkpt lat="60.59416" lon="7.50916">
        <ele>1209.48</ele>
        <time>2019-04-07T15:49:02Z</time>
      </trkpt>
      <trkpt lat="60.59416" lon="7.50918">
        <ele>1209.48</ele>
        <time>2019-04-07T15:49:29Z</time>
      </trkpt>
      <trkpt lat="60.59416" lon="7.5092">
        <ele>1209.48</ele>
        <time>2019-04-07T15:50:05Z</time>
      </trkpt>
      <trkpt lat="60.59417" lon="7.5092">
        <ele>1209.48</ele>
        <time>2019-04-07T15:50:41Z</time>
      </trkpt>
      <trkpt lat="60.59417" lon="7.50919">
        <ele>1209.48</ele>
        <time>2019-04-07T15:51:24Z</time>
      </trkpt>
      <trkpt lat="60.59418" lon="7.50919">
        <ele>1209.48</ele>
        <time>2019-04-07T15:52:05Z</time>
      </trkpt>
      <trkpt lat="60.59419" lon="7.50922">
        <ele>1209.48</ele>
        <time>2019-04-07T15:52:40Z</time>
      </trkpt>
      <trkpt lat="60.59416" lon="7.50919">
        <ele>1209.48</ele>
        <time>2019-04-07T15:53:07Z</time>
      </trkpt>
      <trkpt lat="60.59416" lon="7.50917">
        <ele>1209.48</ele>
        <time>2019-04-07T15:53:51Z</time>
      </trkpt>
      <trkpt lat="60.59415" lon="7.50916">
        <ele>1209.48</ele>
        <time>2019-04-07T15:54:14Z</time>
      </trkpt>
      <trkpt lat="60.59415" lon="7.50921">
        <ele>1209.48</ele>
        <time>2019-04-07T15:54:46Z</time>
      </trkpt>
      <trkpt lat="60.59415" lon="7.50918">
        <ele>1209.48</ele>
        <time>2019-04-07T15:55:15Z</time>
      </trkpt>
      <trkpt lat="60.59416" lon="7.50915">
        <ele>1209.48</ele>
        <time>2019-04-07T15:55:51Z</time>
      </trkpt>
      <trkpt lat="60.59416" lon="7.50915">
        <ele>1209.96</ele>
        <time>2019-04-07T15:56:27Z</time>
      </trkpt>
      <trkpt lat="60.59417" lon="7.50917">
        <ele>1209.48</ele>
        <time>2019-04-07T15:57:01Z</time>
      </trkpt>
      <trkpt lat="60.59416" lon="7.50921">
        <ele>1209.48</ele>
        <time>2019-04-07T15:57:44Z</time>
      </trkpt>
      <trkpt lat="60.59416" lon="7.50916">
        <ele>1209.48</ele>
        <time>2019-04-07T15:58:16Z</time>
      </trkpt>
      <trkpt lat="60.59416" lon="7.50916">
        <ele>1209.48</ele>
        <time>2019-04-07T15:58:51Z</time>
      </trkpt>
      <trkpt lat="60.59418" lon="7.5092">
        <ele>1209.48</ele>
        <time>2019-04-07T15:59:17Z</time>
      </trkpt>
      <trkpt lat="60.59419" lon="7.50924">
        <ele>1209.48</ele>
        <time>2019-04-07T16:00:01Z</time>
      </trkpt>
      <trkpt lat="60.59418" lon="7.50923">
        <ele>1209.96</ele>
        <time>2019-04-07T16:00:48Z</time>
      </trkpt>
      <trkpt lat="60.59417" lon="7.50921">
        <ele>1209.96</ele>
        <time>2019-04-07T16:01:20Z</time>
      </trkpt>
      <trkpt lat="60.59418" lon="7.50919">
        <ele>1209.96</ele>
        <time>2019-04-07T16:01:55Z</time>
      </trkpt>
      <trkpt lat="60.59419" lon="7.50922">
        <ele>1209.96</ele>
        <time>2019-04-07T16:02:34Z</time>
      </trkpt>
      <trkpt lat="60.59419" lon="7.5092">
        <ele>1209.48</ele>
        <time>2019-04-07T16:03:15Z</time>
      </trkpt>
      <trkpt lat="60.59418" lon="7.50921">
        <ele>1209.96</ele>
        <time>2019-04-07T16:04:05Z</time>
      </trkpt>
      <trkpt lat="60.59418" lon="7.5092">
        <ele>1209.96</ele>
        <time>2019-04-07T16:04:49Z</time>
      </trkpt>
      <trkpt lat="60.59418" lon="7.50919">
        <ele>1209.96</ele>
        <time>2019-04-07T16:05:32Z</time>
      </trkpt>
      <trkpt lat="60.59418" lon="7.50919">
        <ele>1209.96</ele>
        <time>2019-04-07T16:06:04Z</time>
      </trkpt>
      <trkpt lat="60.59419" lon="7.5092">
        <ele>1209.96</ele>
        <time>2019-04-07T16:06:47Z</time>
      </trkpt>
      <trkpt lat="60.59419" lon="7.50917">
        <ele>1209.96</ele>
        <time>2019-04-07T16:07:31Z</time>
      </trkpt>
      <trkpt lat="60.59417" lon="7.50919">
        <ele>1210.44</ele>
        <time>2019-04-07T16:08:08Z</time>
      </trkpt>
      <trkpt lat="60.59418" lon="7.50922">
        <ele>1210.44</ele>
        <time>2019-04-07T16:08:43Z</time>
      </trkpt>
      <trkpt lat="60.5942" lon="7.50923">
        <ele>1210.44</ele>
        <time>2019-04-07T16:09:26Z</time>
      </trkpt>
      <trkpt lat="60.59418" lon="7.5092">
        <ele>1210.44</ele>
        <time>2019-04-07T16:10:07Z</time>
      </trkpt>
      <trkpt lat="60.59418" lon="7.50919">
        <ele>1210.44</ele>
        <time>2019-04-07T16:10:38Z</time>
      </trkpt>
      <trkpt lat="60.59421" lon="7.50921">
        <ele>1210.44</ele>
        <time>2019-04-07T16:11:21Z</time>
      </trkpt>
      <trkpt lat="60.59422" lon="7.50922">
        <ele>1210.44</ele>
        <time>2019-04-07T16:11:54Z</time>
      </trkpt>
      <trkpt lat="60.59421" lon="7.50923">
        <ele>1210.44</ele>
        <time>2019-04-07T16:12:32Z</time>
      </trkpt>
      <trkpt lat="60.59419" lon="7.50919">
        <ele>1210.44</ele>
        <time>2019-04-07T16:13:12Z</time>
      </trkpt>
      <trkpt lat="60.59418" lon="7.50919">
        <ele>1210.44</ele>
        <time>2019-04-07T16:13:52Z</time>
      </trkpt>
      <trkpt lat="60.59419" lon="7.5092">
        <ele>1210.44</ele>
        <time>2019-04-07T16:14:21Z</time>
      </trkpt>
      <trkpt lat="60.59419" lon="7.50922">
        <ele>1210.44</ele>
        <time>2019-04-07T16:14:58Z</time>
      </trkpt>
      <trkpt lat="60.59418" lon="7.50919">
        <ele>1209.96</ele>
        <time>2019-04-07T16:15:42Z</time>
      </trkpt>
      <trkpt lat="60.59418" lon="7.50919">
        <ele>1209.96</ele>
        <time>2019-04-07T16:16:22Z</time>
      </trkpt>
      <trkpt lat="60.59417" lon="7.50921">
        <ele>1209.96</ele>
        <time>2019-04-07T16:16:55Z</time>
      </trkpt>
      <trkpt lat="60.59418" lon="7.50919">
        <ele>1209.96</ele>
        <time>2019-04-07T16:17:34Z</time>
      </trkpt>
      <trkpt lat="60.59419" lon="7.5092">
        <ele>1209.96</ele>
        <time>2019-04-07T16:18:06Z</time>
      </trkpt>
      <trkpt lat="60.59419" lon="7.5092">
        <ele>1209.96</ele>
        <time>2019-04-07T16:18:48Z</time>
      </trkpt>
      <trkpt lat="60.59419" lon="7.5092">
        <ele>1209.48</ele>
        <time>2019-04-07T16:19:37Z</time>
      </trkpt>
      <trkpt lat="60.59418" lon="7.50916">
        <ele>1209.48</ele>
        <time>2019-04-07T16:20:17Z</time>
      </trkpt>
      <trkpt lat="60.59418" lon="7.50917">
        <ele>1209.48</ele>
        <time>2019-04-07T16:20:56Z</time>
      </trkpt>
      <trkpt lat="60.59418" lon="7.50917">
        <ele>1209</ele>
        <time>2019-04-07T16:21:33Z</time>
      </trkpt>
      <trkpt lat="60.5942" lon="7.50921">
        <ele>1209</ele>
        <time>2019-04-07T16:22:16Z</time>
      </trkpt>
      <trkpt lat="60.59417" lon="7.50916">
        <ele>1209</ele>
        <time>2019-04-07T16:22:51Z</time>
      </trkpt>
      <trkpt lat="60.59418" lon="7.50915">
        <ele>1209</ele>
        <time>2019-04-07T16:23:25Z</time>
      </trkpt>
      <trkpt lat="60.59418" lon="7.50918">
        <ele>1209</ele>
        <time>2019-04-07T16:23:57Z</time>
      </trkpt>
      <trkpt lat="60.59418" lon="7.50919">
        <ele>1209</ele>
        <time>2019-04-07T16:24:36Z</time>
      </trkpt>
      <trkpt lat="60.59417" lon="7.50917">
        <ele>1209</ele>
        <time>2019-04-07T16:25:12Z</time>
      </trkpt>
      <trkpt lat="60.59417" lon="7.50914">
        <ele>1209</ele>
        <time>2019-04-07T16:25:40Z</time>
      </trkpt>
      <trkpt lat="60.59417" lon="7.50915">
        <ele>1209</ele>
        <time>2019-04-07T16:26:04Z</time>
      </trkpt>
      <trkpt lat="60.59418" lon="7.50918">
        <ele>1209</ele>
        <time>2019-04-07T16:26:34Z</time>
      </trkpt>
      <trkpt lat="60.59418" lon="7.50919">
        <ele>1209</ele>
        <time>2019-04-07T16:27:01Z</time>
      </trkpt>
      <trkpt lat="60.59417" lon="7.50916">
        <ele>1209</ele>
        <time>2019-04-07T16:27:40Z</time>
      </trkpt>
      <trkpt lat="60.59417" lon="7.50911">
        <ele>1209</ele>
        <time>2019-04-07T16:28:17Z</time>
      </trkpt>
      <trkpt lat="60.59418" lon="7.50909">
        <ele>1209</ele>
        <time>2019-04-07T16:28:48Z</time>
      </trkpt>
      <trkpt lat="60.59417" lon="7.50912">
        <ele>1209</ele>
        <time>2019-04-07T16:29:21Z</time>
      </trkpt>
      <trkpt lat="60.59418" lon="7.50911">
        <ele>1209</ele>
        <time>2019-04-07T16:30:02Z</time>
      </trkpt>
      <trkpt lat="60.59418" lon="7.50908">
        <ele>1209</ele>
        <time>2019-04-07T16:30:37Z</time>
      </trkpt>
      <trkpt lat="60.59417" lon="7.50915">
        <ele>1209</ele>
        <time>2019-04-07T16:31:15Z</time>
      </trkpt>
      <trkpt lat="60.58632" lon="7.50548">
        <ele>1256.1</ele>
        <time>2019-04-07T17:47:12Z</time>
      </trkpt>
      <trkpt lat="60.58633" lon="7.50548">
        <ele>1256.1</ele>
        <time>2019-04-07T17:47:13Z</time>
      </trkpt>
    </trkseg>
  </trk>
</gpx>